<?xml version="1.0" encoding="UTF-8" standalone="no" ?><gpx xmlns="http://www.topografix.com/GPX/1/1" xmlns:gpxx="http://www.garmin.com/xmlschemas/GpxExtensions/v3" xmlns:wptx1="http://www.garmin.com/xmlschemas/WaypointExtension/v1" xmlns:gpxtpx="http://www.garmin.com/xmlschemas/TrackPointExtension/v1" creator="GuideVTT.com" version="1.1" xmlns:xsi="http://www.w3.org/2001/XMLSchema-instance" xsi:schemaLocation="http://www.topografix.com/GPX/1/1 http://www.topografix.com/GPX/1/1/gpx.xsd http://www.garmin.com/xmlschemas/GpxExtensions/v3 http://www8.garmin.com/xmlschemas/GpxExtensionsv3.xsd http://www.garmin.com/xmlschemas/WaypointExtension/v1 http://www8.garmin.com/xmlschemas/WaypointExtensionv1.xsd http://www.garmin.com/xmlschemas/TrackPointExtension/v1 http://www.garmin.com/xmlschemas/TrackPointExtensionv1.xsd">
<metadata><link href="http://www.garmin.com"><text>Garmin International</text></link><time>2013-06-22T15:13:50Z</time></metadata>
<trk><name>00000_20110322.gpx</name><extensions><gpxx:TrackExtension><gpxx:DisplayColor>Cyan</gpxx:DisplayColor></gpxx:TrackExtension></extensions><trkseg>
<trkpt lat="42.289760" lon="3.279853"><ele></ele><time>2014-4-8T23:32:37Z</time></trkpt>
<trkpt lat="42.289745" lon="3.279852"><ele></ele><time>2014-4-8T23:32:40Z</time></trkpt>
<trkpt lat="42.289783" lon="3.279588"><ele></ele><time>2014-4-8T23:32:43Z</time></trkpt>
<trkpt lat="42.289772" lon="3.280018"><ele></ele><time>2014-4-8T23:32:46Z</time></trkpt>
<trkpt lat="42.289745" lon="3.279843"><ele></ele><time>2014-4-8T23:32:49Z</time></trkpt>
<trkpt lat="42.289772" lon="3.279842"><ele></ele><time>2014-4-8T23:32:52Z</time></trkpt>
<trkpt lat="42.289825" lon="3.279778"><ele></ele><time>2014-4-8T23:32:55Z</time></trkpt>
<trkpt lat="42.289955" lon="3.279753"><ele></ele><time>2014-4-8T23:32:58Z</time></trkpt>
<trkpt lat="42.290070" lon="3.279273"><ele></ele><time>2014-4-8T23:33:1Z</time></trkpt>
<trkpt lat="42.290173" lon="3.279220"><ele></ele><time>2014-4-8T23:33:4Z</time></trkpt>
<trkpt lat="42.290280" lon="3.279155"><ele></ele><time>2014-4-8T23:33:7Z</time></trkpt>
<trkpt lat="42.290398" lon="3.279053"><ele></ele><time>2014-4-8T23:33:10Z</time></trkpt>
<trkpt lat="42.290535" lon="3.278948"><ele></ele><time>2014-4-8T23:33:13Z</time></trkpt>
<trkpt lat="42.290707" lon="3.278823"><ele></ele><time>2014-4-8T23:33:16Z</time></trkpt>
<trkpt lat="42.290863" lon="3.278798"><ele></ele><time>2014-4-8T23:33:19Z</time></trkpt>
<trkpt lat="42.290893" lon="3.278635"><ele></ele><time>2014-4-8T23:33:22Z</time></trkpt>
<trkpt lat="42.290837" lon="3.278475"><ele></ele><time>2014-4-8T23:33:25Z</time></trkpt>
<trkpt lat="42.290757" lon="3.278362"><ele></ele><time>2014-4-8T23:33:28Z</time></trkpt>
<trkpt lat="42.290692" lon="3.278277"><ele></ele><time>2014-4-8T23:33:31Z</time></trkpt>
<trkpt lat="42.290642" lon="3.278185"><ele></ele><time>2014-4-8T23:33:34Z</time></trkpt>
<trkpt lat="42.290588" lon="3.277992"><ele></ele><time>2014-4-8T23:33:37Z</time></trkpt>
<trkpt lat="42.290543" lon="3.277878"><ele></ele><time>2014-4-8T23:33:40Z</time></trkpt>
<trkpt lat="42.290478" lon="3.277763"><ele></ele><time>2014-4-8T23:33:43Z</time></trkpt>
<trkpt lat="42.290420" lon="3.277647"><ele></ele><time>2014-4-8T23:33:46Z</time></trkpt>
<trkpt lat="42.290352" lon="3.277478"><ele></ele><time>2014-4-8T23:33:49Z</time></trkpt>
<trkpt lat="42.290280" lon="3.277243"><ele></ele><time>2014-4-8T23:33:52Z</time></trkpt>
<trkpt lat="42.290210" lon="3.276980"><ele></ele><time>2014-4-8T23:33:55Z</time></trkpt>
<trkpt lat="42.290195" lon="3.276717"><ele></ele><time>2014-4-8T23:33:58Z</time></trkpt>
<trkpt lat="42.290215" lon="3.276395"><ele></ele><time>2014-4-8T23:34:1Z</time></trkpt>
<trkpt lat="42.290138" lon="3.276078"><ele></ele><time>2014-4-8T23:34:4Z</time></trkpt>
<trkpt lat="42.290038" lon="3.275853"><ele></ele><time>2014-4-8T23:34:7Z</time></trkpt>
<trkpt lat="42.289928" lon="3.275853"><ele></ele><time>2014-4-8T23:34:10Z</time></trkpt>
<trkpt lat="42.289890" lon="3.276063"><ele></ele><time>2014-4-8T23:34:13Z</time></trkpt>
<trkpt lat="42.289848" lon="3.276297"><ele></ele><time>2014-4-8T23:34:16Z</time></trkpt>
<trkpt lat="42.289803" lon="3.276578"><ele></ele><time>2014-4-8T23:34:19Z</time></trkpt>
<trkpt lat="42.289742" lon="3.276882"><ele></ele><time>2014-4-8T23:34:22Z</time></trkpt>
<trkpt lat="42.289635" lon="3.277145"><ele></ele><time>2014-4-8T23:34:25Z</time></trkpt>
<trkpt lat="42.289470" lon="3.277357"><ele></ele><time>2014-4-8T23:34:28Z</time></trkpt>
<trkpt lat="42.289337" lon="3.277648"><ele></ele><time>2014-4-8T23:34:31Z</time></trkpt>
<trkpt lat="42.289127" lon="3.277795"><ele></ele><time>2014-4-8T23:34:34Z</time></trkpt>
<trkpt lat="42.288922" lon="3.277892"><ele></ele><time>2014-4-8T23:34:37Z</time></trkpt>
<trkpt lat="42.288747" lon="3.277938"><ele></ele><time>2014-4-8T23:34:40Z</time></trkpt>
<trkpt lat="42.288620" lon="3.277745"><ele></ele><time>2014-4-8T23:34:43Z</time></trkpt>
<trkpt lat="42.288487" lon="3.277495"><ele></ele><time>2014-4-8T23:34:46Z</time></trkpt>
<trkpt lat="42.288353" lon="3.277277"><ele></ele><time>2014-4-8T23:34:49Z</time></trkpt>
<trkpt lat="42.288193" lon="3.277163"><ele></ele><time>2014-4-8T23:34:52Z</time></trkpt>
<trkpt lat="42.287975" lon="3.277188"><ele></ele><time>2014-4-8T23:34:55Z</time></trkpt>
<trkpt lat="42.287765" lon="3.277302"><ele></ele><time>2014-4-8T23:34:58Z</time></trkpt>
<trkpt lat="42.287572" lon="3.277413"><ele></ele><time>2014-4-8T23:35:1Z</time></trkpt>
<trkpt lat="42.287427" lon="3.277293"><ele></ele><time>2014-4-8T23:35:4Z</time></trkpt>
<trkpt lat="42.287430" lon="3.277017"><ele></ele><time>2014-4-8T23:35:7Z</time></trkpt>
<trkpt lat="42.287475" lon="3.276725"><ele></ele><time>2014-4-8T23:35:10Z</time></trkpt>
<trkpt lat="42.287510" lon="3.276425"><ele></ele><time>2014-4-8T23:35:13Z</time></trkpt>
<trkpt lat="42.287468" lon="3.276140"><ele></ele><time>2014-4-8T23:35:16Z</time></trkpt>
<trkpt lat="42.287288" lon="3.275978"><ele></ele><time>2014-4-8T23:35:19Z</time></trkpt>
<trkpt lat="42.287078" lon="3.275988"><ele></ele><time>2014-4-8T23:35:22Z</time></trkpt>
<trkpt lat="42.286965" lon="3.276167"><ele></ele><time>2014-4-8T23:35:25Z</time></trkpt>
<trkpt lat="42.286743" lon="3.276262"><ele></ele><time>2014-4-8T23:35:28Z</time></trkpt>
<trkpt lat="42.286587" lon="3.276457"><ele></ele><time>2014-4-8T23:35:31Z</time></trkpt>
<trkpt lat="42.286397" lon="3.276517"><ele></ele><time>2014-4-8T23:35:34Z</time></trkpt>
<trkpt lat="42.286235" lon="3.276628"><ele></ele><time>2014-4-8T23:35:37Z</time></trkpt>
<trkpt lat="42.286087" lon="3.276742"><ele></ele><time>2014-4-8T23:35:40Z</time></trkpt>
<trkpt lat="42.285920" lon="3.276652"><ele></ele><time>2014-4-8T23:35:43Z</time></trkpt>
<trkpt lat="42.285838" lon="3.276280"><ele></ele><time>2014-4-8T23:35:46Z</time></trkpt>
<trkpt lat="42.285710" lon="3.276058"><ele></ele><time>2014-4-8T23:35:49Z</time></trkpt>
<trkpt lat="42.285577" lon="3.275932"><ele></ele><time>2014-4-8T23:35:52Z</time></trkpt>
<trkpt lat="42.285453" lon="3.275713"><ele></ele><time>2014-4-8T23:35:55Z</time></trkpt>
<trkpt lat="42.285313" lon="3.275555"><ele></ele><time>2014-4-8T23:35:58Z</time></trkpt>
<trkpt lat="42.285175" lon="3.275583"><ele></ele><time>2014-4-8T23:36:1Z</time></trkpt>
<trkpt lat="42.284992" lon="3.275660"><ele></ele><time>2014-4-8T23:36:4Z</time></trkpt>
<trkpt lat="42.284863" lon="3.275488"><ele></ele><time>2014-4-8T23:36:7Z</time></trkpt>
<trkpt lat="42.284657" lon="3.275283"><ele></ele><time>2014-4-8T23:36:10Z</time></trkpt>
<trkpt lat="42.284390" lon="3.275183"><ele></ele><time>2014-4-8T23:36:13Z</time></trkpt>
<trkpt lat="42.284337" lon="3.275178"><ele></ele><time>2014-4-8T23:36:16Z</time></trkpt>
<trkpt lat="42.284337" lon="3.275188"><ele></ele><time>2014-4-8T23:36:19Z</time></trkpt>
<trkpt lat="42.284313" lon="3.275205"><ele></ele><time>2014-4-8T23:36:22Z</time></trkpt>
<trkpt lat="42.284160" lon="3.275260"><ele></ele><time>2014-4-8T23:36:25Z</time></trkpt>
<trkpt lat="42.283967" lon="3.275393"><ele></ele><time>2014-4-8T23:36:28Z</time></trkpt>
<trkpt lat="42.283775" lon="3.275545"><ele></ele><time>2014-4-8T23:36:31Z</time></trkpt>
<trkpt lat="42.283607" lon="3.275667"><ele></ele><time>2014-4-8T23:36:34Z</time></trkpt>
<trkpt lat="42.283432" lon="3.275780"><ele></ele><time>2014-4-8T23:36:37Z</time></trkpt>
<trkpt lat="42.283227" lon="3.275843"><ele></ele><time>2014-4-8T23:36:40Z</time></trkpt>
<trkpt lat="42.283038" lon="3.275682"><ele></ele><time>2014-4-8T23:36:43Z</time></trkpt>
<trkpt lat="42.282810" lon="3.275533"><ele></ele><time>2014-4-8T23:36:46Z</time></trkpt>
<trkpt lat="42.282605" lon="3.275503"><ele></ele><time>2014-4-8T23:36:49Z</time></trkpt>
<trkpt lat="42.282437" lon="3.275503"><ele></ele><time>2014-4-8T23:36:52Z</time></trkpt>
<trkpt lat="42.282315" lon="3.275547"><ele></ele><time>2014-4-8T23:36:55Z</time></trkpt>
<trkpt lat="42.282218" lon="3.275617"><ele></ele><time>2014-4-8T23:36:58Z</time></trkpt>
<trkpt lat="42.282120" lon="3.275633"><ele></ele><time>2014-4-8T23:37:1Z</time></trkpt>
<trkpt lat="42.282020" lon="3.275612"><ele></ele><time>2014-4-8T23:37:4Z</time></trkpt>
<trkpt lat="42.281940" lon="3.275593"><ele></ele><time>2014-4-8T23:37:7Z</time></trkpt>
<trkpt lat="42.281857" lon="3.275575"><ele></ele><time>2014-4-8T23:37:10Z</time></trkpt>
<trkpt lat="42.281773" lon="3.275528"><ele></ele><time>2014-4-8T23:37:13Z</time></trkpt>
<trkpt lat="42.281693" lon="3.275488"><ele></ele><time>2014-4-8T23:37:16Z</time></trkpt>
<trkpt lat="42.281612" lon="3.275448"><ele></ele><time>2014-4-8T23:37:19Z</time></trkpt>
<trkpt lat="42.281540" lon="3.275422"><ele></ele><time>2014-4-8T23:37:22Z</time></trkpt>
<trkpt lat="42.281467" lon="3.275385"><ele></ele><time>2014-4-8T23:37:25Z</time></trkpt>
<trkpt lat="42.281398" lon="3.275368"><ele></ele><time>2014-4-8T23:37:28Z</time></trkpt>
<trkpt lat="42.281338" lon="3.275328"><ele></ele><time>2014-4-8T23:37:31Z</time></trkpt>
<trkpt lat="42.281280" lon="3.275268"><ele></ele><time>2014-4-8T23:37:34Z</time></trkpt>
<trkpt lat="42.281242" lon="3.275187"><ele></ele><time>2014-4-8T23:37:37Z</time></trkpt>
<trkpt lat="42.281215" lon="3.275097"><ele></ele><time>2014-4-8T23:37:40Z</time></trkpt>
<trkpt lat="42.281188" lon="3.275003"><ele></ele><time>2014-4-8T23:37:43Z</time></trkpt>
<trkpt lat="42.281167" lon="3.274910"><ele></ele><time>2014-4-8T23:37:46Z</time></trkpt>
<trkpt lat="42.281155" lon="3.274823"><ele></ele><time>2014-4-8T23:37:49Z</time></trkpt>
<trkpt lat="42.281155" lon="3.274748"><ele></ele><time>2014-4-8T23:37:52Z</time></trkpt>
<trkpt lat="42.281155" lon="3.274668"><ele></ele><time>2014-4-8T23:37:55Z</time></trkpt>
<trkpt lat="42.281178" lon="3.274598"><ele></ele><time>2014-4-8T23:37:58Z</time></trkpt>
<trkpt lat="42.281185" lon="3.274515"><ele></ele><time>2014-4-8T23:38:1Z</time></trkpt>
<trkpt lat="42.281185" lon="3.274425"><ele></ele><time>2014-4-8T23:38:4Z</time></trkpt>
<trkpt lat="42.281173" lon="3.274328"><ele></ele><time>2014-4-8T23:38:7Z</time></trkpt>
<trkpt lat="42.281155" lon="3.274228"><ele></ele><time>2014-4-8T23:38:10Z</time></trkpt>
<trkpt lat="42.281123" lon="3.274145"><ele></ele><time>2014-4-8T23:38:13Z</time></trkpt>
<trkpt lat="42.281087" lon="3.274070"><ele></ele><time>2014-4-8T23:38:16Z</time></trkpt>
<trkpt lat="42.281040" lon="3.274015"><ele></ele><time>2014-4-8T23:38:19Z</time></trkpt>
<trkpt lat="42.280983" lon="3.273985"><ele></ele><time>2014-4-8T23:38:22Z</time></trkpt>
<trkpt lat="42.280918" lon="3.273967"><ele></ele><time>2014-4-8T23:38:25Z</time></trkpt>
<trkpt lat="42.280853" lon="3.273932"><ele></ele><time>2014-4-8T23:38:28Z</time></trkpt>
<trkpt lat="42.280797" lon="3.273877"><ele></ele><time>2014-4-8T23:38:31Z</time></trkpt>
<trkpt lat="42.280743" lon="3.273827"><ele></ele><time>2014-4-8T23:38:34Z</time></trkpt>
<trkpt lat="42.280690" lon="3.273783"><ele></ele><time>2014-4-8T23:38:37Z</time></trkpt>
<trkpt lat="42.280617" lon="3.273812"><ele></ele><time>2014-4-8T23:38:40Z</time></trkpt>
<trkpt lat="42.280582" lon="3.273900"><ele></ele><time>2014-4-8T23:38:43Z</time></trkpt>
<trkpt lat="42.280578" lon="3.273992"><ele></ele><time>2014-4-8T23:38:46Z</time></trkpt>
<trkpt lat="42.280578" lon="3.274097"><ele></ele><time>2014-4-8T23:38:49Z</time></trkpt>
<trkpt lat="42.280590" lon="3.274192"><ele></ele><time>2014-4-8T23:38:52Z</time></trkpt>
<trkpt lat="42.280567" lon="3.274285"><ele></ele><time>2014-4-8T23:38:55Z</time></trkpt>
<trkpt lat="42.280533" lon="3.274373"><ele></ele><time>2014-4-8T23:38:58Z</time></trkpt>
<trkpt lat="42.280475" lon="3.274433"><ele></ele><time>2014-4-8T23:39:1Z</time></trkpt>
<trkpt lat="42.280407" lon="3.274457"><ele></ele><time>2014-4-8T23:39:4Z</time></trkpt>
<trkpt lat="42.280338" lon="3.274508"><ele></ele><time>2014-4-8T23:39:7Z</time></trkpt>
<trkpt lat="42.280270" lon="3.274550"><ele></ele><time>2014-4-8T23:39:10Z</time></trkpt>
<trkpt lat="42.280205" lon="3.274592"><ele></ele><time>2014-4-8T23:39:13Z</time></trkpt>
<trkpt lat="42.280140" lon="3.274640"><ele></ele><time>2014-4-8T23:39:16Z</time></trkpt>
<trkpt lat="42.280075" lon="3.274680"><ele></ele><time>2014-4-8T23:39:19Z</time></trkpt>
<trkpt lat="42.280010" lon="3.274735"><ele></ele><time>2014-4-8T23:39:22Z</time></trkpt>
<trkpt lat="42.279942" lon="3.274783"><ele></ele><time>2014-4-8T23:39:25Z</time></trkpt>
<trkpt lat="42.279862" lon="3.274827"><ele></ele><time>2014-4-8T23:39:28Z</time></trkpt>
<trkpt lat="42.279785" lon="3.274860"><ele></ele><time>2014-4-8T23:39:31Z</time></trkpt>
<trkpt lat="42.279713" lon="3.274818"><ele></ele><time>2014-4-8T23:39:34Z</time></trkpt>
<trkpt lat="42.279670" lon="3.274718"><ele></ele><time>2014-4-8T23:39:37Z</time></trkpt>
<trkpt lat="42.279663" lon="3.274620"><ele></ele><time>2014-4-8T23:39:40Z</time></trkpt>
<trkpt lat="42.279723" lon="3.274555"><ele></ele><time>2014-4-8T23:39:43Z</time></trkpt>
<trkpt lat="42.279767" lon="3.274473"><ele></ele><time>2014-4-8T23:39:46Z</time></trkpt>
<trkpt lat="42.279808" lon="3.274385"><ele></ele><time>2014-4-8T23:39:49Z</time></trkpt>
<trkpt lat="42.279842" lon="3.274293"><ele></ele><time>2014-4-8T23:39:52Z</time></trkpt>
<trkpt lat="42.279865" lon="3.274190"><ele></ele><time>2014-4-8T23:39:55Z</time></trkpt>
<trkpt lat="42.279888" lon="3.274092"><ele></ele><time>2014-4-8T23:39:58Z</time></trkpt>
<trkpt lat="42.279918" lon="3.273997"><ele></ele><time>2014-4-8T23:40:1Z</time></trkpt>
<trkpt lat="42.279938" lon="3.273895"><ele></ele><time>2014-4-8T23:40:4Z</time></trkpt>
<trkpt lat="42.279945" lon="3.273788"><ele></ele><time>2014-4-8T23:40:7Z</time></trkpt>
<trkpt lat="42.279945" lon="3.273682"><ele></ele><time>2014-4-8T23:40:10Z</time></trkpt>
<trkpt lat="42.279938" lon="3.273583"><ele></ele><time>2014-4-8T23:40:13Z</time></trkpt>
<trkpt lat="42.279907" lon="3.273492"><ele></ele><time>2014-4-8T23:40:16Z</time></trkpt>
<trkpt lat="42.279865" lon="3.273403"><ele></ele><time>2014-4-8T23:40:19Z</time></trkpt>
<trkpt lat="42.279835" lon="3.273305"><ele></ele><time>2014-4-8T23:40:22Z</time></trkpt>
<trkpt lat="42.279797" lon="3.273213"><ele></ele><time>2014-4-8T23:40:25Z</time></trkpt>
<trkpt lat="42.279762" lon="3.273125"><ele></ele><time>2014-4-8T23:40:28Z</time></trkpt>
<trkpt lat="42.279728" lon="3.273040"><ele></ele><time>2014-4-8T23:40:31Z</time></trkpt>
<trkpt lat="42.279687" lon="3.272958"><ele></ele><time>2014-4-8T23:40:34Z</time></trkpt>
<trkpt lat="42.279622" lon="3.272903"><ele></ele><time>2014-4-8T23:40:37Z</time></trkpt>
<trkpt lat="42.279542" lon="3.272880"><ele></ele><time>2014-4-8T23:40:40Z</time></trkpt>
<trkpt lat="42.279462" lon="3.272840"><ele></ele><time>2014-4-8T23:40:43Z</time></trkpt>
<trkpt lat="42.279397" lon="3.272780"><ele></ele><time>2014-4-8T23:40:46Z</time></trkpt>
<trkpt lat="42.279362" lon="3.272683"><ele></ele><time>2014-4-8T23:40:49Z</time></trkpt>
<trkpt lat="42.279353" lon="3.272580"><ele></ele><time>2014-4-8T23:40:52Z</time></trkpt>
<trkpt lat="42.279358" lon="3.272482"><ele></ele><time>2014-4-8T23:40:55Z</time></trkpt>
<trkpt lat="42.279327" lon="3.272388"><ele></ele><time>2014-4-8T23:40:58Z</time></trkpt>
<trkpt lat="42.279305" lon="3.272293"><ele></ele><time>2014-4-8T23:41:1Z</time></trkpt>
<trkpt lat="42.279278" lon="3.272202"><ele></ele><time>2014-4-8T23:41:4Z</time></trkpt>
<trkpt lat="42.279240" lon="3.272113"><ele></ele><time>2014-4-8T23:41:7Z</time></trkpt>
<trkpt lat="42.279198" lon="3.272027"><ele></ele><time>2014-4-8T23:41:10Z</time></trkpt>
<trkpt lat="42.279155" lon="3.271940"><ele></ele><time>2014-4-8T23:41:13Z</time></trkpt>
<trkpt lat="42.279113" lon="3.271857"><ele></ele><time>2014-4-8T23:41:16Z</time></trkpt>
<trkpt lat="42.279068" lon="3.271762"><ele></ele><time>2014-4-8T23:41:19Z</time></trkpt>
<trkpt lat="42.279042" lon="3.271663"><ele></ele><time>2014-4-8T23:41:22Z</time></trkpt>
<trkpt lat="42.278988" lon="3.271580"><ele></ele><time>2014-4-8T23:41:25Z</time></trkpt>
<trkpt lat="42.278912" lon="3.271523"><ele></ele><time>2014-4-8T23:41:28Z</time></trkpt>
<trkpt lat="42.278847" lon="3.271462"><ele></ele><time>2014-4-8T23:41:31Z</time></trkpt>
<trkpt lat="42.278828" lon="3.271355"><ele></ele><time>2014-4-8T23:41:34Z</time></trkpt>
<trkpt lat="42.278850" lon="3.271250"><ele></ele><time>2014-4-8T23:41:37Z</time></trkpt>
<trkpt lat="42.278903" lon="3.271170"><ele></ele><time>2014-4-8T23:41:40Z</time></trkpt>
<trkpt lat="42.278947" lon="3.271085"><ele></ele><time>2014-4-8T23:41:43Z</time></trkpt>
<trkpt lat="42.278968" lon="3.270990"><ele></ele><time>2014-4-8T23:41:46Z</time></trkpt>
<trkpt lat="42.278983" lon="3.270890"><ele></ele><time>2014-4-8T23:41:49Z</time></trkpt>
<trkpt lat="42.278992" lon="3.270790"><ele></ele><time>2014-4-8T23:41:52Z</time></trkpt>
<trkpt lat="42.279000" lon="3.270683"><ele></ele><time>2014-4-8T23:41:55Z</time></trkpt>
<trkpt lat="42.278995" lon="3.270580"><ele></ele><time>2014-4-8T23:41:58Z</time></trkpt>
<trkpt lat="42.278983" lon="3.270482"><ele></ele><time>2014-4-8T23:42:1Z</time></trkpt>
<trkpt lat="42.278953" lon="3.270398"><ele></ele><time>2014-4-8T23:42:4Z</time></trkpt>
<trkpt lat="42.278885" lon="3.270367"><ele></ele><time>2014-4-8T23:42:7Z</time></trkpt>
<trkpt lat="42.278812" lon="3.270440"><ele></ele><time>2014-4-8T23:42:10Z</time></trkpt>
<trkpt lat="42.278737" lon="3.270490"><ele></ele><time>2014-4-8T23:42:13Z</time></trkpt>
<trkpt lat="42.278637" lon="3.270493"><ele></ele><time>2014-4-8T23:42:16Z</time></trkpt>
<trkpt lat="42.278553" lon="3.270430"><ele></ele><time>2014-4-8T23:42:19Z</time></trkpt>
<trkpt lat="42.278533" lon="3.270318"><ele></ele><time>2014-4-8T23:42:22Z</time></trkpt>
<trkpt lat="42.278500" lon="3.270215"><ele></ele><time>2014-4-8T23:42:25Z</time></trkpt>
<trkpt lat="42.278420" lon="3.270197"><ele></ele><time>2014-4-8T23:42:28Z</time></trkpt>
<trkpt lat="42.278347" lon="3.270252"><ele></ele><time>2014-4-8T23:42:31Z</time></trkpt>
<trkpt lat="42.278282" lon="3.270318"><ele></ele><time>2014-4-8T23:42:34Z</time></trkpt>
<trkpt lat="42.278217" lon="3.270390"><ele></ele><time>2014-4-8T23:42:37Z</time></trkpt>
<trkpt lat="42.278160" lon="3.270460"><ele></ele><time>2014-4-8T23:42:40Z</time></trkpt>
<trkpt lat="42.278092" lon="3.270513"><ele></ele><time>2014-4-8T23:42:43Z</time></trkpt>
<trkpt lat="42.278038" lon="3.270595"><ele></ele><time>2014-4-8T23:42:46Z</time></trkpt>
<trkpt lat="42.278018" lon="3.270698"><ele></ele><time>2014-4-8T23:42:49Z</time></trkpt>
<trkpt lat="42.278023" lon="3.270808"><ele></ele><time>2014-4-8T23:42:52Z</time></trkpt>
<trkpt lat="42.277992" lon="3.270898"><ele></ele><time>2014-4-8T23:42:55Z</time></trkpt>
<trkpt lat="42.277923" lon="3.270920"><ele></ele><time>2014-4-8T23:42:58Z</time></trkpt>
<trkpt lat="42.277863" lon="3.270862"><ele></ele><time>2014-4-8T23:43:1Z</time></trkpt>
<trkpt lat="42.277837" lon="3.270755"><ele></ele><time>2014-4-8T23:43:4Z</time></trkpt>
<trkpt lat="42.277855" lon="3.270655"><ele></ele><time>2014-4-8T23:43:7Z</time></trkpt>
<trkpt lat="42.277878" lon="3.270552"><ele></ele><time>2014-4-8T23:43:10Z</time></trkpt>
<trkpt lat="42.277882" lon="3.270442"><ele></ele><time>2014-4-8T23:43:13Z</time></trkpt>
<trkpt lat="42.277882" lon="3.270318"><ele></ele><time>2014-4-8T23:43:16Z</time></trkpt>
<trkpt lat="42.277858" lon="3.270213"><ele></ele><time>2014-4-8T23:43:19Z</time></trkpt>
<trkpt lat="42.277802" lon="3.270128"><ele></ele><time>2014-4-8T23:43:22Z</time></trkpt>
<trkpt lat="42.277713" lon="3.270097"><ele></ele><time>2014-4-8T23:43:25Z</time></trkpt>
<trkpt lat="42.277648" lon="3.270023"><ele></ele><time>2014-4-8T23:43:28Z</time></trkpt>
<trkpt lat="42.277603" lon="3.269927"><ele></ele><time>2014-4-8T23:43:31Z</time></trkpt>
<trkpt lat="42.277535" lon="3.269842"><ele></ele><time>2014-4-8T23:43:34Z</time></trkpt>
<trkpt lat="42.277488" lon="3.269737"><ele></ele><time>2014-4-8T23:43:37Z</time></trkpt>
<trkpt lat="42.277450" lon="3.269630"><ele></ele><time>2014-4-8T23:43:40Z</time></trkpt>
<trkpt lat="42.277420" lon="3.269523"><ele></ele><time>2014-4-8T23:43:43Z</time></trkpt>
<trkpt lat="42.277352" lon="3.269445"><ele></ele><time>2014-4-8T23:43:46Z</time></trkpt>
<trkpt lat="42.277257" lon="3.269435"><ele></ele><time>2014-4-8T23:43:49Z</time></trkpt>
<trkpt lat="42.277157" lon="3.269440"><ele></ele><time>2014-4-8T23:43:52Z</time></trkpt>
<trkpt lat="42.277068" lon="3.269395"><ele></ele><time>2014-4-8T23:43:55Z</time></trkpt>
<trkpt lat="42.277008" lon="3.269302"><ele></ele><time>2014-4-8T23:43:58Z</time></trkpt>
<trkpt lat="42.276947" lon="3.269213"><ele></ele><time>2014-4-8T23:44:1Z</time></trkpt>
<trkpt lat="42.276890" lon="3.269135"><ele></ele><time>2014-4-8T23:44:4Z</time></trkpt>
<trkpt lat="42.276828" lon="3.269070"><ele></ele><time>2014-4-8T23:44:7Z</time></trkpt>
<trkpt lat="42.276828" lon="3.268957"><ele></ele><time>2014-4-8T23:44:10Z</time></trkpt>
<trkpt lat="42.276837" lon="3.268857"><ele></ele><time>2014-4-8T23:44:13Z</time></trkpt>
<trkpt lat="42.276825" lon="3.268765"><ele></ele><time>2014-4-8T23:44:16Z</time></trkpt>
<trkpt lat="42.276860" lon="3.268675"><ele></ele><time>2014-4-8T23:44:19Z</time></trkpt>
<trkpt lat="42.276897" lon="3.268593"><ele></ele><time>2014-4-8T23:44:22Z</time></trkpt>
<trkpt lat="42.276943" lon="3.268515"><ele></ele><time>2014-4-8T23:44:25Z</time></trkpt>
<trkpt lat="42.277000" lon="3.268457"><ele></ele><time>2014-4-8T23:44:28Z</time></trkpt>
<trkpt lat="42.277047" lon="3.268373"><ele></ele><time>2014-4-8T23:44:31Z</time></trkpt>
<trkpt lat="42.277077" lon="3.268278"><ele></ele><time>2014-4-8T23:44:34Z</time></trkpt>
<trkpt lat="42.277112" lon="3.268180"><ele></ele><time>2014-4-8T23:44:37Z</time></trkpt>
<trkpt lat="42.277142" lon="3.268075"><ele></ele><time>2014-4-8T23:44:40Z</time></trkpt>
<trkpt lat="42.277165" lon="3.267965"><ele></ele><time>2014-4-8T23:44:43Z</time></trkpt>
<trkpt lat="42.277177" lon="3.267848"><ele></ele><time>2014-4-8T23:44:46Z</time></trkpt>
<trkpt lat="42.277187" lon="3.267737"><ele></ele><time>2014-4-8T23:44:49Z</time></trkpt>
<trkpt lat="42.277207" lon="3.267635"><ele></ele><time>2014-4-8T23:44:52Z</time></trkpt>
<trkpt lat="42.277213" lon="3.267533"><ele></ele><time>2014-4-8T23:44:55Z</time></trkpt>
<trkpt lat="42.277237" lon="3.267423"><ele></ele><time>2014-4-8T23:44:58Z</time></trkpt>
<trkpt lat="42.277275" lon="3.267302"><ele></ele><time>2014-4-8T23:45:1Z</time></trkpt>
<trkpt lat="42.277287" lon="3.267193"><ele></ele><time>2014-4-8T23:45:4Z</time></trkpt>
<trkpt lat="42.277287" lon="3.267085"><ele></ele><time>2014-4-8T23:45:7Z</time></trkpt>
<trkpt lat="42.277275" lon="3.266978"><ele></ele><time>2014-4-8T23:45:10Z</time></trkpt>
<trkpt lat="42.277218" lon="3.266890"><ele></ele><time>2014-4-8T23:45:13Z</time></trkpt>
<trkpt lat="42.277142" lon="3.266840"><ele></ele><time>2014-4-8T23:45:16Z</time></trkpt>
<trkpt lat="42.277053" lon="3.266827"><ele></ele><time>2014-4-8T23:45:19Z</time></trkpt>
<trkpt lat="42.276982" lon="3.266867"><ele></ele><time>2014-4-8T23:45:22Z</time></trkpt>
<trkpt lat="42.276940" lon="3.266968"><ele></ele><time>2014-4-8T23:45:25Z</time></trkpt>
<trkpt lat="42.276902" lon="3.267082"><ele></ele><time>2014-4-8T23:45:28Z</time></trkpt>
<trkpt lat="42.276860" lon="3.267188"><ele></ele><time>2014-4-8T23:45:31Z</time></trkpt>
<trkpt lat="42.276798" lon="3.267272"><ele></ele><time>2014-4-8T23:45:34Z</time></trkpt>
<trkpt lat="42.276730" lon="3.267352"><ele></ele><time>2014-4-8T23:45:37Z</time></trkpt>
<trkpt lat="42.276668" lon="3.267437"><ele></ele><time>2014-4-8T23:45:40Z</time></trkpt>
<trkpt lat="42.276603" lon="3.267522"><ele></ele><time>2014-4-8T23:45:43Z</time></trkpt>
<trkpt lat="42.276538" lon="3.267603"><ele></ele><time>2014-4-8T23:45:46Z</time></trkpt>
<trkpt lat="42.276458" lon="3.267635"><ele></ele><time>2014-4-8T23:45:49Z</time></trkpt>
<trkpt lat="42.276393" lon="3.267572"><ele></ele><time>2014-4-8T23:45:52Z</time></trkpt>
<trkpt lat="42.276390" lon="3.267460"><ele></ele><time>2014-4-8T23:45:55Z</time></trkpt>
<trkpt lat="42.276417" lon="3.267353"><ele></ele><time>2014-4-8T23:45:58Z</time></trkpt>
<trkpt lat="42.276437" lon="3.267248"><ele></ele><time>2014-4-8T23:46:1Z</time></trkpt>
<trkpt lat="42.276420" lon="3.267142"><ele></ele><time>2014-4-8T23:46:4Z</time></trkpt>
<trkpt lat="42.276402" lon="3.267032"><ele></ele><time>2014-4-8T23:46:7Z</time></trkpt>
<trkpt lat="42.276402" lon="3.266922"><ele></ele><time>2014-4-8T23:46:10Z</time></trkpt>
<trkpt lat="42.276393" lon="3.266815"><ele></ele><time>2014-4-8T23:46:13Z</time></trkpt>
<trkpt lat="42.276363" lon="3.266715"><ele></ele><time>2014-4-8T23:46:16Z</time></trkpt>
<trkpt lat="42.276322" lon="3.266623"><ele></ele><time>2014-4-8T23:46:19Z</time></trkpt>
<trkpt lat="42.276265" lon="3.266540"><ele></ele><time>2014-4-8T23:46:22Z</time></trkpt>
<trkpt lat="42.276210" lon="3.266455"><ele></ele><time>2014-4-8T23:46:25Z</time></trkpt>
<trkpt lat="42.276142" lon="3.266393"><ele></ele><time>2014-4-8T23:46:28Z</time></trkpt>
<trkpt lat="42.276062" lon="3.266392"><ele></ele><time>2014-4-8T23:46:31Z</time></trkpt>
<trkpt lat="42.276002" lon="3.266465"><ele></ele><time>2014-4-8T23:46:34Z</time></trkpt>
<trkpt lat="42.275997" lon="3.266570"><ele></ele><time>2014-4-8T23:46:37Z</time></trkpt>
<trkpt lat="42.276038" lon="3.266668"><ele></ele><time>2014-4-8T23:46:40Z</time></trkpt>
<trkpt lat="42.276055" lon="3.266778"><ele></ele><time>2014-4-8T23:46:43Z</time></trkpt>
<trkpt lat="42.276038" lon="3.266888"><ele></ele><time>2014-4-8T23:46:46Z</time></trkpt>
<trkpt lat="42.276008" lon="3.266993"><ele></ele><time>2014-4-8T23:46:49Z</time></trkpt>
<trkpt lat="42.275948" lon="3.267067"><ele></ele><time>2014-4-8T23:46:52Z</time></trkpt>
<trkpt lat="42.275872" lon="3.267105"><ele></ele><time>2014-4-8T23:46:55Z</time></trkpt>
<trkpt lat="42.275787" lon="3.267098"><ele></ele><time>2014-4-8T23:46:58Z</time></trkpt>
<trkpt lat="42.275703" lon="3.267090"><ele></ele><time>2014-4-8T23:47:1Z</time></trkpt>
<trkpt lat="42.275615" lon="3.267108"><ele></ele><time>2014-4-8T23:47:4Z</time></trkpt>
<trkpt lat="42.275547" lon="3.267172"><ele></ele><time>2014-4-8T23:47:7Z</time></trkpt>
<trkpt lat="42.275508" lon="3.267260"><ele></ele><time>2014-4-8T23:47:10Z</time></trkpt>
<trkpt lat="42.275448" lon="3.267338"><ele></ele><time>2014-4-8T23:47:13Z</time></trkpt>
<trkpt lat="42.275383" lon="3.267415"><ele></ele><time>2014-4-8T23:47:16Z</time></trkpt>
<trkpt lat="42.275325" lon="3.267493"><ele></ele><time>2014-4-8T23:47:19Z</time></trkpt>
<trkpt lat="42.275268" lon="3.267575"><ele></ele><time>2014-4-8T23:47:22Z</time></trkpt>
<trkpt lat="42.275208" lon="3.267647"><ele></ele><time>2014-4-8T23:47:25Z</time></trkpt>
<trkpt lat="42.275132" lon="3.267682"><ele></ele><time>2014-4-8T23:47:28Z</time></trkpt>
<trkpt lat="42.275055" lon="3.267662"><ele></ele><time>2014-4-8T23:47:31Z</time></trkpt>
<trkpt lat="42.275002" lon="3.267583"><ele></ele><time>2014-4-8T23:47:34Z</time></trkpt>
<trkpt lat="42.274963" lon="3.267487"><ele></ele><time>2014-4-8T23:47:37Z</time></trkpt>
<trkpt lat="42.274967" lon="3.267378"><ele></ele><time>2014-4-8T23:47:40Z</time></trkpt>
<trkpt lat="42.274998" lon="3.267268"><ele></ele><time>2014-4-8T23:47:43Z</time></trkpt>
<trkpt lat="42.275043" lon="3.267167"><ele></ele><time>2014-4-8T23:47:46Z</time></trkpt>
<trkpt lat="42.275078" lon="3.267070"><ele></ele><time>2014-4-8T23:47:49Z</time></trkpt>
<trkpt lat="42.275100" lon="3.266967"><ele></ele><time>2014-4-8T23:47:52Z</time></trkpt>
<trkpt lat="42.275120" lon="3.266867"><ele></ele><time>2014-4-8T23:47:55Z</time></trkpt>
<trkpt lat="42.275150" lon="3.266768"><ele></ele><time>2014-4-8T23:47:58Z</time></trkpt>
<trkpt lat="42.275150" lon="3.266662"><ele></ele><time>2014-4-8T23:48:1Z</time></trkpt>
<trkpt lat="42.275108" lon="3.266567"><ele></ele><time>2014-4-8T23:48:4Z</time></trkpt>
<trkpt lat="42.275040" lon="3.266502"><ele></ele><time>2014-4-8T23:48:7Z</time></trkpt>
<trkpt lat="42.274963" lon="3.266468"><ele></ele><time>2014-4-8T23:48:10Z</time></trkpt>
<trkpt lat="42.274883" lon="3.266447"><ele></ele><time>2014-4-8T23:48:13Z</time></trkpt>
<trkpt lat="42.274807" lon="3.266398"><ele></ele><time>2014-4-8T23:48:16Z</time></trkpt>
<trkpt lat="42.274735" lon="3.266347"><ele></ele><time>2014-4-8T23:48:19Z</time></trkpt>
<trkpt lat="42.274662" lon="3.266288"><ele></ele><time>2014-4-8T23:48:22Z</time></trkpt>
<trkpt lat="42.274578" lon="3.266245"><ele></ele><time>2014-4-8T23:48:25Z</time></trkpt>
<trkpt lat="42.274495" lon="3.266233"><ele></ele><time>2014-4-8T23:48:28Z</time></trkpt>
<trkpt lat="42.274418" lon="3.266193"><ele></ele><time>2014-4-8T23:48:31Z</time></trkpt>
<trkpt lat="42.274333" lon="3.266155"><ele></ele><time>2014-4-8T23:48:34Z</time></trkpt>
<trkpt lat="42.274273" lon="3.266078"><ele></ele><time>2014-4-8T23:48:37Z</time></trkpt>
<trkpt lat="42.274215" lon="3.265975"><ele></ele><time>2014-4-8T23:48:40Z</time></trkpt>
<trkpt lat="42.274170" lon="3.265860"><ele></ele><time>2014-4-8T23:48:43Z</time></trkpt>
<trkpt lat="42.274087" lon="3.265837"><ele></ele><time>2014-4-8T23:48:46Z</time></trkpt>
<trkpt lat="42.274022" lon="3.265937"><ele></ele><time>2014-4-8T23:48:49Z</time></trkpt>
<trkpt lat="42.273948" lon="3.266037"><ele></ele><time>2014-4-8T23:48:52Z</time></trkpt>
<trkpt lat="42.273850" lon="3.266130"><ele></ele><time>2014-4-8T23:48:55Z</time></trkpt>
<trkpt lat="42.273727" lon="3.266187"><ele></ele><time>2014-4-8T23:48:58Z</time></trkpt>
<trkpt lat="42.273567" lon="3.266178"><ele></ele><time>2014-4-8T23:49:1Z</time></trkpt>
<trkpt lat="42.273418" lon="3.266082"><ele></ele><time>2014-4-8T23:49:4Z</time></trkpt>
<trkpt lat="42.273297" lon="3.265945"><ele></ele><time>2014-4-8T23:49:7Z</time></trkpt>
<trkpt lat="42.273190" lon="3.265812"><ele></ele><time>2014-4-8T23:49:10Z</time></trkpt>
<trkpt lat="42.273063" lon="3.265753"><ele></ele><time>2014-4-8T23:49:13Z</time></trkpt>
<trkpt lat="42.272950" lon="3.265627"><ele></ele><time>2014-4-8T23:49:16Z</time></trkpt>
<trkpt lat="42.272873" lon="3.265475"><ele></ele><time>2014-4-8T23:49:19Z</time></trkpt>
<trkpt lat="42.272773" lon="3.265328"><ele></ele><time>2014-4-8T23:49:22Z</time></trkpt>
<trkpt lat="42.272640" lon="3.265407"><ele></ele><time>2014-4-8T23:49:25Z</time></trkpt>
<trkpt lat="42.272643" lon="3.265618"><ele></ele><time>2014-4-8T23:49:28Z</time></trkpt>
<trkpt lat="42.272628" lon="3.265785"><ele></ele><time>2014-4-8T23:49:31Z</time></trkpt>
<trkpt lat="42.272583" lon="3.265922"><ele></ele><time>2014-4-8T23:49:34Z</time></trkpt>
<trkpt lat="42.272525" lon="3.266050"><ele></ele><time>2014-4-8T23:49:37Z</time></trkpt>
<trkpt lat="42.272495" lon="3.266197"><ele></ele><time>2014-4-8T23:49:40Z</time></trkpt>
<trkpt lat="42.272477" lon="3.266358"><ele></ele><time>2014-4-8T23:49:43Z</time></trkpt>
<trkpt lat="42.272465" lon="3.266523"><ele></ele><time>2014-4-8T23:49:46Z</time></trkpt>
<trkpt lat="42.272438" lon="3.266672"><ele></ele><time>2014-4-8T23:49:49Z</time></trkpt>
<trkpt lat="42.272385" lon="3.266797"><ele></ele><time>2014-4-8T23:49:52Z</time></trkpt>
<trkpt lat="42.272312" lon="3.266898"><ele></ele><time>2014-4-8T23:49:55Z</time></trkpt>
<trkpt lat="42.272217" lon="3.266965"><ele></ele><time>2014-4-8T23:49:58Z</time></trkpt>
<trkpt lat="42.272110" lon="3.267022"><ele></ele><time>2014-4-8T23:50:1Z</time></trkpt>
<trkpt lat="42.272007" lon="3.267083"><ele></ele><time>2014-4-8T23:50:4Z</time></trkpt>
<trkpt lat="42.271903" lon="3.267177"><ele></ele><time>2014-4-8T23:50:7Z</time></trkpt>
<trkpt lat="42.271828" lon="3.267307"><ele></ele><time>2014-4-8T23:50:10Z</time></trkpt>
<trkpt lat="42.271752" lon="3.267435"><ele></ele><time>2014-4-8T23:50:13Z</time></trkpt>
<trkpt lat="42.271672" lon="3.267557"><ele></ele><time>2014-4-8T23:50:16Z</time></trkpt>
<trkpt lat="42.271598" lon="3.267678"><ele></ele><time>2014-4-8T23:50:19Z</time></trkpt>
<trkpt lat="42.271503" lon="3.267753"><ele></ele><time>2014-4-8T23:50:22Z</time></trkpt>
<trkpt lat="42.271405" lon="3.267830"><ele></ele><time>2014-4-8T23:50:25Z</time></trkpt>
<trkpt lat="42.271305" lon="3.267902"><ele></ele><time>2014-4-8T23:50:28Z</time></trkpt>
<trkpt lat="42.271210" lon="3.267963"><ele></ele><time>2014-4-8T23:50:31Z</time></trkpt>
<trkpt lat="42.271110" lon="3.268022"><ele></ele><time>2014-4-8T23:50:34Z</time></trkpt>
<trkpt lat="42.270992" lon="3.268055"><ele></ele><time>2014-4-8T23:50:37Z</time></trkpt>
<trkpt lat="42.270863" lon="3.268095"><ele></ele><time>2014-4-8T23:50:40Z</time></trkpt>
<trkpt lat="42.270737" lon="3.268132"><ele></ele><time>2014-4-8T23:50:43Z</time></trkpt>
<trkpt lat="42.270592" lon="3.268173"><ele></ele><time>2014-4-8T23:50:46Z</time></trkpt>
<trkpt lat="42.270458" lon="3.268228"><ele></ele><time>2014-4-8T23:50:49Z</time></trkpt>
<trkpt lat="42.270332" lon="3.268293"><ele></ele><time>2014-4-8T23:50:52Z</time></trkpt>
<trkpt lat="42.270192" lon="3.268353"><ele></ele><time>2014-4-8T23:50:55Z</time></trkpt>
<trkpt lat="42.270042" lon="3.268368"><ele></ele><time>2014-4-8T23:50:58Z</time></trkpt>
<trkpt lat="42.269943" lon="3.268242"><ele></ele><time>2014-4-8T23:51:1Z</time></trkpt>
<trkpt lat="42.270005" lon="3.268040"><ele></ele><time>2014-4-8T23:51:4Z</time></trkpt>
<trkpt lat="42.270065" lon="3.267857"><ele></ele><time>2014-4-8T23:51:7Z</time></trkpt>
<trkpt lat="42.270035" lon="3.267695"><ele></ele><time>2014-4-8T23:51:10Z</time></trkpt>
<trkpt lat="42.269940" lon="3.267628"><ele></ele><time>2014-4-8T23:51:13Z</time></trkpt>
<trkpt lat="42.269843" lon="3.267598"><ele></ele><time>2014-4-8T23:51:16Z</time></trkpt>
<trkpt lat="42.269748" lon="3.267595"><ele></ele><time>2014-4-8T23:51:19Z</time></trkpt>
<trkpt lat="42.269650" lon="3.267593"><ele></ele><time>2014-4-8T23:51:22Z</time></trkpt>
<trkpt lat="42.269550" lon="3.267602"><ele></ele><time>2014-4-8T23:51:25Z</time></trkpt>
<trkpt lat="42.269447" lon="3.267625"><ele></ele><time>2014-4-8T23:51:28Z</time></trkpt>
<trkpt lat="42.269348" lon="3.267647"><ele></ele><time>2014-4-8T23:51:31Z</time></trkpt>
<trkpt lat="42.269253" lon="3.267667"><ele></ele><time>2014-4-8T23:51:34Z</time></trkpt>
<trkpt lat="42.269157" lon="3.267702"><ele></ele><time>2014-4-8T23:51:37Z</time></trkpt>
<trkpt lat="42.269077" lon="3.267728"><ele></ele><time>2014-4-8T23:51:40Z</time></trkpt>
<trkpt lat="42.268997" lon="3.267763"><ele></ele><time>2014-4-8T23:51:43Z</time></trkpt>
<trkpt lat="42.268925" lon="3.267803"><ele></ele><time>2014-4-8T23:51:46Z</time></trkpt>
<trkpt lat="42.268845" lon="3.267837"><ele></ele><time>2014-4-8T23:51:49Z</time></trkpt>
<trkpt lat="42.268765" lon="3.267863"><ele></ele><time>2014-4-8T23:51:52Z</time></trkpt>
<trkpt lat="42.268680" lon="3.267865"><ele></ele><time>2014-4-8T23:51:55Z</time></trkpt>
<trkpt lat="42.268585" lon="3.267817"><ele></ele><time>2014-4-8T23:51:58Z</time></trkpt>
<trkpt lat="42.268505" lon="3.267802"><ele></ele><time>2014-4-8T23:52:1Z</time></trkpt>
<trkpt lat="42.268422" lon="3.267780"><ele></ele><time>2014-4-8T23:52:4Z</time></trkpt>
<trkpt lat="42.268345" lon="3.267735"><ele></ele><time>2014-4-8T23:52:7Z</time></trkpt>
<trkpt lat="42.268298" lon="3.267650"><ele></ele><time>2014-4-8T23:52:10Z</time></trkpt>
<trkpt lat="42.268303" lon="3.267535"><ele></ele><time>2014-4-8T23:52:13Z</time></trkpt>
<trkpt lat="42.268345" lon="3.267435"><ele></ele><time>2014-4-8T23:52:16Z</time></trkpt>
<trkpt lat="42.268390" lon="3.267340"><ele></ele><time>2014-4-8T23:52:19Z</time></trkpt>
<trkpt lat="42.268425" lon="3.267242"><ele></ele><time>2014-4-8T23:52:22Z</time></trkpt>
<trkpt lat="42.268455" lon="3.267140"><ele></ele><time>2014-4-8T23:52:25Z</time></trkpt>
<trkpt lat="42.268497" lon="3.267038"><ele></ele><time>2014-4-8T23:52:28Z</time></trkpt>
<trkpt lat="42.268528" lon="3.266932"><ele></ele><time>2014-4-8T23:52:31Z</time></trkpt>
<trkpt lat="42.268558" lon="3.266827"><ele></ele><time>2014-4-8T23:52:34Z</time></trkpt>
<trkpt lat="42.268593" lon="3.266722"><ele></ele><time>2014-4-8T23:52:37Z</time></trkpt>
<trkpt lat="42.268627" lon="3.266613"><ele></ele><time>2014-4-8T23:52:40Z</time></trkpt>
<trkpt lat="42.268662" lon="3.266507"><ele></ele><time>2014-4-8T23:52:43Z</time></trkpt>
<trkpt lat="42.268700" lon="3.266392"><ele></ele><time>2014-4-8T23:52:46Z</time></trkpt>
<trkpt lat="42.268750" lon="3.266277"><ele></ele><time>2014-4-8T23:52:49Z</time></trkpt>
<trkpt lat="42.268813" lon="3.266155"><ele></ele><time>2014-4-8T23:52:52Z</time></trkpt>
<trkpt lat="42.268845" lon="3.265980"><ele></ele><time>2014-4-8T23:52:55Z</time></trkpt>
<trkpt lat="42.268757" lon="3.265815"><ele></ele><time>2014-4-8T23:52:58Z</time></trkpt>
<trkpt lat="42.268600" lon="3.265790"><ele></ele><time>2014-4-8T23:53:1Z</time></trkpt>
<trkpt lat="42.268452" lon="3.265842"><ele></ele><time>2014-4-8T23:53:4Z</time></trkpt>
<trkpt lat="42.268310" lon="3.265857"><ele></ele><time>2014-4-8T23:53:7Z</time></trkpt>
<trkpt lat="42.268188" lon="3.265770"><ele></ele><time>2014-4-8T23:53:10Z</time></trkpt>
<trkpt lat="42.268112" lon="3.265607"><ele></ele><time>2014-4-8T23:53:13Z</time></trkpt>
<trkpt lat="42.268063" lon="3.265393"><ele></ele><time>2014-4-8T23:53:16Z</time></trkpt>
<trkpt lat="42.268097" lon="3.265133"><ele></ele><time>2014-4-8T23:53:19Z</time></trkpt>
<trkpt lat="42.268135" lon="3.264840"><ele></ele><time>2014-4-8T23:53:22Z</time></trkpt>
<trkpt lat="42.268112" lon="3.264533"><ele></ele><time>2014-4-8T23:53:25Z</time></trkpt>
<trkpt lat="42.268052" lon="3.264258"><ele></ele><time>2014-4-8T23:53:28Z</time></trkpt>
<trkpt lat="42.267987" lon="3.264000"><ele></ele><time>2014-4-8T23:53:31Z</time></trkpt>
<trkpt lat="42.267948" lon="3.263707"><ele></ele><time>2014-4-8T23:53:34Z</time></trkpt>
<trkpt lat="42.267902" lon="3.263430"><ele></ele><time>2014-4-8T23:53:37Z</time></trkpt>
<trkpt lat="42.267708" lon="3.263410"><ele></ele><time>2014-4-8T23:53:40Z</time></trkpt>
<trkpt lat="42.267487" lon="3.263522"><ele></ele><time>2014-4-8T23:53:43Z</time></trkpt>
<trkpt lat="42.267247" lon="3.263603"><ele></ele><time>2014-4-8T23:53:46Z</time></trkpt>
<trkpt lat="42.266987" lon="3.263593"><ele></ele><time>2014-4-8T23:53:49Z</time></trkpt>
<trkpt lat="42.266738" lon="3.263770"><ele></ele><time>2014-4-8T23:53:52Z</time></trkpt>
<trkpt lat="42.266567" lon="3.264000"><ele></ele><time>2014-4-8T23:53:55Z</time></trkpt>
<trkpt lat="42.266495" lon="3.264042"><ele></ele><time>2014-4-8T23:53:58Z</time></trkpt>
<trkpt lat="42.266492" lon="3.264030"><ele></ele><time>2014-4-8T23:54:1Z</time></trkpt>
<trkpt lat="42.266495" lon="3.264038"><ele></ele><time>2014-4-8T23:54:4Z</time></trkpt>
<trkpt lat="42.266495" lon="3.264038"><ele></ele><time>2014-4-8T23:54:7Z</time></trkpt>
<trkpt lat="42.266498" lon="3.264022"><ele></ele><time>2014-4-8T23:54:10Z</time></trkpt>
<trkpt lat="42.266495" lon="3.264022"><ele></ele><time>2014-4-8T23:54:13Z</time></trkpt>
<trkpt lat="42.266498" lon="3.264020"><ele></ele><time>2014-4-8T23:54:16Z</time></trkpt>
<trkpt lat="42.266495" lon="3.264020"><ele></ele><time>2014-4-8T23:54:19Z</time></trkpt>
<trkpt lat="42.266495" lon="3.264022"><ele></ele><time>2014-4-8T23:54:22Z</time></trkpt>
<trkpt lat="42.266495" lon="3.264023"><ele></ele><time>2014-4-8T23:54:25Z</time></trkpt>
<trkpt lat="42.266495" lon="3.264025"><ele></ele><time>2014-4-8T23:54:28Z</time></trkpt>
<trkpt lat="42.266495" lon="3.264023"><ele></ele><time>2014-4-8T23:54:31Z</time></trkpt>
<trkpt lat="42.266495" lon="3.264023"><ele></ele><time>2014-4-8T23:54:34Z</time></trkpt>
<trkpt lat="42.266498" lon="3.264025"><ele></ele><time>2014-4-8T23:54:37Z</time></trkpt>
<trkpt lat="42.266495" lon="3.264027"><ele></ele><time>2014-4-8T23:54:40Z</time></trkpt>
<trkpt lat="42.266502" lon="3.264023"><ele></ele><time>2014-4-8T23:54:43Z</time></trkpt>
<trkpt lat="42.266507" lon="3.264040"><ele></ele><time>2014-4-8T23:54:46Z</time></trkpt>
<trkpt lat="42.266502" lon="3.264042"><ele></ele><time>2014-4-8T23:54:49Z</time></trkpt>
<trkpt lat="42.266498" lon="3.264043"><ele></ele><time>2014-4-8T23:54:52Z</time></trkpt>
<trkpt lat="42.266498" lon="3.264043"><ele></ele><time>2014-4-8T23:54:55Z</time></trkpt>
<trkpt lat="42.266502" lon="3.264035"><ele></ele><time>2014-4-8T23:54:58Z</time></trkpt>
<trkpt lat="42.266507" lon="3.264032"><ele></ele><time>2014-4-8T23:55:1Z</time></trkpt>
<trkpt lat="42.266510" lon="3.264025"><ele></ele><time>2014-4-8T23:55:4Z</time></trkpt>
<trkpt lat="42.266502" lon="3.264033"><ele></ele><time>2014-4-8T23:55:7Z</time></trkpt>
<trkpt lat="42.266525" lon="3.264088"><ele></ele><time>2014-4-8T23:55:10Z</time></trkpt>
<trkpt lat="42.266483" lon="3.264153"><ele></ele><time>2014-4-8T23:55:13Z</time></trkpt>
<trkpt lat="42.266392" lon="3.264313"><ele></ele><time>2014-4-8T23:55:16Z</time></trkpt>
<trkpt lat="42.266255" lon="3.264515"><ele></ele><time>2014-4-8T23:55:19Z</time></trkpt>
<trkpt lat="42.266095" lon="3.264722"><ele></ele><time>2014-4-8T23:55:22Z</time></trkpt>
<trkpt lat="42.265912" lon="3.264918"><ele></ele><time>2014-4-8T23:55:25Z</time></trkpt>
<trkpt lat="42.265717" lon="3.265117"><ele></ele><time>2014-4-8T23:55:28Z</time></trkpt>
<trkpt lat="42.265515" lon="3.265320"><ele></ele><time>2014-4-8T23:55:31Z</time></trkpt>
<trkpt lat="42.265305" lon="3.265503"><ele></ele><time>2014-4-8T23:55:34Z</time></trkpt>
<trkpt lat="42.265072" lon="3.265675"><ele></ele><time>2014-4-8T23:55:37Z</time></trkpt>
<trkpt lat="42.264817" lon="3.265750"><ele></ele><time>2014-4-8T23:55:40Z</time></trkpt>
<trkpt lat="42.264622" lon="3.265647"><ele></ele><time>2014-4-8T23:55:43Z</time></trkpt>
<trkpt lat="42.264550" lon="3.265457"><ele></ele><time>2014-4-8T23:55:46Z</time></trkpt>
<trkpt lat="42.264507" lon="3.265175"><ele></ele><time>2014-4-8T23:55:49Z</time></trkpt>
<trkpt lat="42.264423" lon="3.264865"><ele></ele><time>2014-4-8T23:55:52Z</time></trkpt>
<trkpt lat="42.264313" lon="3.264582"><ele></ele><time>2014-4-8T23:55:55Z</time></trkpt>
<trkpt lat="42.264233" lon="3.264293"><ele></ele><time>2014-4-8T23:55:58Z</time></trkpt>
<trkpt lat="42.264118" lon="3.264028"><ele></ele><time>2014-4-8T23:56:1Z</time></trkpt>
<trkpt lat="42.263878" lon="3.263937"><ele></ele><time>2014-4-8T23:56:4Z</time></trkpt>
<trkpt lat="42.263633" lon="3.263897"><ele></ele><time>2014-4-8T23:56:7Z</time></trkpt>
<trkpt lat="42.263530" lon="3.263630"><ele></ele><time>2014-4-8T23:56:10Z</time></trkpt>
<trkpt lat="42.263515" lon="3.263365"><ele></ele><time>2014-4-8T23:56:13Z</time></trkpt>
<trkpt lat="42.263515" lon="3.263132"><ele></ele><time>2014-4-8T23:56:16Z</time></trkpt>
<trkpt lat="42.263527" lon="3.262908"><ele></ele><time>2014-4-8T23:56:19Z</time></trkpt>
<trkpt lat="42.263565" lon="3.262698"><ele></ele><time>2014-4-8T23:56:22Z</time></trkpt>
<trkpt lat="42.263568" lon="3.262452"><ele></ele><time>2014-4-8T23:56:25Z</time></trkpt>
<trkpt lat="42.263595" lon="3.262217"><ele></ele><time>2014-4-8T23:56:28Z</time></trkpt>
<trkpt lat="42.263627" lon="3.261980"><ele></ele><time>2014-4-8T23:56:31Z</time></trkpt>
<trkpt lat="42.263648" lon="3.261748"><ele></ele><time>2014-4-8T23:56:34Z</time></trkpt>
<trkpt lat="42.263657" lon="3.261530"><ele></ele><time>2014-4-8T23:56:37Z</time></trkpt>
<trkpt lat="42.263645" lon="3.261310"><ele></ele><time>2014-4-8T23:56:40Z</time></trkpt>
<trkpt lat="42.263645" lon="3.261095"><ele></ele><time>2014-4-8T23:56:43Z</time></trkpt>
<trkpt lat="42.263672" lon="3.260877"><ele></ele><time>2014-4-8T23:56:46Z</time></trkpt>
<trkpt lat="42.263728" lon="3.260652"><ele></ele><time>2014-4-8T23:56:49Z</time></trkpt>
<trkpt lat="42.263820" lon="3.260442"><ele></ele><time>2014-4-8T23:56:52Z</time></trkpt>
<trkpt lat="42.263970" lon="3.260253"><ele></ele><time>2014-4-8T23:56:55Z</time></trkpt>
<trkpt lat="42.264107" lon="3.260028"><ele></ele><time>2014-4-8T23:56:58Z</time></trkpt>
<trkpt lat="42.264213" lon="3.259923"><ele></ele><time>2014-4-8T23:57:1Z</time></trkpt>
<trkpt lat="42.264210" lon="3.259925"><ele></ele><time>2014-4-8T23:57:4Z</time></trkpt>
<trkpt lat="42.264222" lon="3.259922"><ele></ele><time>2014-4-8T23:57:7Z</time></trkpt>
<trkpt lat="42.264233" lon="3.259923"><ele></ele><time>2014-4-8T23:57:10Z</time></trkpt>
<trkpt lat="42.264255" lon="3.259887"><ele></ele><time>2014-4-8T23:57:13Z</time></trkpt>
<trkpt lat="42.264332" lon="3.259790"><ele></ele><time>2014-4-8T23:57:16Z</time></trkpt>
<trkpt lat="42.264507" lon="3.259673"><ele></ele><time>2014-4-8T23:57:19Z</time></trkpt>
<trkpt lat="42.264695" lon="3.259595"><ele></ele><time>2014-4-8T23:57:22Z</time></trkpt>
<trkpt lat="42.264862" lon="3.259460"><ele></ele><time>2014-4-8T23:57:25Z</time></trkpt>
<trkpt lat="42.264983" lon="3.259255"><ele></ele><time>2014-4-8T23:57:28Z</time></trkpt>
<trkpt lat="42.265083" lon="3.259042"><ele></ele><time>2014-4-8T23:57:31Z</time></trkpt>
<trkpt lat="42.265182" lon="3.258795"><ele></ele><time>2014-4-8T23:57:34Z</time></trkpt>
<trkpt lat="42.265300" lon="3.258540"><ele></ele><time>2014-4-8T23:57:37Z</time></trkpt>
<trkpt lat="42.265343" lon="3.258228"><ele></ele><time>2014-4-8T23:57:40Z</time></trkpt>
<trkpt lat="42.265335" lon="3.257905"><ele></ele><time>2014-4-8T23:57:43Z</time></trkpt>
<trkpt lat="42.265343" lon="3.257588"><ele></ele><time>2014-4-8T23:57:46Z</time></trkpt>
<trkpt lat="42.265365" lon="3.257265"><ele></ele><time>2014-4-8T23:57:49Z</time></trkpt>
<trkpt lat="42.265400" lon="3.256957"><ele></ele><time>2014-4-8T23:57:52Z</time></trkpt>
<trkpt lat="42.265472" lon="3.256648"><ele></ele><time>2014-4-8T23:57:55Z</time></trkpt>
<trkpt lat="42.265568" lon="3.256338"><ele></ele><time>2014-4-8T23:57:58Z</time></trkpt>
<trkpt lat="42.265648" lon="3.256020"><ele></ele><time>2014-4-8T23:58:1Z</time></trkpt>
<trkpt lat="42.265735" lon="3.255713"><ele></ele><time>2014-4-8T23:58:4Z</time></trkpt>
<trkpt lat="42.265868" lon="3.255442"><ele></ele><time>2014-4-8T23:58:7Z</time></trkpt>
<trkpt lat="42.266113" lon="3.255318"><ele></ele><time>2014-4-8T23:58:10Z</time></trkpt>
<trkpt lat="42.266388" lon="3.255205"><ele></ele><time>2014-4-8T23:58:13Z</time></trkpt>
<trkpt lat="42.266670" lon="3.255115"><ele></ele><time>2014-4-8T23:58:16Z</time></trkpt>
<trkpt lat="42.266957" lon="3.255108"><ele></ele><time>2014-4-8T23:58:19Z</time></trkpt>
<trkpt lat="42.267155" lon="3.254907"><ele></ele><time>2014-4-8T23:58:22Z</time></trkpt>
<trkpt lat="42.267143" lon="3.254547"><ele></ele><time>2014-4-8T23:58:25Z</time></trkpt>
<trkpt lat="42.267268" lon="3.254227"><ele></ele><time>2014-4-8T23:58:28Z</time></trkpt>
<trkpt lat="42.267495" lon="3.254008"><ele></ele><time>2014-4-8T23:58:31Z</time></trkpt>
<trkpt lat="42.267777" lon="3.253913"><ele></ele><time>2014-4-8T23:58:34Z</time></trkpt>
<trkpt lat="42.268020" lon="3.253850"><ele></ele><time>2014-4-8T23:58:37Z</time></trkpt>
<trkpt lat="42.268173" lon="3.253830"><ele></ele><time>2014-4-8T23:58:40Z</time></trkpt>
<trkpt lat="42.268208" lon="3.253625"><ele></ele><time>2014-4-8T23:58:43Z</time></trkpt>
<trkpt lat="42.268047" lon="3.253365"><ele></ele><time>2014-4-8T23:58:46Z</time></trkpt>
<trkpt lat="42.267868" lon="3.253082"><ele></ele><time>2014-4-8T23:58:49Z</time></trkpt>
<trkpt lat="42.267807" lon="3.252710"><ele></ele><time>2014-4-8T23:58:52Z</time></trkpt>
<trkpt lat="42.267918" lon="3.252298"><ele></ele><time>2014-4-8T23:58:55Z</time></trkpt>
<trkpt lat="42.267975" lon="3.251853"><ele></ele><time>2014-4-8T23:58:58Z</time></trkpt>
<trkpt lat="42.267857" lon="3.251410"><ele></ele><time>2014-4-8T23:59:1Z</time></trkpt>
<trkpt lat="42.267623" lon="3.251058"><ele></ele><time>2014-4-8T23:59:4Z</time></trkpt>
<trkpt lat="42.267392" lon="3.250685"><ele></ele><time>2014-4-8T23:59:7Z</time></trkpt>
<trkpt lat="42.267188" lon="3.250335"><ele></ele><time>2014-4-8T23:59:10Z</time></trkpt>
<trkpt lat="42.267238" lon="3.249902"><ele></ele><time>2014-4-8T23:59:13Z</time></trkpt>
<trkpt lat="42.267413" lon="3.249478"><ele></ele><time>2014-4-8T23:59:16Z</time></trkpt>
<trkpt lat="42.267593" lon="3.249138"><ele></ele><time>2014-4-8T23:59:19Z</time></trkpt>
<trkpt lat="42.267430" lon="3.248985"><ele></ele><time>2014-4-8T23:59:22Z</time></trkpt>
<trkpt lat="42.267147" lon="3.249062"><ele></ele><time>2014-4-8T23:59:25Z</time></trkpt>
<trkpt lat="42.266850" lon="3.249173"><ele></ele><time>2014-4-8T23:59:28Z</time></trkpt>
<trkpt lat="42.266555" lon="3.249187"><ele></ele><time>2014-4-8T23:59:31Z</time></trkpt>
<trkpt lat="42.266208" lon="3.249218"><ele></ele><time>2014-4-8T23:59:34Z</time></trkpt>
<trkpt lat="42.265835" lon="3.249320"><ele></ele><time>2014-4-8T23:59:37Z</time></trkpt>
<trkpt lat="42.265477" lon="3.249460"><ele></ele><time>2014-4-8T23:59:40Z</time></trkpt>
<trkpt lat="42.265148" lon="3.249440"><ele></ele><time>2014-4-8T23:59:43Z</time></trkpt>
<trkpt lat="42.264882" lon="3.249172"><ele></ele><time>2014-4-8T23:59:46Z</time></trkpt>
<trkpt lat="42.264622" lon="3.248825"><ele></ele><time>2014-4-8T23:59:49Z</time></trkpt>
<trkpt lat="42.264332" lon="3.248508"><ele></ele><time>2014-4-8T23:59:52Z</time></trkpt>
<trkpt lat="42.264122" lon="3.248230"><ele></ele><time>2014-4-8T23:59:55Z</time></trkpt>
<trkpt lat="42.264148" lon="3.247785"><ele></ele><time>2014-4-8T23:59:58Z</time></trkpt>
<trkpt lat="42.264030" lon="3.247438"><ele></ele><time>2014-4-9T0:0:1Z</time></trkpt>
<trkpt lat="42.263710" lon="3.247388"><ele></ele><time>2014-4-9T0:0:4Z</time></trkpt>
<trkpt lat="42.263375" lon="3.247243"><ele></ele><time>2014-4-9T0:0:7Z</time></trkpt>
<trkpt lat="42.263068" lon="3.247012"><ele></ele><time>2014-4-9T0:0:10Z</time></trkpt>
<trkpt lat="42.262908" lon="3.246675"><ele></ele><time>2014-4-9T0:0:13Z</time></trkpt>
<trkpt lat="42.262962" lon="3.246218"><ele></ele><time>2014-4-9T0:0:16Z</time></trkpt>
<trkpt lat="42.262822" lon="3.245770"><ele></ele><time>2014-4-9T0:0:19Z</time></trkpt>
<trkpt lat="42.262478" lon="3.245535"><ele></ele><time>2014-4-9T0:0:22Z</time></trkpt>
<trkpt lat="42.262200" lon="3.245352"><ele></ele><time>2014-4-9T0:0:25Z</time></trkpt>
<trkpt lat="42.262020" lon="3.244965"><ele></ele><time>2014-4-9T0:0:28Z</time></trkpt>
<trkpt lat="42.262115" lon="3.244540"><ele></ele><time>2014-4-9T0:0:31Z</time></trkpt>
<trkpt lat="42.262355" lon="3.244200"><ele></ele><time>2014-4-9T0:0:34Z</time></trkpt>
<trkpt lat="42.262612" lon="3.243933"><ele></ele><time>2014-4-9T0:0:37Z</time></trkpt>
<trkpt lat="42.262630" lon="3.243712"><ele></ele><time>2014-4-9T0:0:40Z</time></trkpt>
<trkpt lat="42.262375" lon="3.243817"><ele></ele><time>2014-4-9T0:0:43Z</time></trkpt>
<trkpt lat="42.262112" lon="3.244035"><ele></ele><time>2014-4-9T0:0:46Z</time></trkpt>
<trkpt lat="42.261798" lon="3.244175"><ele></ele><time>2014-4-9T0:0:49Z</time></trkpt>
<trkpt lat="42.261612" lon="3.244543"><ele></ele><time>2014-4-9T0:0:52Z</time></trkpt>
<trkpt lat="42.261455" lon="3.244952"><ele></ele><time>2014-4-9T0:0:55Z</time></trkpt>
<trkpt lat="42.261298" lon="3.245373"><ele></ele><time>2014-4-9T0:0:58Z</time></trkpt>
<trkpt lat="42.261227" lon="3.245775"><ele></ele><time>2014-4-9T0:1:1Z</time></trkpt>
<trkpt lat="42.261413" lon="3.246115"><ele></ele><time>2014-4-9T0:1:4Z</time></trkpt>
<trkpt lat="42.261677" lon="3.246390"><ele></ele><time>2014-4-9T0:1:7Z</time></trkpt>
<trkpt lat="42.261653" lon="3.246807"><ele></ele><time>2014-4-9T0:1:10Z</time></trkpt>
<trkpt lat="42.261665" lon="3.247295"><ele></ele><time>2014-4-9T0:1:13Z</time></trkpt>
<trkpt lat="42.261715" lon="3.247788"><ele></ele><time>2014-4-9T0:1:16Z</time></trkpt>
<trkpt lat="42.261887" lon="3.248207"><ele></ele><time>2014-4-9T0:1:19Z</time></trkpt>
<trkpt lat="42.261840" lon="3.248550"><ele></ele><time>2014-4-9T0:1:22Z</time></trkpt>
<trkpt lat="42.261555" lon="3.248615"><ele></ele><time>2014-4-9T0:1:25Z</time></trkpt>
<trkpt lat="42.261238" lon="3.248712"><ele></ele><time>2014-4-9T0:1:28Z</time></trkpt>
<trkpt lat="42.260933" lon="3.248835"><ele></ele><time>2014-4-9T0:1:31Z</time></trkpt>
<trkpt lat="42.260635" lon="3.249073"><ele></ele><time>2014-4-9T0:1:34Z</time></trkpt>
<trkpt lat="42.260307" lon="3.249197"><ele></ele><time>2014-4-9T0:1:37Z</time></trkpt>
<trkpt lat="42.260120" lon="3.249367"><ele></ele><time>2014-4-9T0:1:40Z</time></trkpt>
<trkpt lat="42.260158" lon="3.249137"><ele></ele><time>2014-4-9T0:1:43Z</time></trkpt>
<trkpt lat="42.260418" lon="3.248933"><ele></ele><time>2014-4-9T0:1:46Z</time></trkpt>
<trkpt lat="42.260727" lon="3.248675"><ele></ele><time>2014-4-9T0:1:49Z</time></trkpt>
<trkpt lat="42.261025" lon="3.248405"><ele></ele><time>2014-4-9T0:1:52Z</time></trkpt>
<trkpt lat="42.261242" lon="3.248128"><ele></ele><time>2014-4-9T0:1:55Z</time></trkpt>
<trkpt lat="42.261123" lon="3.247757"><ele></ele><time>2014-4-9T0:1:58Z</time></trkpt>
<trkpt lat="42.260955" lon="3.247333"><ele></ele><time>2014-4-9T0:2:1Z</time></trkpt>
<trkpt lat="42.260807" lon="3.246943"><ele></ele><time>2014-4-9T0:2:4Z</time></trkpt>
<trkpt lat="42.260502" lon="3.246782"><ele></ele><time>2014-4-9T0:2:7Z</time></trkpt>
<trkpt lat="42.260312" lon="3.246677"><ele></ele><time>2014-4-9T0:2:10Z</time></trkpt>
<trkpt lat="42.260297" lon="3.246670"><ele></ele><time>2014-4-9T0:2:13Z</time></trkpt>
<trkpt lat="42.260292" lon="3.246675"><ele></ele><time>2014-4-9T0:2:16Z</time></trkpt>
<trkpt lat="42.260292" lon="3.246680"><ele></ele><time>2014-4-9T0:2:19Z</time></trkpt>
<trkpt lat="42.260288" lon="3.246663"><ele></ele><time>2014-4-9T0:2:22Z</time></trkpt>
<trkpt lat="42.260265" lon="3.246660"><ele></ele><time>2014-4-9T0:2:25Z</time></trkpt>
<trkpt lat="42.260167" lon="3.246650"><ele></ele><time>2014-4-9T0:2:28Z</time></trkpt>
<trkpt lat="42.259983" lon="3.246517"><ele></ele><time>2014-4-9T0:2:31Z</time></trkpt>
<trkpt lat="42.259827" lon="3.246148"><ele></ele><time>2014-4-9T0:2:34Z</time></trkpt>
<trkpt lat="42.259765" lon="3.245762"><ele></ele><time>2014-4-9T0:2:37Z</time></trkpt>
<trkpt lat="42.259872" lon="3.245553"><ele></ele><time>2014-4-9T0:2:40Z</time></trkpt>
<trkpt lat="42.259972" lon="3.245417"><ele></ele><time>2014-4-9T0:2:43Z</time></trkpt>
<trkpt lat="42.260087" lon="3.245308"><ele></ele><time>2014-4-9T0:2:46Z</time></trkpt>
<trkpt lat="42.260178" lon="3.245185"><ele></ele><time>2014-4-9T0:2:49Z</time></trkpt>
<trkpt lat="42.260258" lon="3.245052"><ele></ele><time>2014-4-9T0:2:52Z</time></trkpt>
<trkpt lat="42.260327" lon="3.244910"><ele></ele><time>2014-4-9T0:2:55Z</time></trkpt>
<trkpt lat="42.260333" lon="3.244745"><ele></ele><time>2014-4-9T0:2:58Z</time></trkpt>
<trkpt lat="42.260232" lon="3.244667"><ele></ele><time>2014-4-9T0:3:1Z</time></trkpt>
<trkpt lat="42.260117" lon="3.244748"><ele></ele><time>2014-4-9T0:3:4Z</time></trkpt>
<trkpt lat="42.260033" lon="3.244897"><ele></ele><time>2014-4-9T0:3:7Z</time></trkpt>
<trkpt lat="42.259957" lon="3.245048"><ele></ele><time>2014-4-9T0:3:10Z</time></trkpt>
<trkpt lat="42.259842" lon="3.245203"><ele></ele><time>2014-4-9T0:3:13Z</time></trkpt>
<trkpt lat="42.259735" lon="3.245337"><ele></ele><time>2014-4-9T0:3:16Z</time></trkpt>
<trkpt lat="42.259632" lon="3.245465"><ele></ele><time>2014-4-9T0:3:19Z</time></trkpt>
<trkpt lat="42.259525" lon="3.245575"><ele></ele><time>2014-4-9T0:3:22Z</time></trkpt>
<trkpt lat="42.259377" lon="3.245565"><ele></ele><time>2014-4-9T0:3:25Z</time></trkpt>
<trkpt lat="42.259232" lon="3.245528"><ele></ele><time>2014-4-9T0:3:28Z</time></trkpt>
<trkpt lat="42.259083" lon="3.245460"><ele></ele><time>2014-4-9T0:3:31Z</time></trkpt>
<trkpt lat="42.258942" lon="3.245442"><ele></ele><time>2014-4-9T0:3:34Z</time></trkpt>
<trkpt lat="42.258858" lon="3.245593"><ele></ele><time>2014-4-9T0:3:37Z</time></trkpt>
<trkpt lat="42.258903" lon="3.245778"><ele></ele><time>2014-4-9T0:3:40Z</time></trkpt>
<trkpt lat="42.258987" lon="3.245907"><ele></ele><time>2014-4-9T0:3:43Z</time></trkpt>
<trkpt lat="42.259048" lon="3.246045"><ele></ele><time>2014-4-9T0:3:46Z</time></trkpt>
<trkpt lat="42.259083" lon="3.246195"><ele></ele><time>2014-4-9T0:3:49Z</time></trkpt>
<trkpt lat="42.259105" lon="3.246347"><ele></ele><time>2014-4-9T0:3:52Z</time></trkpt>
<trkpt lat="42.259128" lon="3.246525"><ele></ele><time>2014-4-9T0:3:55Z</time></trkpt>
<trkpt lat="42.259140" lon="3.246685"><ele></ele><time>2014-4-9T0:3:58Z</time></trkpt>
<trkpt lat="42.259158" lon="3.246838"><ele></ele><time>2014-4-9T0:4:1Z</time></trkpt>
<trkpt lat="42.259178" lon="3.246998"><ele></ele><time>2014-4-9T0:4:4Z</time></trkpt>
<trkpt lat="42.259193" lon="3.247160"><ele></ele><time>2014-4-9T0:4:7Z</time></trkpt>
<trkpt lat="42.259193" lon="3.247300"><ele></ele><time>2014-4-9T0:4:10Z</time></trkpt>
<trkpt lat="42.259163" lon="3.247423"><ele></ele><time>2014-4-9T0:4:13Z</time></trkpt>
<trkpt lat="42.259105" lon="3.247538"><ele></ele><time>2014-4-9T0:4:16Z</time></trkpt>
<trkpt lat="42.259003" lon="3.247615"><ele></ele><time>2014-4-9T0:4:19Z</time></trkpt>
<trkpt lat="42.258900" lon="3.247658"><ele></ele><time>2014-4-9T0:4:22Z</time></trkpt>
<trkpt lat="42.258800" lon="3.247678"><ele></ele><time>2014-4-9T0:4:25Z</time></trkpt>
<trkpt lat="42.258698" lon="3.247690"><ele></ele><time>2014-4-9T0:4:28Z</time></trkpt>
<trkpt lat="42.258598" lon="3.247695"><ele></ele><time>2014-4-9T0:4:31Z</time></trkpt>
<trkpt lat="42.258503" lon="3.247710"><ele></ele><time>2014-4-9T0:4:34Z</time></trkpt>
<trkpt lat="42.258403" lon="3.247723"><ele></ele><time>2014-4-9T0:4:37Z</time></trkpt>
<trkpt lat="42.258308" lon="3.247752"><ele></ele><time>2014-4-9T0:4:40Z</time></trkpt>
<trkpt lat="42.258198" lon="3.247802"><ele></ele><time>2014-4-9T0:4:43Z</time></trkpt>
<trkpt lat="42.258102" lon="3.247862"><ele></ele><time>2014-4-9T0:4:46Z</time></trkpt>
<trkpt lat="42.258007" lon="3.247930"><ele></ele><time>2014-4-9T0:4:49Z</time></trkpt>
<trkpt lat="42.257930" lon="3.248022"><ele></ele><time>2014-4-9T0:4:52Z</time></trkpt>
<trkpt lat="42.257850" lon="3.248138"><ele></ele><time>2014-4-9T0:4:55Z</time></trkpt>
<trkpt lat="42.257770" lon="3.248257"><ele></ele><time>2014-4-9T0:4:58Z</time></trkpt>
<trkpt lat="42.257678" lon="3.248383"><ele></ele><time>2014-4-9T0:5:1Z</time></trkpt>
<trkpt lat="42.257553" lon="3.248507"><ele></ele><time>2014-4-9T0:5:4Z</time></trkpt>
<trkpt lat="42.257438" lon="3.248642"><ele></ele><time>2014-4-9T0:5:7Z</time></trkpt>
<trkpt lat="42.257347" lon="3.248770"><ele></ele><time>2014-4-9T0:5:10Z</time></trkpt>
<trkpt lat="42.257255" lon="3.248887"><ele></ele><time>2014-4-9T0:5:13Z</time></trkpt>
<trkpt lat="42.257172" lon="3.249003"><ele></ele><time>2014-4-9T0:5:16Z</time></trkpt>
<trkpt lat="42.257080" lon="3.249122"><ele></ele><time>2014-4-9T0:5:19Z</time></trkpt>
<trkpt lat="42.256982" lon="3.249227"><ele></ele><time>2014-4-9T0:5:22Z</time></trkpt>
<trkpt lat="42.256863" lon="3.249285"><ele></ele><time>2014-4-9T0:5:25Z</time></trkpt>
<trkpt lat="42.256737" lon="3.249278"><ele></ele><time>2014-4-9T0:5:28Z</time></trkpt>
<trkpt lat="42.256612" lon="3.249210"><ele></ele><time>2014-4-9T0:5:31Z</time></trkpt>
<trkpt lat="42.256527" lon="3.249115"><ele></ele><time>2014-4-9T0:5:34Z</time></trkpt>
<trkpt lat="42.256473" lon="3.248982"><ele></ele><time>2014-4-9T0:5:37Z</time></trkpt>
<trkpt lat="42.256432" lon="3.248845"><ele></ele><time>2014-4-9T0:5:40Z</time></trkpt>
<trkpt lat="42.256390" lon="3.248713"><ele></ele><time>2014-4-9T0:5:43Z</time></trkpt>
<trkpt lat="42.256340" lon="3.248597"><ele></ele><time>2014-4-9T0:5:46Z</time></trkpt>
<trkpt lat="42.256245" lon="3.248498"><ele></ele><time>2014-4-9T0:5:49Z</time></trkpt>
<trkpt lat="42.256150" lon="3.248455"><ele></ele><time>2014-4-9T0:5:52Z</time></trkpt>
<trkpt lat="42.256050" lon="3.248495"><ele></ele><time>2014-4-9T0:5:55Z</time></trkpt>
<trkpt lat="42.255967" lon="3.248587"><ele></ele><time>2014-4-9T0:5:58Z</time></trkpt>
<trkpt lat="42.255867" lon="3.248628"><ele></ele><time>2014-4-9T0:6:1Z</time></trkpt>
<trkpt lat="42.255760" lon="3.248663"><ele></ele><time>2014-4-9T0:6:4Z</time></trkpt>
<trkpt lat="42.255653" lon="3.248735"><ele></ele><time>2014-4-9T0:6:7Z</time></trkpt>
<trkpt lat="42.255562" lon="3.248810"><ele></ele><time>2014-4-9T0:6:10Z</time></trkpt>
<trkpt lat="42.255473" lon="3.248897"><ele></ele><time>2014-4-9T0:6:13Z</time></trkpt>
<trkpt lat="42.255387" lon="3.248987"><ele></ele><time>2014-4-9T0:6:16Z</time></trkpt>
<trkpt lat="42.255298" lon="3.249073"><ele></ele><time>2014-4-9T0:6:19Z</time></trkpt>
<trkpt lat="42.255207" lon="3.249155"><ele></ele><time>2014-4-9T0:6:22Z</time></trkpt>
<trkpt lat="42.255112" lon="3.249252"><ele></ele><time>2014-4-9T0:6:25Z</time></trkpt>
<trkpt lat="42.255017" lon="3.249315"><ele></ele><time>2014-4-9T0:6:28Z</time></trkpt>
<trkpt lat="42.254913" lon="3.249358"><ele></ele><time>2014-4-9T0:6:31Z</time></trkpt>
<trkpt lat="42.254810" lon="3.249402"><ele></ele><time>2014-4-9T0:6:34Z</time></trkpt>
<trkpt lat="42.254707" lon="3.249442"><ele></ele><time>2014-4-9T0:6:37Z</time></trkpt>
<trkpt lat="42.254605" lon="3.249473"><ele></ele><time>2014-4-9T0:6:40Z</time></trkpt>
<trkpt lat="42.254493" lon="3.249500"><ele></ele><time>2014-4-9T0:6:43Z</time></trkpt>
<trkpt lat="42.254383" lon="3.249503"><ele></ele><time>2014-4-9T0:6:46Z</time></trkpt>
<trkpt lat="42.254257" lon="3.249487"><ele></ele><time>2014-4-9T0:6:49Z</time></trkpt>
<trkpt lat="42.254158" lon="3.249425"><ele></ele><time>2014-4-9T0:6:52Z</time></trkpt>
<trkpt lat="42.254063" lon="3.249333"><ele></ele><time>2014-4-9T0:6:55Z</time></trkpt>
<trkpt lat="42.253987" lon="3.249213"><ele></ele><time>2014-4-9T0:6:58Z</time></trkpt>
<trkpt lat="42.253898" lon="3.249082"><ele></ele><time>2014-4-9T0:7:1Z</time></trkpt>
<trkpt lat="42.253803" lon="3.248932"><ele></ele><time>2014-4-9T0:7:4Z</time></trkpt>
<trkpt lat="42.253670" lon="3.248740"><ele></ele><time>2014-4-9T0:7:7Z</time></trkpt>
<trkpt lat="42.253517" lon="3.248493"><ele></ele><time>2014-4-9T0:7:10Z</time></trkpt>
<trkpt lat="42.253345" lon="3.248265"><ele></ele><time>2014-4-9T0:7:13Z</time></trkpt>
<trkpt lat="42.253360" lon="3.247953"><ele></ele><time>2014-4-9T0:7:16Z</time></trkpt>
<trkpt lat="42.253288" lon="3.247715"><ele></ele><time>2014-4-9T0:7:19Z</time></trkpt>
<trkpt lat="42.253052" lon="3.247795"><ele></ele><time>2014-4-9T0:7:22Z</time></trkpt>
<trkpt lat="42.252815" lon="3.247855"><ele></ele><time>2014-4-9T0:7:25Z</time></trkpt>
<trkpt lat="42.252587" lon="3.247712"><ele></ele><time>2014-4-9T0:7:28Z</time></trkpt>
<trkpt lat="42.252563" lon="3.247383"><ele></ele><time>2014-4-9T0:7:31Z</time></trkpt>
<trkpt lat="42.252652" lon="3.247145"><ele></ele><time>2014-4-9T0:7:34Z</time></trkpt>
<trkpt lat="42.252578" lon="3.246998"><ele></ele><time>2014-4-9T0:7:37Z</time></trkpt>
<trkpt lat="42.252438" lon="3.247078"><ele></ele><time>2014-4-9T0:7:40Z</time></trkpt>
<trkpt lat="42.252270" lon="3.247275"><ele></ele><time>2014-4-9T0:7:43Z</time></trkpt>
<trkpt lat="42.252022" lon="3.247477"><ele></ele><time>2014-4-9T0:7:46Z</time></trkpt>
<trkpt lat="42.251747" lon="3.247640"><ele></ele><time>2014-4-9T0:7:49Z</time></trkpt>
<trkpt lat="42.251427" lon="3.247642"><ele></ele><time>2014-4-9T0:7:52Z</time></trkpt>
<trkpt lat="42.251118" lon="3.247653"><ele></ele><time>2014-4-9T0:7:55Z</time></trkpt>
<trkpt lat="42.250828" lon="3.247742"><ele></ele><time>2014-4-9T0:7:58Z</time></trkpt>
<trkpt lat="42.250533" lon="3.247813"><ele></ele><time>2014-4-9T0:8:1Z</time></trkpt>
<trkpt lat="42.250328" lon="3.248132"><ele></ele><time>2014-4-9T0:8:4Z</time></trkpt>
<trkpt lat="42.250130" lon="3.248438"><ele></ele><time>2014-4-9T0:8:7Z</time></trkpt>
<trkpt lat="42.249843" lon="3.248528"><ele></ele><time>2014-4-9T0:8:10Z</time></trkpt>
<trkpt lat="42.249538" lon="3.248618"><ele></ele><time>2014-4-9T0:8:13Z</time></trkpt>
<trkpt lat="42.249352" lon="3.248937"><ele></ele><time>2014-4-9T0:8:16Z</time></trkpt>
<trkpt lat="42.249215" lon="3.249272"><ele></ele><time>2014-4-9T0:8:19Z</time></trkpt>
<trkpt lat="42.248973" lon="3.249507"><ele></ele><time>2014-4-9T0:8:22Z</time></trkpt>
<trkpt lat="42.248727" lon="3.249498"><ele></ele><time>2014-4-9T0:8:25Z</time></trkpt>
<trkpt lat="42.248508" lon="3.249212"><ele></ele><time>2014-4-9T0:8:28Z</time></trkpt>
<trkpt lat="42.248348" lon="3.248823"><ele></ele><time>2014-4-9T0:8:31Z</time></trkpt>
<trkpt lat="42.248280" lon="3.248352"><ele></ele><time>2014-4-9T0:8:34Z</time></trkpt>
<trkpt lat="42.248242" lon="3.247883"><ele></ele><time>2014-4-9T0:8:37Z</time></trkpt>
<trkpt lat="42.248185" lon="3.247517"><ele></ele><time>2014-4-9T0:8:40Z</time></trkpt>
<trkpt lat="42.247890" lon="3.247487"><ele></ele><time>2014-4-9T0:8:43Z</time></trkpt>
<trkpt lat="42.247738" lon="3.247387"><ele></ele><time>2014-4-9T0:8:46Z</time></trkpt>
<trkpt lat="42.247818" lon="3.247052"><ele></ele><time>2014-4-9T0:8:49Z</time></trkpt>
<trkpt lat="42.247978" lon="3.246705"><ele></ele><time>2014-4-9T0:8:52Z</time></trkpt>
<trkpt lat="42.248195" lon="3.246377"><ele></ele><time>2014-4-9T0:8:55Z</time></trkpt>
<trkpt lat="42.248473" lon="3.246193"><ele></ele><time>2014-4-9T0:8:58Z</time></trkpt>
<trkpt lat="42.248780" lon="3.246250"><ele></ele><time>2014-4-9T0:9:1Z</time></trkpt>
<trkpt lat="42.249092" lon="3.246445"><ele></ele><time>2014-4-9T0:9:4Z</time></trkpt>
<trkpt lat="42.249402" lon="3.246353"><ele></ele><time>2014-4-9T0:9:7Z</time></trkpt>
<trkpt lat="42.249657" lon="3.246032"><ele></ele><time>2014-4-9T0:9:10Z</time></trkpt>
<trkpt lat="42.249920" lon="3.245735"><ele></ele><time>2014-4-9T0:9:13Z</time></trkpt>
<trkpt lat="42.250243" lon="3.245560"><ele></ele><time>2014-4-9T0:9:16Z</time></trkpt>
<trkpt lat="42.250587" lon="3.245478"><ele></ele><time>2014-4-9T0:9:19Z</time></trkpt>
<trkpt lat="42.250912" lon="3.245493"><ele></ele><time>2014-4-9T0:9:22Z</time></trkpt>
<trkpt lat="42.251125" lon="3.245218"><ele></ele><time>2014-4-9T0:9:25Z</time></trkpt>
<trkpt lat="42.251048" lon="3.244797"><ele></ele><time>2014-4-9T0:9:28Z</time></trkpt>
<trkpt lat="42.251065" lon="3.244377"><ele></ele><time>2014-4-9T0:9:31Z</time></trkpt>
<trkpt lat="42.251305" lon="3.244027"><ele></ele><time>2014-4-9T0:9:34Z</time></trkpt>
<trkpt lat="42.251595" lon="3.243737"><ele></ele><time>2014-4-9T0:9:37Z</time></trkpt>
<trkpt lat="42.251643" lon="3.243333"><ele></ele><time>2014-4-9T0:9:40Z</time></trkpt>
<trkpt lat="42.251388" lon="3.243248"><ele></ele><time>2014-4-9T0:9:43Z</time></trkpt>
<trkpt lat="42.251128" lon="3.243198"><ele></ele><time>2014-4-9T0:9:46Z</time></trkpt>
<trkpt lat="42.250962" lon="3.242965"><ele></ele><time>2014-4-9T0:9:49Z</time></trkpt>
<trkpt lat="42.250802" lon="3.242770"><ele></ele><time>2014-4-9T0:9:52Z</time></trkpt>
<trkpt lat="42.250690" lon="3.242538"><ele></ele><time>2014-4-9T0:9:55Z</time></trkpt>
<trkpt lat="42.250690" lon="3.242228"><ele></ele><time>2014-4-9T0:9:58Z</time></trkpt>
<trkpt lat="42.250778" lon="3.241913"><ele></ele><time>2014-4-9T0:10:1Z</time></trkpt>
<trkpt lat="42.250965" lon="3.241602"><ele></ele><time>2014-4-9T0:10:4Z</time></trkpt>
<trkpt lat="42.251193" lon="3.241280"><ele></ele><time>2014-4-9T0:10:7Z</time></trkpt>
<trkpt lat="42.251418" lon="3.240945"><ele></ele><time>2014-4-9T0:10:10Z</time></trkpt>
<trkpt lat="42.251580" lon="3.240575"><ele></ele><time>2014-4-9T0:10:13Z</time></trkpt>
<trkpt lat="42.251717" lon="3.240188"><ele></ele><time>2014-4-9T0:10:16Z</time></trkpt>
<trkpt lat="42.251862" lon="3.239833"><ele></ele><time>2014-4-9T0:10:19Z</time></trkpt>
<trkpt lat="42.251912" lon="3.239412"><ele></ele><time>2014-4-9T0:10:22Z</time></trkpt>
<trkpt lat="42.252122" lon="3.239067"><ele></ele><time>2014-4-9T0:10:25Z</time></trkpt>
<trkpt lat="42.252255" lon="3.238683"><ele></ele><time>2014-4-9T0:10:28Z</time></trkpt>
<trkpt lat="42.252052" lon="3.238447"><ele></ele><time>2014-4-9T0:10:31Z</time></trkpt>
<trkpt lat="42.251847" lon="3.238413"><ele></ele><time>2014-4-9T0:10:34Z</time></trkpt>
<trkpt lat="42.251743" lon="3.238298"><ele></ele><time>2014-4-9T0:10:37Z</time></trkpt>
<trkpt lat="42.251682" lon="3.238148"><ele></ele><time>2014-4-9T0:10:40Z</time></trkpt>
<trkpt lat="42.251622" lon="3.237992"><ele></ele><time>2014-4-9T0:10:43Z</time></trkpt>
<trkpt lat="42.251530" lon="3.237867"><ele></ele><time>2014-4-9T0:10:46Z</time></trkpt>
<trkpt lat="42.251418" lon="3.237772"><ele></ele><time>2014-4-9T0:10:49Z</time></trkpt>
<trkpt lat="42.251300" lon="3.237702"><ele></ele><time>2014-4-9T0:10:52Z</time></trkpt>
<trkpt lat="42.251187" lon="3.237647"><ele></ele><time>2014-4-9T0:10:55Z</time></trkpt>
<trkpt lat="42.251060" lon="3.237645"><ele></ele><time>2014-4-9T0:10:58Z</time></trkpt>
<trkpt lat="42.250942" lon="3.237652"><ele></ele><time>2014-4-9T0:11:1Z</time></trkpt>
<trkpt lat="42.250832" lon="3.237627"><ele></ele><time>2014-4-9T0:11:4Z</time></trkpt>
<trkpt lat="42.250717" lon="3.237582"><ele></ele><time>2014-4-9T0:11:7Z</time></trkpt>
<trkpt lat="42.250603" lon="3.237553"><ele></ele><time>2014-4-9T0:11:10Z</time></trkpt>
<trkpt lat="42.250485" lon="3.237523"><ele></ele><time>2014-4-9T0:11:13Z</time></trkpt>
<trkpt lat="42.250362" lon="3.237473"><ele></ele><time>2014-4-9T0:11:16Z</time></trkpt>
<trkpt lat="42.250248" lon="3.237420"><ele></ele><time>2014-4-9T0:11:19Z</time></trkpt>
<trkpt lat="42.250142" lon="3.237357"><ele></ele><time>2014-4-9T0:11:22Z</time></trkpt>
<trkpt lat="42.250035" lon="3.237302"><ele></ele><time>2014-4-9T0:11:25Z</time></trkpt>
<trkpt lat="42.249923" lon="3.237257"><ele></ele><time>2014-4-9T0:11:28Z</time></trkpt>
<trkpt lat="42.249817" lon="3.237217"><ele></ele><time>2014-4-9T0:11:31Z</time></trkpt>
<trkpt lat="42.249725" lon="3.237188"><ele></ele><time>2014-4-9T0:11:34Z</time></trkpt>
<trkpt lat="42.249618" lon="3.237172"><ele></ele><time>2014-4-9T0:11:37Z</time></trkpt>
<trkpt lat="42.249515" lon="3.237148"><ele></ele><time>2014-4-9T0:11:40Z</time></trkpt>
<trkpt lat="42.249405" lon="3.237120"><ele></ele><time>2014-4-9T0:11:43Z</time></trkpt>
<trkpt lat="42.249298" lon="3.237057"><ele></ele><time>2014-4-9T0:11:46Z</time></trkpt>
<trkpt lat="42.249195" lon="3.236992"><ele></ele><time>2014-4-9T0:11:49Z</time></trkpt>
<trkpt lat="42.249070" lon="3.236917"><ele></ele><time>2014-4-9T0:11:52Z</time></trkpt>
<trkpt lat="42.248958" lon="3.236855"><ele></ele><time>2014-4-9T0:11:55Z</time></trkpt>
<trkpt lat="42.248875" lon="3.236753"><ele></ele><time>2014-4-9T0:11:58Z</time></trkpt>
<trkpt lat="42.248837" lon="3.236590"><ele></ele><time>2014-4-9T0:12:1Z</time></trkpt>
<trkpt lat="42.248852" lon="3.236383"><ele></ele><time>2014-4-9T0:12:4Z</time></trkpt>
<trkpt lat="42.248952" lon="3.236198"><ele></ele><time>2014-4-9T0:12:7Z</time></trkpt>
<trkpt lat="42.249047" lon="3.236023"><ele></ele><time>2014-4-9T0:12:10Z</time></trkpt>
<trkpt lat="42.249157" lon="3.235837"><ele></ele><time>2014-4-9T0:12:13Z</time></trkpt>
<trkpt lat="42.249310" lon="3.235642"><ele></ele><time>2014-4-9T0:12:16Z</time></trkpt>
<trkpt lat="42.249482" lon="3.235440"><ele></ele><time>2014-4-9T0:12:19Z</time></trkpt>
<trkpt lat="42.249600" lon="3.235202"><ele></ele><time>2014-4-9T0:12:22Z</time></trkpt>
<trkpt lat="42.249535" lon="3.234888"><ele></ele><time>2014-4-9T0:12:25Z</time></trkpt>
<trkpt lat="42.249378" lon="3.234575"><ele></ele><time>2014-4-9T0:12:28Z</time></trkpt>
<trkpt lat="42.249313" lon="3.234163"><ele></ele><time>2014-4-9T0:12:31Z</time></trkpt>
<trkpt lat="42.249310" lon="3.233797"><ele></ele><time>2014-4-9T0:12:34Z</time></trkpt>
<trkpt lat="42.249340" lon="3.233562"><ele></ele><time>2014-4-9T0:12:37Z</time></trkpt>
<trkpt lat="42.249348" lon="3.233528"><ele></ele><time>2014-4-9T0:12:40Z</time></trkpt>
<trkpt lat="42.249367" lon="3.233473"><ele></ele><time>2014-4-9T0:12:43Z</time></trkpt>
<trkpt lat="42.249420" lon="3.233243"><ele></ele><time>2014-4-9T0:12:46Z</time></trkpt>
<trkpt lat="42.249493" lon="3.232920"><ele></ele><time>2014-4-9T0:12:49Z</time></trkpt>
<trkpt lat="42.249648" lon="3.232658"><ele></ele><time>2014-4-9T0:12:52Z</time></trkpt>
<trkpt lat="42.249897" lon="3.232482"><ele></ele><time>2014-4-9T0:12:55Z</time></trkpt>
<trkpt lat="42.250195" lon="3.232307"><ele></ele><time>2014-4-9T0:12:58Z</time></trkpt>
<trkpt lat="42.250443" lon="3.232053"><ele></ele><time>2014-4-9T0:13:1Z</time></trkpt>
<trkpt lat="42.250560" lon="3.231657"><ele></ele><time>2014-4-9T0:13:4Z</time></trkpt>
<trkpt lat="42.250778" lon="3.231323"><ele></ele><time>2014-4-9T0:13:7Z</time></trkpt>
<trkpt lat="42.251048" lon="3.231060"><ele></ele><time>2014-4-9T0:13:10Z</time></trkpt>
<trkpt lat="42.251323" lon="3.230888"><ele></ele><time>2014-4-9T0:13:13Z</time></trkpt>
<trkpt lat="42.251518" lon="3.230548"><ele></ele><time>2014-4-9T0:13:16Z</time></trkpt>
<trkpt lat="42.251767" lon="3.230332"><ele></ele><time>2014-4-9T0:13:19Z</time></trkpt>
<trkpt lat="42.251888" lon="3.229952"><ele></ele><time>2014-4-9T0:13:22Z</time></trkpt>
<trkpt lat="42.251953" lon="3.229548"><ele></ele><time>2014-4-9T0:13:25Z</time></trkpt>
<trkpt lat="42.252220" lon="3.229347"><ele></ele><time>2014-4-9T0:13:28Z</time></trkpt>
<trkpt lat="42.252388" lon="3.229057"><ele></ele><time>2014-4-9T0:13:31Z</time></trkpt>
<trkpt lat="42.252498" lon="3.228793"><ele></ele><time>2014-4-9T0:13:34Z</time></trkpt>
<trkpt lat="42.252625" lon="3.228557"><ele></ele><time>2014-4-9T0:13:37Z</time></trkpt>
<trkpt lat="42.252720" lon="3.228297"><ele></ele><time>2014-4-9T0:13:40Z</time></trkpt>
<trkpt lat="42.252800" lon="3.228033"><ele></ele><time>2014-4-9T0:13:43Z</time></trkpt>
<trkpt lat="42.252877" lon="3.227747"><ele></ele><time>2014-4-9T0:13:46Z</time></trkpt>
<trkpt lat="42.252987" lon="3.227475"><ele></ele><time>2014-4-9T0:13:49Z</time></trkpt>
<trkpt lat="42.253143" lon="3.227270"><ele></ele><time>2014-4-9T0:13:52Z</time></trkpt>
<trkpt lat="42.253182" lon="3.227085"><ele></ele><time>2014-4-9T0:13:55Z</time></trkpt>
<trkpt lat="42.253193" lon="3.226793"><ele></ele><time>2014-4-9T0:13:58Z</time></trkpt>
<trkpt lat="42.253173" lon="3.226488"><ele></ele><time>2014-4-9T0:14:1Z</time></trkpt>
<trkpt lat="42.253090" lon="3.226240"><ele></ele><time>2014-4-9T0:14:4Z</time></trkpt>
<trkpt lat="42.253075" lon="3.226087"><ele></ele><time>2014-4-9T0:14:7Z</time></trkpt>
<trkpt lat="42.253178" lon="3.226080"><ele></ele><time>2014-4-9T0:14:10Z</time></trkpt>
<trkpt lat="42.253182" lon="3.226045"><ele></ele><time>2014-4-9T0:14:13Z</time></trkpt>
<trkpt lat="42.253093" lon="3.226077"><ele></ele><time>2014-4-9T0:14:16Z</time></trkpt>
<trkpt lat="42.252975" lon="3.226105"><ele></ele><time>2014-4-9T0:14:19Z</time></trkpt>
<trkpt lat="42.252823" lon="3.226168"><ele></ele><time>2014-4-9T0:14:22Z</time></trkpt>
<trkpt lat="42.252655" lon="3.226230"><ele></ele><time>2014-4-9T0:14:25Z</time></trkpt>
<trkpt lat="42.252472" lon="3.226292"><ele></ele><time>2014-4-9T0:14:28Z</time></trkpt>
<trkpt lat="42.252255" lon="3.226323"><ele></ele><time>2014-4-9T0:14:31Z</time></trkpt>
<trkpt lat="42.252095" lon="3.226335"><ele></ele><time>2014-4-9T0:14:34Z</time></trkpt>
<trkpt lat="42.252030" lon="3.226347"><ele></ele><time>2014-4-9T0:14:37Z</time></trkpt>
<trkpt lat="42.252030" lon="3.226352"><ele></ele><time>2014-4-9T0:14:40Z</time></trkpt>
<trkpt lat="42.252030" lon="3.226348"><ele></ele><time>2014-4-9T0:14:43Z</time></trkpt>
<trkpt lat="42.252013" lon="3.226363"><ele></ele><time>2014-4-9T0:14:46Z</time></trkpt>
<trkpt lat="42.252010" lon="3.226367"><ele></ele><time>2014-4-9T0:14:49Z</time></trkpt>
<trkpt lat="42.252010" lon="3.226367"><ele></ele><time>2014-4-9T0:14:52Z</time></trkpt>
<trkpt lat="42.252013" lon="3.226367"><ele></ele><time>2014-4-9T0:14:55Z</time></trkpt>
<trkpt lat="42.252013" lon="3.226365"><ele></ele><time>2014-4-9T0:14:58Z</time></trkpt>
<trkpt lat="42.252013" lon="3.226365"><ele></ele><time>2014-4-9T0:15:1Z</time></trkpt>
<trkpt lat="42.252018" lon="3.226367"><ele></ele><time>2014-4-9T0:15:4Z</time></trkpt>
<trkpt lat="42.252018" lon="3.226368"><ele></ele><time>2014-4-9T0:15:7Z</time></trkpt>
<trkpt lat="42.252018" lon="3.226368"><ele></ele><time>2014-4-9T0:15:10Z</time></trkpt>
<trkpt lat="42.252013" lon="3.226368"><ele></ele><time>2014-4-9T0:15:13Z</time></trkpt>
<trkpt lat="42.252022" lon="3.226362"><ele></ele><time>2014-4-9T0:15:16Z</time></trkpt>
<trkpt lat="42.252022" lon="3.226368"><ele></ele><time>2014-4-9T0:15:19Z</time></trkpt>
<trkpt lat="42.252018" lon="3.226368"><ele></ele><time>2014-4-9T0:15:22Z</time></trkpt>
<trkpt lat="42.252022" lon="3.226368"><ele></ele><time>2014-4-9T0:15:25Z</time></trkpt>
<trkpt lat="42.252022" lon="3.226367"><ele></ele><time>2014-4-9T0:15:28Z</time></trkpt>
<trkpt lat="42.252042" lon="3.226362"><ele></ele><time>2014-4-9T0:15:31Z</time></trkpt>
<trkpt lat="42.252063" lon="3.226357"><ele></ele><time>2014-4-9T0:15:34Z</time></trkpt>
<trkpt lat="42.252098" lon="3.226345"><ele></ele><time>2014-4-9T0:15:37Z</time></trkpt>
<trkpt lat="42.252178" lon="3.226343"><ele></ele><time>2014-4-9T0:15:40Z</time></trkpt>
<trkpt lat="42.252297" lon="3.226328"><ele></ele><time>2014-4-9T0:15:43Z</time></trkpt>
<trkpt lat="42.252433" lon="3.226302"><ele></ele><time>2014-4-9T0:15:46Z</time></trkpt>
<trkpt lat="42.252545" lon="3.226292"><ele></ele><time>2014-4-9T0:15:49Z</time></trkpt>
<trkpt lat="42.252667" lon="3.226242"><ele></ele><time>2014-4-9T0:15:52Z</time></trkpt>
<trkpt lat="42.252800" lon="3.226193"><ele></ele><time>2014-4-9T0:15:55Z</time></trkpt>
<trkpt lat="42.252922" lon="3.226150"><ele></ele><time>2014-4-9T0:15:58Z</time></trkpt>
<trkpt lat="42.252933" lon="3.226015"><ele></ele><time>2014-4-9T0:16:1Z</time></trkpt>
<trkpt lat="42.252853" lon="3.225873"><ele></ele><time>2014-4-9T0:16:4Z</time></trkpt>
<trkpt lat="42.252720" lon="3.225785"><ele></ele><time>2014-4-9T0:16:7Z</time></trkpt>
<trkpt lat="42.252545" lon="3.225745"><ele></ele><time>2014-4-9T0:16:10Z</time></trkpt>
<trkpt lat="42.252377" lon="3.225720"><ele></ele><time>2014-4-9T0:16:13Z</time></trkpt>
<trkpt lat="42.252217" lon="3.225710"><ele></ele><time>2014-4-9T0:16:16Z</time></trkpt>
<trkpt lat="42.252052" lon="3.225723"><ele></ele><time>2014-4-9T0:16:19Z</time></trkpt>
<trkpt lat="42.251892" lon="3.225748"><ele></ele><time>2014-4-9T0:16:22Z</time></trkpt>
<trkpt lat="42.251728" lon="3.225762"><ele></ele><time>2014-4-9T0:16:25Z</time></trkpt>
<trkpt lat="42.251568" lon="3.225755"><ele></ele><time>2014-4-9T0:16:28Z</time></trkpt>
<trkpt lat="42.251408" lon="3.225773"><ele></ele><time>2014-4-9T0:16:31Z</time></trkpt>
<trkpt lat="42.251247" lon="3.225795"><ele></ele><time>2014-4-9T0:16:34Z</time></trkpt>
<trkpt lat="42.251083" lon="3.225817"><ele></ele><time>2014-4-9T0:16:37Z</time></trkpt>
<trkpt lat="42.250930" lon="3.225843"><ele></ele><time>2014-4-9T0:16:40Z</time></trkpt>
<trkpt lat="42.250775" lon="3.225862"><ele></ele><time>2014-4-9T0:16:43Z</time></trkpt>
<trkpt lat="42.250622" lon="3.225880"><ele></ele><time>2014-4-9T0:16:46Z</time></trkpt>
<trkpt lat="42.250458" lon="3.225898"><ele></ele><time>2014-4-9T0:16:49Z</time></trkpt>
<trkpt lat="42.250298" lon="3.225903"><ele></ele><time>2014-4-9T0:16:52Z</time></trkpt>
<trkpt lat="42.250148" lon="3.225958"><ele></ele><time>2014-4-9T0:16:55Z</time></trkpt>
<trkpt lat="42.250027" lon="3.226032"><ele></ele><time>2014-4-9T0:16:58Z</time></trkpt>
<trkpt lat="42.249890" lon="3.226060"><ele></ele><time>2014-4-9T0:17:1Z</time></trkpt>
<trkpt lat="42.249763" lon="3.226005"><ele></ele><time>2014-4-9T0:17:4Z</time></trkpt>
<trkpt lat="42.249687" lon="3.225875"><ele></ele><time>2014-4-9T0:17:7Z</time></trkpt>
<trkpt lat="42.249638" lon="3.225722"><ele></ele><time>2014-4-9T0:17:10Z</time></trkpt>
<trkpt lat="42.249595" lon="3.225578"><ele></ele><time>2014-4-9T0:17:13Z</time></trkpt>
<trkpt lat="42.249538" lon="3.225442"><ele></ele><time>2014-4-9T0:17:16Z</time></trkpt>
<trkpt lat="42.249467" lon="3.225332"><ele></ele><time>2014-4-9T0:17:19Z</time></trkpt>
<trkpt lat="42.249387" lon="3.225230"><ele></ele><time>2014-4-9T0:17:22Z</time></trkpt>
<trkpt lat="42.249295" lon="3.225123"><ele></ele><time>2014-4-9T0:17:25Z</time></trkpt>
<trkpt lat="42.249198" lon="3.225020"><ele></ele><time>2014-4-9T0:17:28Z</time></trkpt>
<trkpt lat="42.249107" lon="3.224895"><ele></ele><time>2014-4-9T0:17:31Z</time></trkpt>
<trkpt lat="42.249032" lon="3.224773"><ele></ele><time>2014-4-9T0:17:34Z</time></trkpt>
<trkpt lat="42.248967" lon="3.224638"><ele></ele><time>2014-4-9T0:17:37Z</time></trkpt>
<trkpt lat="42.248913" lon="3.224497"><ele></ele><time>2014-4-9T0:17:40Z</time></trkpt>
<trkpt lat="42.248840" lon="3.224375"><ele></ele><time>2014-4-9T0:17:43Z</time></trkpt>
<trkpt lat="42.248727" lon="3.224320"><ele></ele><time>2014-4-9T0:17:46Z</time></trkpt>
<trkpt lat="42.248608" lon="3.224330"><ele></ele><time>2014-4-9T0:17:49Z</time></trkpt>
<trkpt lat="42.248485" lon="3.224350"><ele></ele><time>2014-4-9T0:17:52Z</time></trkpt>
<trkpt lat="42.248378" lon="3.224413"><ele></ele><time>2014-4-9T0:17:55Z</time></trkpt>
<trkpt lat="42.248310" lon="3.224552"><ele></ele><time>2014-4-9T0:17:58Z</time></trkpt>
<trkpt lat="42.248302" lon="3.224717"><ele></ele><time>2014-4-9T0:18:1Z</time></trkpt>
<trkpt lat="42.248298" lon="3.224882"><ele></ele><time>2014-4-9T0:18:4Z</time></trkpt>
<trkpt lat="42.248292" lon="3.225045"><ele></ele><time>2014-4-9T0:18:7Z</time></trkpt>
<trkpt lat="42.248272" lon="3.225207"><ele></ele><time>2014-4-9T0:18:10Z</time></trkpt>
<trkpt lat="42.248257" lon="3.225368"><ele></ele><time>2014-4-9T0:18:13Z</time></trkpt>
<trkpt lat="42.248245" lon="3.225527"><ele></ele><time>2014-4-9T0:18:16Z</time></trkpt>
<trkpt lat="42.248238" lon="3.225687"><ele></ele><time>2014-4-9T0:18:19Z</time></trkpt>
<trkpt lat="42.248227" lon="3.225847"><ele></ele><time>2014-4-9T0:18:22Z</time></trkpt>
<trkpt lat="42.248218" lon="3.226010"><ele></ele><time>2014-4-9T0:18:25Z</time></trkpt>
<trkpt lat="42.248192" lon="3.226168"><ele></ele><time>2014-4-9T0:18:28Z</time></trkpt>
<trkpt lat="42.248153" lon="3.226317"><ele></ele><time>2014-4-9T0:18:31Z</time></trkpt>
<trkpt lat="42.248093" lon="3.226455"><ele></ele><time>2014-4-9T0:18:34Z</time></trkpt>
<trkpt lat="42.248008" lon="3.226582"><ele></ele><time>2014-4-9T0:18:37Z</time></trkpt>
<trkpt lat="42.247913" lon="3.226690"><ele></ele><time>2014-4-9T0:18:40Z</time></trkpt>
<trkpt lat="42.247798" lon="3.226765"><ele></ele><time>2014-4-9T0:18:43Z</time></trkpt>
<trkpt lat="42.247673" lon="3.226817"><ele></ele><time>2014-4-9T0:18:46Z</time></trkpt>
<trkpt lat="42.247547" lon="3.226852"><ele></ele><time>2014-4-9T0:18:49Z</time></trkpt>
<trkpt lat="42.247428" lon="3.226885"><ele></ele><time>2014-4-9T0:18:52Z</time></trkpt>
<trkpt lat="42.247307" lon="3.226913"><ele></ele><time>2014-4-9T0:18:55Z</time></trkpt>
<trkpt lat="42.247188" lon="3.226952"><ele></ele><time>2014-4-9T0:18:58Z</time></trkpt>
<trkpt lat="42.247078" lon="3.226997"><ele></ele><time>2014-4-9T0:19:1Z</time></trkpt>
<trkpt lat="42.246978" lon="3.227087"><ele></ele><time>2014-4-9T0:19:4Z</time></trkpt>
<trkpt lat="42.246895" lon="3.227198"><ele></ele><time>2014-4-9T0:19:7Z</time></trkpt>
<trkpt lat="42.246803" lon="3.227305"><ele></ele><time>2014-4-9T0:19:10Z</time></trkpt>
<trkpt lat="42.246700" lon="3.227387"><ele></ele><time>2014-4-9T0:19:13Z</time></trkpt>
<trkpt lat="42.246590" lon="3.227442"><ele></ele><time>2014-4-9T0:19:16Z</time></trkpt>
<trkpt lat="42.246472" lon="3.227468"><ele></ele><time>2014-4-9T0:19:19Z</time></trkpt>
<trkpt lat="42.246357" lon="3.227493"><ele></ele><time>2014-4-9T0:19:22Z</time></trkpt>
<trkpt lat="42.246238" lon="3.227528"><ele></ele><time>2014-4-9T0:19:25Z</time></trkpt>
<trkpt lat="42.246128" lon="3.227590"><ele></ele><time>2014-4-9T0:19:28Z</time></trkpt>
<trkpt lat="42.246028" lon="3.227678"><ele></ele><time>2014-4-9T0:19:31Z</time></trkpt>
<trkpt lat="42.245933" lon="3.227770"><ele></ele><time>2014-4-9T0:19:34Z</time></trkpt>
<trkpt lat="42.245845" lon="3.227872"><ele></ele><time>2014-4-9T0:19:37Z</time></trkpt>
<trkpt lat="42.245743" lon="3.227957"><ele></ele><time>2014-4-9T0:19:40Z</time></trkpt>
<trkpt lat="42.245628" lon="3.228007"><ele></ele><time>2014-4-9T0:19:43Z</time></trkpt>
<trkpt lat="42.245518" lon="3.227977"><ele></ele><time>2014-4-9T0:19:46Z</time></trkpt>
<trkpt lat="42.245422" lon="3.227883"><ele></ele><time>2014-4-9T0:19:49Z</time></trkpt>
<trkpt lat="42.245362" lon="3.227747"><ele></ele><time>2014-4-9T0:19:52Z</time></trkpt>
<trkpt lat="42.245358" lon="3.227588"><ele></ele><time>2014-4-9T0:19:55Z</time></trkpt>
<trkpt lat="42.245395" lon="3.227438"><ele></ele><time>2014-4-9T0:19:58Z</time></trkpt>
<trkpt lat="42.245438" lon="3.227293"><ele></ele><time>2014-4-9T0:20:1Z</time></trkpt>
<trkpt lat="42.245487" lon="3.227147"><ele></ele><time>2014-4-9T0:20:4Z</time></trkpt>
<trkpt lat="42.245530" lon="3.227000"><ele></ele><time>2014-4-9T0:20:7Z</time></trkpt>
<trkpt lat="42.245575" lon="3.226852"><ele></ele><time>2014-4-9T0:20:10Z</time></trkpt>
<trkpt lat="42.245617" lon="3.226693"><ele></ele><time>2014-4-9T0:20:13Z</time></trkpt>
<trkpt lat="42.245655" lon="3.226522"><ele></ele><time>2014-4-9T0:20:16Z</time></trkpt>
<trkpt lat="42.245678" lon="3.226353"><ele></ele><time>2014-4-9T0:20:19Z</time></trkpt>
<trkpt lat="42.245705" lon="3.226187"><ele></ele><time>2014-4-9T0:20:22Z</time></trkpt>
<trkpt lat="42.245720" lon="3.226022"><ele></ele><time>2014-4-9T0:20:25Z</time></trkpt>
<trkpt lat="42.245738" lon="3.225855"><ele></ele><time>2014-4-9T0:20:28Z</time></trkpt>
<trkpt lat="42.245750" lon="3.225688"><ele></ele><time>2014-4-9T0:20:31Z</time></trkpt>
<trkpt lat="42.245758" lon="3.225517"><ele></ele><time>2014-4-9T0:20:34Z</time></trkpt>
<trkpt lat="42.245755" lon="3.225348"><ele></ele><time>2014-4-9T0:20:37Z</time></trkpt>
<trkpt lat="42.245750" lon="3.225198"><ele></ele><time>2014-4-9T0:20:40Z</time></trkpt>
<trkpt lat="42.245747" lon="3.225045"><ele></ele><time>2014-4-9T0:20:43Z</time></trkpt>
<trkpt lat="42.245747" lon="3.224893"><ele></ele><time>2014-4-9T0:20:46Z</time></trkpt>
<trkpt lat="42.245743" lon="3.224740"><ele></ele><time>2014-4-9T0:20:49Z</time></trkpt>
<trkpt lat="42.245732" lon="3.224590"><ele></ele><time>2014-4-9T0:20:52Z</time></trkpt>
<trkpt lat="42.245708" lon="3.224438"><ele></ele><time>2014-4-9T0:20:55Z</time></trkpt>
<trkpt lat="42.245667" lon="3.224293"><ele></ele><time>2014-4-9T0:20:58Z</time></trkpt>
<trkpt lat="42.245610" lon="3.224163"><ele></ele><time>2014-4-9T0:21:1Z</time></trkpt>
<trkpt lat="42.245548" lon="3.224033"><ele></ele><time>2014-4-9T0:21:4Z</time></trkpt>
<trkpt lat="42.245483" lon="3.223898"><ele></ele><time>2014-4-9T0:21:7Z</time></trkpt>
<trkpt lat="42.245445" lon="3.223752"><ele></ele><time>2014-4-9T0:21:10Z</time></trkpt>
<trkpt lat="42.245415" lon="3.223598"><ele></ele><time>2014-4-9T0:21:13Z</time></trkpt>
<trkpt lat="42.245400" lon="3.223448"><ele></ele><time>2014-4-9T0:21:16Z</time></trkpt>
<trkpt lat="42.245388" lon="3.223293"><ele></ele><time>2014-4-9T0:21:19Z</time></trkpt>
<trkpt lat="42.245377" lon="3.223140"><ele></ele><time>2014-4-9T0:21:22Z</time></trkpt>
<trkpt lat="42.245362" lon="3.222987"><ele></ele><time>2014-4-9T0:21:25Z</time></trkpt>
<trkpt lat="42.245342" lon="3.222838"><ele></ele><time>2014-4-9T0:21:28Z</time></trkpt>
<trkpt lat="42.245293" lon="3.222700"><ele></ele><time>2014-4-9T0:21:31Z</time></trkpt>
<trkpt lat="42.245217" lon="3.222583"><ele></ele><time>2014-4-9T0:21:34Z</time></trkpt>
<trkpt lat="42.245113" lon="3.222512"><ele></ele><time>2014-4-9T0:21:37Z</time></trkpt>
<trkpt lat="42.244998" lon="3.222498"><ele></ele><time>2014-4-9T0:21:40Z</time></trkpt>
<trkpt lat="42.244880" lon="3.222517"><ele></ele><time>2014-4-9T0:21:43Z</time></trkpt>
<trkpt lat="42.244770" lon="3.222535"><ele></ele><time>2014-4-9T0:21:46Z</time></trkpt>
<trkpt lat="42.244652" lon="3.222552"><ele></ele><time>2014-4-9T0:21:49Z</time></trkpt>
<trkpt lat="42.244542" lon="3.222568"><ele></ele><time>2014-4-9T0:21:52Z</time></trkpt>
<trkpt lat="42.244423" lon="3.222578"><ele></ele><time>2014-4-9T0:21:55Z</time></trkpt>
<trkpt lat="42.244308" lon="3.222572"><ele></ele><time>2014-4-9T0:21:58Z</time></trkpt>
<trkpt lat="42.244193" lon="3.222545"><ele></ele><time>2014-4-9T0:22:1Z</time></trkpt>
<trkpt lat="42.244083" lon="3.222492"><ele></ele><time>2014-4-9T0:22:4Z</time></trkpt>
<trkpt lat="42.243988" lon="3.222413"><ele></ele><time>2014-4-9T0:22:7Z</time></trkpt>
<trkpt lat="42.243908" lon="3.222295"><ele></ele><time>2014-4-9T0:22:10Z</time></trkpt>
<trkpt lat="42.243858" lon="3.222157"><ele></ele><time>2014-4-9T0:22:13Z</time></trkpt>
<trkpt lat="42.243823" lon="3.222007"><ele></ele><time>2014-4-9T0:22:16Z</time></trkpt>
<trkpt lat="42.243805" lon="3.221855"><ele></ele><time>2014-4-9T0:22:19Z</time></trkpt>
<trkpt lat="42.243797" lon="3.221698"><ele></ele><time>2014-4-9T0:22:22Z</time></trkpt>
<trkpt lat="42.243805" lon="3.221543"><ele></ele><time>2014-4-9T0:22:25Z</time></trkpt>
<trkpt lat="42.243823" lon="3.221388"><ele></ele><time>2014-4-9T0:22:28Z</time></trkpt>
<trkpt lat="42.243862" lon="3.221242"><ele></ele><time>2014-4-9T0:22:31Z</time></trkpt>
<trkpt lat="42.243900" lon="3.221093"><ele></ele><time>2014-4-9T0:22:34Z</time></trkpt>
<trkpt lat="42.243942" lon="3.220952"><ele></ele><time>2014-4-9T0:22:37Z</time></trkpt>
<trkpt lat="42.243985" lon="3.220810"><ele></ele><time>2014-4-9T0:22:40Z</time></trkpt>
<trkpt lat="42.244030" lon="3.220675"><ele></ele><time>2014-4-9T0:22:43Z</time></trkpt>
<trkpt lat="42.244068" lon="3.220532"><ele></ele><time>2014-4-9T0:22:46Z</time></trkpt>
<trkpt lat="42.244068" lon="3.220377"><ele></ele><time>2014-4-9T0:22:49Z</time></trkpt>
<trkpt lat="42.244042" lon="3.220222"><ele></ele><time>2014-4-9T0:22:52Z</time></trkpt>
<trkpt lat="42.244000" lon="3.220075"><ele></ele><time>2014-4-9T0:22:55Z</time></trkpt>
<trkpt lat="42.243965" lon="3.219933"><ele></ele><time>2014-4-9T0:22:58Z</time></trkpt>
<trkpt lat="42.243947" lon="3.219792"><ele></ele><time>2014-4-9T0:23:1Z</time></trkpt>
<trkpt lat="42.243965" lon="3.219647"><ele></ele><time>2014-4-9T0:23:4Z</time></trkpt>
<trkpt lat="42.244042" lon="3.219523"><ele></ele><time>2014-4-9T0:23:7Z</time></trkpt>
<trkpt lat="42.244148" lon="3.219457"><ele></ele><time>2014-4-9T0:23:10Z</time></trkpt>
<trkpt lat="42.244255" lon="3.219468"><ele></ele><time>2014-4-9T0:23:13Z</time></trkpt>
<trkpt lat="42.244365" lon="3.219500"><ele></ele><time>2014-4-9T0:23:16Z</time></trkpt>
<trkpt lat="42.244477" lon="3.219462"><ele></ele><time>2014-4-9T0:23:19Z</time></trkpt>
<trkpt lat="42.244563" lon="3.219352"><ele></ele><time>2014-4-9T0:23:22Z</time></trkpt>
<trkpt lat="42.244607" lon="3.219198"><ele></ele><time>2014-4-9T0:23:25Z</time></trkpt>
<trkpt lat="42.244590" lon="3.219042"><ele></ele><time>2014-4-9T0:23:28Z</time></trkpt>
<trkpt lat="42.244533" lon="3.218910"><ele></ele><time>2014-4-9T0:23:31Z</time></trkpt>
<trkpt lat="42.244418" lon="3.218827"><ele></ele><time>2014-4-9T0:23:34Z</time></trkpt>
<trkpt lat="42.244297" lon="3.218822"><ele></ele><time>2014-4-9T0:23:37Z</time></trkpt>
<trkpt lat="42.244190" lon="3.218885"><ele></ele><time>2014-4-9T0:23:40Z</time></trkpt>
<trkpt lat="42.244083" lon="3.218960"><ele></ele><time>2014-4-9T0:23:43Z</time></trkpt>
<trkpt lat="42.243977" lon="3.219035"><ele></ele><time>2014-4-9T0:23:46Z</time></trkpt>
<trkpt lat="42.243870" lon="3.219108"><ele></ele><time>2014-4-9T0:23:49Z</time></trkpt>
<trkpt lat="42.243758" lon="3.219162"><ele></ele><time>2014-4-9T0:23:52Z</time></trkpt>
<trkpt lat="42.243642" lon="3.219190"><ele></ele><time>2014-4-9T0:23:55Z</time></trkpt>
<trkpt lat="42.243523" lon="3.219220"><ele></ele><time>2014-4-9T0:23:58Z</time></trkpt>
<trkpt lat="42.243400" lon="3.219237"><ele></ele><time>2014-4-9T0:24:1Z</time></trkpt>
<trkpt lat="42.243282" lon="3.219233"><ele></ele><time>2014-4-9T0:24:4Z</time></trkpt>
<trkpt lat="42.243163" lon="3.219210"><ele></ele><time>2014-4-9T0:24:7Z</time></trkpt>
<trkpt lat="42.243045" lon="3.219175"><ele></ele><time>2014-4-9T0:24:10Z</time></trkpt>
<trkpt lat="42.242943" lon="3.219100"><ele></ele><time>2014-4-9T0:24:13Z</time></trkpt>
<trkpt lat="42.242852" lon="3.218998"><ele></ele><time>2014-4-9T0:24:16Z</time></trkpt>
<trkpt lat="42.242783" lon="3.218875"><ele></ele><time>2014-4-9T0:24:19Z</time></trkpt>
<trkpt lat="42.242730" lon="3.218737"><ele></ele><time>2014-4-9T0:24:22Z</time></trkpt>
<trkpt lat="42.242680" lon="3.218590"><ele></ele><time>2014-4-9T0:24:25Z</time></trkpt>
<trkpt lat="42.242638" lon="3.218445"><ele></ele><time>2014-4-9T0:24:28Z</time></trkpt>
<trkpt lat="42.242585" lon="3.218303"><ele></ele><time>2014-4-9T0:24:31Z</time></trkpt>
<trkpt lat="42.242535" lon="3.218158"><ele></ele><time>2014-4-9T0:24:34Z</time></trkpt>
<trkpt lat="42.242485" lon="3.218013"><ele></ele><time>2014-4-9T0:24:37Z</time></trkpt>
<trkpt lat="42.242417" lon="3.217870"><ele></ele><time>2014-4-9T0:24:40Z</time></trkpt>
<trkpt lat="42.242305" lon="3.217792"><ele></ele><time>2014-4-9T0:24:43Z</time></trkpt>
<trkpt lat="42.242188" lon="3.217783"><ele></ele><time>2014-4-9T0:24:46Z</time></trkpt>
<trkpt lat="42.242065" lon="3.217805"><ele></ele><time>2014-4-9T0:24:49Z</time></trkpt>
<trkpt lat="42.241952" lon="3.217827"><ele></ele><time>2014-4-9T0:24:52Z</time></trkpt>
<trkpt lat="42.241833" lon="3.217847"><ele></ele><time>2014-4-9T0:24:55Z</time></trkpt>
<trkpt lat="42.241715" lon="3.217857"><ele></ele><time>2014-4-9T0:24:58Z</time></trkpt>
<trkpt lat="42.241597" lon="3.217838"><ele></ele><time>2014-4-9T0:25:1Z</time></trkpt>
<trkpt lat="42.241473" lon="3.217768"><ele></ele><time>2014-4-9T0:25:4Z</time></trkpt>
<trkpt lat="42.241372" lon="3.217647"><ele></ele><time>2014-4-9T0:25:7Z</time></trkpt>
<trkpt lat="42.241295" lon="3.217488"><ele></ele><time>2014-4-9T0:25:10Z</time></trkpt>
<trkpt lat="42.241215" lon="3.217330"><ele></ele><time>2014-4-9T0:25:13Z</time></trkpt>
<trkpt lat="42.241147" lon="3.217172"><ele></ele><time>2014-4-9T0:25:16Z</time></trkpt>
<trkpt lat="42.241070" lon="3.217013"><ele></ele><time>2014-4-9T0:25:19Z</time></trkpt>
<trkpt lat="42.240990" lon="3.216857"><ele></ele><time>2014-4-9T0:25:22Z</time></trkpt>
<trkpt lat="42.240917" lon="3.216703"><ele></ele><time>2014-4-9T0:25:25Z</time></trkpt>
<trkpt lat="42.240845" lon="3.216540"><ele></ele><time>2014-4-9T0:25:28Z</time></trkpt>
<trkpt lat="42.240830" lon="3.216352"><ele></ele><time>2014-4-9T0:25:31Z</time></trkpt>
<trkpt lat="42.240863" lon="3.216163"><ele></ele><time>2014-4-9T0:25:34Z</time></trkpt>
<trkpt lat="42.240963" lon="3.216023"><ele></ele><time>2014-4-9T0:25:37Z</time></trkpt>
<trkpt lat="42.241088" lon="3.215955"><ele></ele><time>2014-4-9T0:25:40Z</time></trkpt>
<trkpt lat="42.241227" lon="3.215937"><ele></ele><time>2014-4-9T0:25:43Z</time></trkpt>
<trkpt lat="42.241363" lon="3.215922"><ele></ele><time>2014-4-9T0:25:46Z</time></trkpt>
<trkpt lat="42.241505" lon="3.215908"><ele></ele><time>2014-4-9T0:25:49Z</time></trkpt>
<trkpt lat="42.241638" lon="3.215880"><ele></ele><time>2014-4-9T0:25:52Z</time></trkpt>
<trkpt lat="42.241772" lon="3.215877"><ele></ele><time>2014-4-9T0:25:55Z</time></trkpt>
<trkpt lat="42.241905" lon="3.215932"><ele></ele><time>2014-4-9T0:25:58Z</time></trkpt>
<trkpt lat="42.242038" lon="3.215988"><ele></ele><time>2014-4-9T0:26:1Z</time></trkpt>
<trkpt lat="42.242172" lon="3.216035"><ele></ele><time>2014-4-9T0:26:4Z</time></trkpt>
<trkpt lat="42.242310" lon="3.216047"><ele></ele><time>2014-4-9T0:26:7Z</time></trkpt>
<trkpt lat="42.242447" lon="3.216058"><ele></ele><time>2014-4-9T0:26:10Z</time></trkpt>
<trkpt lat="42.242580" lon="3.216053"><ele></ele><time>2014-4-9T0:26:13Z</time></trkpt>
<trkpt lat="42.242707" lon="3.215985"><ele></ele><time>2014-4-9T0:26:16Z</time></trkpt>
<trkpt lat="42.242817" lon="3.215878"><ele></ele><time>2014-4-9T0:26:19Z</time></trkpt>
<trkpt lat="42.242917" lon="3.215758"><ele></ele><time>2014-4-9T0:26:22Z</time></trkpt>
<trkpt lat="42.243018" lon="3.215637"><ele></ele><time>2014-4-9T0:26:25Z</time></trkpt>
<trkpt lat="42.243122" lon="3.215518"><ele></ele><time>2014-4-9T0:26:28Z</time></trkpt>
<trkpt lat="42.243245" lon="3.215400"><ele></ele><time>2014-4-9T0:26:31Z</time></trkpt>
<trkpt lat="42.243423" lon="3.215323"><ele></ele><time>2014-4-9T0:26:34Z</time></trkpt>
<trkpt lat="42.243648" lon="3.215323"><ele></ele><time>2014-4-9T0:26:37Z</time></trkpt>
<trkpt lat="42.243912" lon="3.215353"><ele></ele><time>2014-4-9T0:26:40Z</time></trkpt>
<trkpt lat="42.244178" lon="3.215463"><ele></ele><time>2014-4-9T0:26:43Z</time></trkpt>
<trkpt lat="42.244370" lon="3.215767"><ele></ele><time>2014-4-9T0:26:46Z</time></trkpt>
<trkpt lat="42.244500" lon="3.216125"><ele></ele><time>2014-4-9T0:26:49Z</time></trkpt>
<trkpt lat="42.244628" lon="3.216485"><ele></ele><time>2014-4-9T0:26:52Z</time></trkpt>
<trkpt lat="42.244800" lon="3.216723"><ele></ele><time>2014-4-9T0:26:55Z</time></trkpt>
<trkpt lat="42.244968" lon="3.216815"><ele></ele><time>2014-4-9T0:26:58Z</time></trkpt>
<trkpt lat="42.245087" lon="3.216805"><ele></ele><time>2014-4-9T0:27:1Z</time></trkpt>
<trkpt lat="42.245163" lon="3.216777"><ele></ele><time>2014-4-9T0:27:4Z</time></trkpt>
<trkpt lat="42.245158" lon="3.216775"><ele></ele><time>2014-4-9T0:27:7Z</time></trkpt>
<trkpt lat="42.245158" lon="3.216773"><ele></ele><time>2014-4-9T0:27:10Z</time></trkpt>
<trkpt lat="42.245158" lon="3.216773"><ele></ele><time>2014-4-9T0:27:13Z</time></trkpt>
<trkpt lat="42.245158" lon="3.216773"><ele></ele><time>2014-4-9T0:27:16Z</time></trkpt>
<trkpt lat="42.245158" lon="3.216770"><ele></ele><time>2014-4-9T0:27:19Z</time></trkpt>
<trkpt lat="42.245158" lon="3.216770"><ele></ele><time>2014-4-9T0:27:22Z</time></trkpt>
<trkpt lat="42.245158" lon="3.216770"><ele></ele><time>2014-4-9T0:27:25Z</time></trkpt>
<trkpt lat="42.245158" lon="3.216770"><ele></ele><time>2014-4-9T0:27:28Z</time></trkpt>
<trkpt lat="42.245158" lon="3.216770"><ele></ele><time>2014-4-9T0:27:31Z</time></trkpt>
<trkpt lat="42.245158" lon="3.216770"><ele></ele><time>2014-4-9T0:27:34Z</time></trkpt>
<trkpt lat="42.245158" lon="3.216770"><ele></ele><time>2014-4-9T0:27:37Z</time></trkpt>
<trkpt lat="42.245158" lon="3.216770"><ele></ele><time>2014-4-9T0:27:40Z</time></trkpt>
<trkpt lat="42.245158" lon="3.216770"><ele></ele><time>2014-4-9T0:27:43Z</time></trkpt>
<trkpt lat="42.245158" lon="3.216770"><ele></ele><time>2014-4-9T0:27:46Z</time></trkpt>
<trkpt lat="42.245158" lon="3.216770"><ele></ele><time>2014-4-9T0:27:49Z</time></trkpt>
<trkpt lat="42.245167" lon="3.216768"><ele></ele><time>2014-4-9T0:27:52Z</time></trkpt>
<trkpt lat="42.245255" lon="3.216687"><ele></ele><time>2014-4-9T0:27:55Z</time></trkpt>
<trkpt lat="42.245377" lon="3.216538"><ele></ele><time>2014-4-9T0:27:58Z</time></trkpt>
<trkpt lat="42.245480" lon="3.216360"><ele></ele><time>2014-4-9T0:28:1Z</time></trkpt>
<trkpt lat="42.245590" lon="3.216190"><ele></ele><time>2014-4-9T0:28:4Z</time></trkpt>
<trkpt lat="42.245717" lon="3.216045"><ele></ele><time>2014-4-9T0:28:7Z</time></trkpt>
<trkpt lat="42.245857" lon="3.215935"><ele></ele><time>2014-4-9T0:28:10Z</time></trkpt>
<trkpt lat="42.246010" lon="3.215860"><ele></ele><time>2014-4-9T0:28:13Z</time></trkpt>
<trkpt lat="42.246143" lon="3.215773"><ele></ele><time>2014-4-9T0:28:16Z</time></trkpt>
<trkpt lat="42.246262" lon="3.215660"><ele></ele><time>2014-4-9T0:28:19Z</time></trkpt>
<trkpt lat="42.246333" lon="3.215497"><ele></ele><time>2014-4-9T0:28:22Z</time></trkpt>
<trkpt lat="42.246398" lon="3.215323"><ele></ele><time>2014-4-9T0:28:25Z</time></trkpt>
<trkpt lat="42.246487" lon="3.215163"><ele></ele><time>2014-4-9T0:28:28Z</time></trkpt>
<trkpt lat="42.246597" lon="3.215040"><ele></ele><time>2014-4-9T0:28:31Z</time></trkpt>
<trkpt lat="42.246727" lon="3.214973"><ele></ele><time>2014-4-9T0:28:34Z</time></trkpt>
<trkpt lat="42.246865" lon="3.214915"><ele></ele><time>2014-4-9T0:28:37Z</time></trkpt>
<trkpt lat="42.246998" lon="3.214832"><ele></ele><time>2014-4-9T0:28:40Z</time></trkpt>
<trkpt lat="42.247117" lon="3.214730"><ele></ele><time>2014-4-9T0:28:43Z</time></trkpt>
<trkpt lat="42.247242" lon="3.214627"><ele></ele><time>2014-4-9T0:28:46Z</time></trkpt>
<trkpt lat="42.247372" lon="3.214562"><ele></ele><time>2014-4-9T0:28:49Z</time></trkpt>
<trkpt lat="42.247508" lon="3.214617"><ele></ele><time>2014-4-9T0:28:52Z</time></trkpt>
<trkpt lat="42.247635" lon="3.214725"><ele></ele><time>2014-4-9T0:28:55Z</time></trkpt>
<trkpt lat="42.247792" lon="3.214757"><ele></ele><time>2014-4-9T0:28:58Z</time></trkpt>
<trkpt lat="42.247940" lon="3.214668"><ele></ele><time>2014-4-9T0:29:1Z</time></trkpt>
<trkpt lat="42.248085" lon="3.214550"><ele></ele><time>2014-4-9T0:29:4Z</time></trkpt>
<trkpt lat="42.248238" lon="3.214442"><ele></ele><time>2014-4-9T0:29:7Z</time></trkpt>
<trkpt lat="42.248405" lon="3.214342"><ele></ele><time>2014-4-9T0:29:10Z</time></trkpt>
<trkpt lat="42.248585" lon="3.214202"><ele></ele><time>2014-4-9T0:29:13Z</time></trkpt>
<trkpt lat="42.248768" lon="3.214025"><ele></ele><time>2014-4-9T0:29:16Z</time></trkpt>
<trkpt lat="42.248943" lon="3.213807"><ele></ele><time>2014-4-9T0:29:19Z</time></trkpt>
<trkpt lat="42.249130" lon="3.213542"><ele></ele><time>2014-4-9T0:29:22Z</time></trkpt>
<trkpt lat="42.249325" lon="3.213283"><ele></ele><time>2014-4-9T0:29:25Z</time></trkpt>
<trkpt lat="42.249568" lon="3.213153"><ele></ele><time>2014-4-9T0:29:28Z</time></trkpt>
<trkpt lat="42.249802" lon="3.212975"><ele></ele><time>2014-4-9T0:29:31Z</time></trkpt>
<trkpt lat="42.249817" lon="3.212593"><ele></ele><time>2014-4-9T0:29:34Z</time></trkpt>
<trkpt lat="42.249905" lon="3.212232"><ele></ele><time>2014-4-9T0:29:37Z</time></trkpt>
<trkpt lat="42.250107" lon="3.211912"><ele></ele><time>2014-4-9T0:29:40Z</time></trkpt>
<trkpt lat="42.250352" lon="3.211627"><ele></ele><time>2014-4-9T0:29:43Z</time></trkpt>
<trkpt lat="42.250625" lon="3.211403"><ele></ele><time>2014-4-9T0:29:46Z</time></trkpt>
<trkpt lat="42.250908" lon="3.211423"><ele></ele><time>2014-4-9T0:29:49Z</time></trkpt>
<trkpt lat="42.251160" lon="3.211602"><ele></ele><time>2014-4-9T0:29:52Z</time></trkpt>
<trkpt lat="42.251418" lon="3.211707"><ele></ele><time>2014-4-9T0:29:55Z</time></trkpt>
<trkpt lat="42.251617" lon="3.211512"><ele></ele><time>2014-4-9T0:29:58Z</time></trkpt>
<trkpt lat="42.251752" lon="3.211178"><ele></ele><time>2014-4-9T0:30:1Z</time></trkpt>
<trkpt lat="42.251953" lon="3.210870"><ele></ele><time>2014-4-9T0:30:4Z</time></trkpt>
<trkpt lat="42.252202" lon="3.210607"><ele></ele><time>2014-4-9T0:30:7Z</time></trkpt>
<trkpt lat="42.252373" lon="3.210258"><ele></ele><time>2014-4-9T0:30:10Z</time></trkpt>
<trkpt lat="42.252182" lon="3.209943"><ele></ele><time>2014-4-9T0:30:13Z</time></trkpt>
<trkpt lat="42.251903" lon="3.209718"><ele></ele><time>2014-4-9T0:30:16Z</time></trkpt>
<trkpt lat="42.251812" lon="3.209260"><ele></ele><time>2014-4-9T0:30:19Z</time></trkpt>
<trkpt lat="42.251800" lon="3.208737"><ele></ele><time>2014-4-9T0:30:22Z</time></trkpt>
<trkpt lat="42.252078" lon="3.208438"><ele></ele><time>2014-4-9T0:30:25Z</time></trkpt>
<trkpt lat="42.252438" lon="3.208520"><ele></ele><time>2014-4-9T0:30:28Z</time></trkpt>
<trkpt lat="42.252738" lon="3.208785"><ele></ele><time>2014-4-9T0:30:31Z</time></trkpt>
<trkpt lat="42.253037" lon="3.208725"><ele></ele><time>2014-4-9T0:30:34Z</time></trkpt>
<trkpt lat="42.253247" lon="3.208385"><ele></ele><time>2014-4-9T0:30:37Z</time></trkpt>
<trkpt lat="42.253360" lon="3.207960"><ele></ele><time>2014-4-9T0:30:40Z</time></trkpt>
<trkpt lat="42.253377" lon="3.207503"><ele></ele><time>2014-4-9T0:30:43Z</time></trkpt>
<trkpt lat="42.253498" lon="3.207048"><ele></ele><time>2014-4-9T0:30:46Z</time></trkpt>
<trkpt lat="42.253635" lon="3.206618"><ele></ele><time>2014-4-9T0:30:49Z</time></trkpt>
<trkpt lat="42.253712" lon="3.206272"><ele></ele><time>2014-4-9T0:30:52Z</time></trkpt>
<trkpt lat="42.253762" lon="3.206103"><ele></ele><time>2014-4-9T0:30:55Z</time></trkpt>
<trkpt lat="42.253838" lon="3.206120"><ele></ele><time>2014-4-9T0:30:58Z</time></trkpt>
<trkpt lat="42.253907" lon="3.206187"><ele></ele><time>2014-4-9T0:31:1Z</time></trkpt>
<trkpt lat="42.253987" lon="3.206235"><ele></ele><time>2014-4-9T0:31:4Z</time></trkpt>
<trkpt lat="42.254058" lon="3.206278"><ele></ele><time>2014-4-9T0:31:7Z</time></trkpt>
<trkpt lat="42.254138" lon="3.206303"><ele></ele><time>2014-4-9T0:31:10Z</time></trkpt>
<trkpt lat="42.254218" lon="3.206332"><ele></ele><time>2014-4-9T0:31:13Z</time></trkpt>
<trkpt lat="42.254295" lon="3.206363"><ele></ele><time>2014-4-9T0:31:16Z</time></trkpt>
<trkpt lat="42.254375" lon="3.206393"><ele></ele><time>2014-4-9T0:31:19Z</time></trkpt>
<trkpt lat="42.254448" lon="3.206433"><ele></ele><time>2014-4-9T0:31:22Z</time></trkpt>
<trkpt lat="42.254517" lon="3.206473"><ele></ele><time>2014-4-9T0:31:25Z</time></trkpt>
<trkpt lat="42.254582" lon="3.206518"><ele></ele><time>2014-4-9T0:31:28Z</time></trkpt>
<trkpt lat="42.254638" lon="3.206575"><ele></ele><time>2014-4-9T0:31:31Z</time></trkpt>
<trkpt lat="42.254680" lon="3.206652"><ele></ele><time>2014-4-9T0:31:34Z</time></trkpt>
<trkpt lat="42.254707" lon="3.206745"><ele></ele><time>2014-4-9T0:31:37Z</time></trkpt>
<trkpt lat="42.254665" lon="3.206850"><ele></ele><time>2014-4-9T0:31:40Z</time></trkpt>
<trkpt lat="42.254632" lon="3.206962"><ele></ele><time>2014-4-9T0:31:43Z</time></trkpt>
<trkpt lat="42.254597" lon="3.207072"><ele></ele><time>2014-4-9T0:31:46Z</time></trkpt>
<trkpt lat="42.254555" lon="3.207187"><ele></ele><time>2014-4-9T0:31:49Z</time></trkpt>
<trkpt lat="42.254517" lon="3.207305"><ele></ele><time>2014-4-9T0:31:52Z</time></trkpt>
<trkpt lat="42.254487" lon="3.207425"><ele></ele><time>2014-4-9T0:31:55Z</time></trkpt>
<trkpt lat="42.254452" lon="3.207543"><ele></ele><time>2014-4-9T0:31:58Z</time></trkpt>
<trkpt lat="42.254422" lon="3.207658"><ele></ele><time>2014-4-9T0:32:1Z</time></trkpt>
<trkpt lat="42.254387" lon="3.207768"><ele></ele><time>2014-4-9T0:32:4Z</time></trkpt>
<trkpt lat="42.254345" lon="3.207873"><ele></ele><time>2014-4-9T0:32:7Z</time></trkpt>
<trkpt lat="42.254303" lon="3.207983"><ele></ele><time>2014-4-9T0:32:10Z</time></trkpt>
<trkpt lat="42.254262" lon="3.208095"><ele></ele><time>2014-4-9T0:32:13Z</time></trkpt>
<trkpt lat="42.254223" lon="3.208207"><ele></ele><time>2014-4-9T0:32:16Z</time></trkpt>
<trkpt lat="42.254173" lon="3.208308"><ele></ele><time>2014-4-9T0:32:19Z</time></trkpt>
<trkpt lat="42.254123" lon="3.208412"><ele></ele><time>2014-4-9T0:32:22Z</time></trkpt>
<trkpt lat="42.254067" lon="3.208512"><ele></ele><time>2014-4-9T0:32:25Z</time></trkpt>
<trkpt lat="42.254017" lon="3.208608"><ele></ele><time>2014-4-9T0:32:28Z</time></trkpt>
<trkpt lat="42.253963" lon="3.208702"><ele></ele><time>2014-4-9T0:32:31Z</time></trkpt>
<trkpt lat="42.253910" lon="3.208785"><ele></ele><time>2014-4-9T0:32:34Z</time></trkpt>
<trkpt lat="42.253860" lon="3.208870"><ele></ele><time>2014-4-9T0:32:37Z</time></trkpt>
<trkpt lat="42.253803" lon="3.208953"><ele></ele><time>2014-4-9T0:32:40Z</time></trkpt>
<trkpt lat="42.253750" lon="3.209040"><ele></ele><time>2014-4-9T0:32:43Z</time></trkpt>
<trkpt lat="42.253703" lon="3.209127"><ele></ele><time>2014-4-9T0:32:46Z</time></trkpt>
<trkpt lat="42.253650" lon="3.209213"><ele></ele><time>2014-4-9T0:32:49Z</time></trkpt>
<trkpt lat="42.253605" lon="3.209308"><ele></ele><time>2014-4-9T0:32:52Z</time></trkpt>
<trkpt lat="42.253578" lon="3.209400"><ele></ele><time>2014-4-9T0:32:55Z</time></trkpt>
<trkpt lat="42.253543" lon="3.209513"><ele></ele><time>2014-4-9T0:32:58Z</time></trkpt>
<trkpt lat="42.253510" lon="3.209627"><ele></ele><time>2014-4-9T0:33:1Z</time></trkpt>
<trkpt lat="42.253475" lon="3.209738"><ele></ele><time>2014-4-9T0:33:4Z</time></trkpt>
<trkpt lat="42.253445" lon="3.209847"><ele></ele><time>2014-4-9T0:33:7Z</time></trkpt>
<trkpt lat="42.253410" lon="3.209950"><ele></ele><time>2014-4-9T0:33:10Z</time></trkpt>
<trkpt lat="42.253377" lon="3.210067"><ele></ele><time>2014-4-9T0:33:13Z</time></trkpt>
<trkpt lat="42.253330" lon="3.210185"><ele></ele><time>2014-4-9T0:33:16Z</time></trkpt>
<trkpt lat="42.253292" lon="3.210307"><ele></ele><time>2014-4-9T0:33:19Z</time></trkpt>
<trkpt lat="42.253265" lon="3.210443"><ele></ele><time>2014-4-9T0:33:22Z</time></trkpt>
<trkpt lat="42.253280" lon="3.210592"><ele></ele><time>2014-4-9T0:33:25Z</time></trkpt>
<trkpt lat="42.253360" lon="3.210685"><ele></ele><time>2014-4-9T0:33:28Z</time></trkpt>
<trkpt lat="42.253468" lon="3.210648"><ele></ele><time>2014-4-9T0:33:31Z</time></trkpt>
<trkpt lat="42.253513" lon="3.210528"><ele></ele><time>2014-4-9T0:33:34Z</time></trkpt>
<trkpt lat="42.253495" lon="3.210390"><ele></ele><time>2014-4-9T0:33:37Z</time></trkpt>
<trkpt lat="42.253490" lon="3.210233"><ele></ele><time>2014-4-9T0:33:40Z</time></trkpt>
<trkpt lat="42.253543" lon="3.210092"><ele></ele><time>2014-4-9T0:33:43Z</time></trkpt>
<trkpt lat="42.253605" lon="3.209973"><ele></ele><time>2014-4-9T0:33:46Z</time></trkpt>
<trkpt lat="42.253673" lon="3.209872"><ele></ele><time>2014-4-9T0:33:49Z</time></trkpt>
<trkpt lat="42.253750" lon="3.209785"><ele></ele><time>2014-4-9T0:33:52Z</time></trkpt>
<trkpt lat="42.253827" lon="3.209700"><ele></ele><time>2014-4-9T0:33:55Z</time></trkpt>
<trkpt lat="42.253902" lon="3.209620"><ele></ele><time>2014-4-9T0:33:58Z</time></trkpt>
<trkpt lat="42.253990" lon="3.209548"><ele></ele><time>2014-4-9T0:34:1Z</time></trkpt>
<trkpt lat="42.254078" lon="3.209495"><ele></ele><time>2014-4-9T0:34:4Z</time></trkpt>
<trkpt lat="42.254173" lon="3.209452"><ele></ele><time>2014-4-9T0:34:7Z</time></trkpt>
<trkpt lat="42.254268" lon="3.209412"><ele></ele><time>2014-4-9T0:34:10Z</time></trkpt>
<trkpt lat="42.254363" lon="3.209373"><ele></ele><time>2014-4-9T0:34:13Z</time></trkpt>
<trkpt lat="42.254455" lon="3.209332"><ele></ele><time>2014-4-9T0:34:16Z</time></trkpt>
<trkpt lat="42.254552" lon="3.209287"><ele></ele><time>2014-4-9T0:34:19Z</time></trkpt>
<trkpt lat="42.254647" lon="3.209245"><ele></ele><time>2014-4-9T0:34:22Z</time></trkpt>
<trkpt lat="42.254733" lon="3.209198"><ele></ele><time>2014-4-9T0:34:25Z</time></trkpt>
<trkpt lat="42.254822" lon="3.209150"><ele></ele><time>2014-4-9T0:34:28Z</time></trkpt>
<trkpt lat="42.254910" lon="3.209102"><ele></ele><time>2014-4-9T0:34:31Z</time></trkpt>
<trkpt lat="42.255002" lon="3.209050"><ele></ele><time>2014-4-9T0:34:34Z</time></trkpt>
<trkpt lat="42.255088" lon="3.209002"><ele></ele><time>2014-4-9T0:34:37Z</time></trkpt>
<trkpt lat="42.255173" lon="3.208945"><ele></ele><time>2014-4-9T0:34:40Z</time></trkpt>
<trkpt lat="42.255260" lon="3.208882"><ele></ele><time>2014-4-9T0:34:43Z</time></trkpt>
<trkpt lat="42.255337" lon="3.208813"><ele></ele><time>2014-4-9T0:34:46Z</time></trkpt>
<trkpt lat="42.255417" lon="3.208740"><ele></ele><time>2014-4-9T0:34:49Z</time></trkpt>
<trkpt lat="42.255490" lon="3.208670"><ele></ele><time>2014-4-9T0:34:52Z</time></trkpt>
<trkpt lat="42.255558" lon="3.208595"><ele></ele><time>2014-4-9T0:34:55Z</time></trkpt>
<trkpt lat="42.255627" lon="3.208512"><ele></ele><time>2014-4-9T0:34:58Z</time></trkpt>
<trkpt lat="42.255695" lon="3.208430"><ele></ele><time>2014-4-9T0:35:1Z</time></trkpt>
<trkpt lat="42.255768" lon="3.208348"><ele></ele><time>2014-4-9T0:35:4Z</time></trkpt>
<trkpt lat="42.255843" lon="3.208272"><ele></ele><time>2014-4-9T0:35:7Z</time></trkpt>
<trkpt lat="42.255925" lon="3.208207"><ele></ele><time>2014-4-9T0:35:10Z</time></trkpt>
<trkpt lat="42.256012" lon="3.208155"><ele></ele><time>2014-4-9T0:35:13Z</time></trkpt>
<trkpt lat="42.256097" lon="3.208110"><ele></ele><time>2014-4-9T0:35:16Z</time></trkpt>
<trkpt lat="42.256183" lon="3.208075"><ele></ele><time>2014-4-9T0:35:19Z</time></trkpt>
<trkpt lat="42.256272" lon="3.208033"><ele></ele><time>2014-4-9T0:35:22Z</time></trkpt>
<trkpt lat="42.256358" lon="3.207983"><ele></ele><time>2014-4-9T0:35:25Z</time></trkpt>
<trkpt lat="42.256443" lon="3.207935"><ele></ele><time>2014-4-9T0:35:28Z</time></trkpt>
<trkpt lat="42.256530" lon="3.207885"><ele></ele><time>2014-4-9T0:35:31Z</time></trkpt>
<trkpt lat="42.256615" lon="3.207840"><ele></ele><time>2014-4-9T0:35:34Z</time></trkpt>
<trkpt lat="42.256702" lon="3.207803"><ele></ele><time>2014-4-9T0:35:37Z</time></trkpt>
<trkpt lat="42.256798" lon="3.207777"><ele></ele><time>2014-4-9T0:35:40Z</time></trkpt>
<trkpt lat="42.256897" lon="3.207770"><ele></ele><time>2014-4-9T0:35:43Z</time></trkpt>
<trkpt lat="42.256997" lon="3.207773"><ele></ele><time>2014-4-9T0:35:46Z</time></trkpt>
<trkpt lat="42.257092" lon="3.207800"><ele></ele><time>2014-4-9T0:35:49Z</time></trkpt>
<trkpt lat="42.257187" lon="3.207828"><ele></ele><time>2014-4-9T0:35:52Z</time></trkpt>
<trkpt lat="42.257275" lon="3.207868"><ele></ele><time>2014-4-9T0:35:55Z</time></trkpt>
<trkpt lat="42.257362" lon="3.207910"><ele></ele><time>2014-4-9T0:35:58Z</time></trkpt>
<trkpt lat="42.257450" lon="3.207958"><ele></ele><time>2014-4-9T0:36:1Z</time></trkpt>
<trkpt lat="42.257538" lon="3.208003"><ele></ele><time>2014-4-9T0:36:4Z</time></trkpt>
<trkpt lat="42.257633" lon="3.208038"><ele></ele><time>2014-4-9T0:36:7Z</time></trkpt>
<trkpt lat="42.257722" lon="3.208068"><ele></ele><time>2014-4-9T0:36:10Z</time></trkpt>
<trkpt lat="42.257813" lon="3.208085"><ele></ele><time>2014-4-9T0:36:13Z</time></trkpt>
<trkpt lat="42.257908" lon="3.208093"><ele></ele><time>2014-4-9T0:36:16Z</time></trkpt>
<trkpt lat="42.258003" lon="3.208102"><ele></ele><time>2014-4-9T0:36:19Z</time></trkpt>
<trkpt lat="42.258098" lon="3.208090"><ele></ele><time>2014-4-9T0:36:22Z</time></trkpt>
<trkpt lat="42.258193" lon="3.208075"><ele></ele><time>2014-4-9T0:36:25Z</time></trkpt>
<trkpt lat="42.258290" lon="3.208063"><ele></ele><time>2014-4-9T0:36:28Z</time></trkpt>
<trkpt lat="42.258377" lon="3.208037"><ele></ele><time>2014-4-9T0:36:31Z</time></trkpt>
<trkpt lat="42.258462" lon="3.208003"><ele></ele><time>2014-4-9T0:36:34Z</time></trkpt>
<trkpt lat="42.258548" lon="3.207957"><ele></ele><time>2014-4-9T0:36:37Z</time></trkpt>
<trkpt lat="42.258625" lon="3.207900"><ele></ele><time>2014-4-9T0:36:40Z</time></trkpt>
<trkpt lat="42.258705" lon="3.207838"><ele></ele><time>2014-4-9T0:36:43Z</time></trkpt>
<trkpt lat="42.258778" lon="3.207768"><ele></ele><time>2014-4-9T0:36:46Z</time></trkpt>
<trkpt lat="42.258853" lon="3.207712"><ele></ele><time>2014-4-9T0:36:49Z</time></trkpt>
<trkpt lat="42.258927" lon="3.207648"><ele></ele><time>2014-4-9T0:36:52Z</time></trkpt>
<trkpt lat="42.259018" lon="3.207580"><ele></ele><time>2014-4-9T0:36:55Z</time></trkpt>
<trkpt lat="42.259095" lon="3.207513"><ele></ele><time>2014-4-9T0:36:58Z</time></trkpt>
<trkpt lat="42.259175" lon="3.207453"><ele></ele><time>2014-4-9T0:37:1Z</time></trkpt>
<trkpt lat="42.259250" lon="3.207392"><ele></ele><time>2014-4-9T0:37:4Z</time></trkpt>
<trkpt lat="42.259330" lon="3.207332"><ele></ele><time>2014-4-9T0:37:7Z</time></trkpt>
<trkpt lat="42.259412" lon="3.207283"><ele></ele><time>2014-4-9T0:37:10Z</time></trkpt>
<trkpt lat="42.259495" lon="3.207240"><ele></ele><time>2014-4-9T0:37:13Z</time></trkpt>
<trkpt lat="42.259587" lon="3.207210"><ele></ele><time>2014-4-9T0:37:16Z</time></trkpt>
<trkpt lat="42.259673" lon="3.207193"><ele></ele><time>2014-4-9T0:37:19Z</time></trkpt>
<trkpt lat="42.259765" lon="3.207172"><ele></ele><time>2014-4-9T0:37:22Z</time></trkpt>
<trkpt lat="42.259872" lon="3.207155"><ele></ele><time>2014-4-9T0:37:25Z</time></trkpt>
<trkpt lat="42.259963" lon="3.207150"><ele></ele><time>2014-4-9T0:37:28Z</time></trkpt>
<trkpt lat="42.260060" lon="3.207148"><ele></ele><time>2014-4-9T0:37:31Z</time></trkpt>
<trkpt lat="42.260152" lon="3.207153"><ele></ele><time>2014-4-9T0:37:34Z</time></trkpt>
<trkpt lat="42.260238" lon="3.207158"><ele></ele><time>2014-4-9T0:37:37Z</time></trkpt>
<trkpt lat="42.260327" lon="3.207167"><ele></ele><time>2014-4-9T0:37:40Z</time></trkpt>
<trkpt lat="42.260418" lon="3.207178"><ele></ele><time>2014-4-9T0:37:43Z</time></trkpt>
<trkpt lat="42.260510" lon="3.207200"><ele></ele><time>2014-4-9T0:37:46Z</time></trkpt>
<trkpt lat="42.260602" lon="3.207228"><ele></ele><time>2014-4-9T0:37:49Z</time></trkpt>
<trkpt lat="42.260697" lon="3.207262"><ele></ele><time>2014-4-9T0:37:52Z</time></trkpt>
<trkpt lat="42.260792" lon="3.207277"><ele></ele><time>2014-4-9T0:37:55Z</time></trkpt>
<trkpt lat="42.260887" lon="3.207272"><ele></ele><time>2014-4-9T0:37:58Z</time></trkpt>
<trkpt lat="42.260993" lon="3.207240"><ele></ele><time>2014-4-9T0:38:1Z</time></trkpt>
<trkpt lat="42.261082" lon="3.207198"><ele></ele><time>2014-4-9T0:38:4Z</time></trkpt>
<trkpt lat="42.261165" lon="3.207147"><ele></ele><time>2014-4-9T0:38:7Z</time></trkpt>
<trkpt lat="42.261245" lon="3.207093"><ele></ele><time>2014-4-9T0:38:10Z</time></trkpt>
<trkpt lat="42.261322" lon="3.207038"><ele></ele><time>2014-4-9T0:38:13Z</time></trkpt>
<trkpt lat="42.261398" lon="3.206980"><ele></ele><time>2014-4-9T0:38:16Z</time></trkpt>
<trkpt lat="42.261470" lon="3.206918"><ele></ele><time>2014-4-9T0:38:19Z</time></trkpt>
<trkpt lat="42.261543" lon="3.206858"><ele></ele><time>2014-4-9T0:38:22Z</time></trkpt>
<trkpt lat="42.261620" lon="3.206807"><ele></ele><time>2014-4-9T0:38:25Z</time></trkpt>
<trkpt lat="42.261697" lon="3.206760"><ele></ele><time>2014-4-9T0:38:28Z</time></trkpt>
<trkpt lat="42.261780" lon="3.206723"><ele></ele><time>2014-4-9T0:38:31Z</time></trkpt>
<trkpt lat="42.261872" lon="3.206702"><ele></ele><time>2014-4-9T0:38:34Z</time></trkpt>
<trkpt lat="42.261958" lon="3.206697"><ele></ele><time>2014-4-9T0:38:37Z</time></trkpt>
<trkpt lat="42.262050" lon="3.206718"><ele></ele><time>2014-4-9T0:38:40Z</time></trkpt>
<trkpt lat="42.262138" lon="3.206753"><ele></ele><time>2014-4-9T0:38:43Z</time></trkpt>
<trkpt lat="42.262233" lon="3.206780"><ele></ele><time>2014-4-9T0:38:46Z</time></trkpt>
<trkpt lat="42.262322" lon="3.206807"><ele></ele><time>2014-4-9T0:38:49Z</time></trkpt>
<trkpt lat="42.262405" lon="3.206830"><ele></ele><time>2014-4-9T0:38:52Z</time></trkpt>
<trkpt lat="42.262490" lon="3.206863"><ele></ele><time>2014-4-9T0:38:55Z</time></trkpt>
<trkpt lat="42.262573" lon="3.206912"><ele></ele><time>2014-4-9T0:38:58Z</time></trkpt>
<trkpt lat="42.262635" lon="3.207013"><ele></ele><time>2014-4-9T0:39:1Z</time></trkpt>
<trkpt lat="42.262677" lon="3.207137"><ele></ele><time>2014-4-9T0:39:4Z</time></trkpt>
<trkpt lat="42.262703" lon="3.207273"><ele></ele><time>2014-4-9T0:39:7Z</time></trkpt>
<trkpt lat="42.262733" lon="3.207412"><ele></ele><time>2014-4-9T0:39:10Z</time></trkpt>
<trkpt lat="42.262748" lon="3.207543"><ele></ele><time>2014-4-9T0:39:13Z</time></trkpt>
<trkpt lat="42.262780" lon="3.207670"><ele></ele><time>2014-4-9T0:39:16Z</time></trkpt>
<trkpt lat="42.262822" lon="3.207818"><ele></ele><time>2014-4-9T0:39:19Z</time></trkpt>
<trkpt lat="42.262852" lon="3.207947"><ele></ele><time>2014-4-9T0:39:22Z</time></trkpt>
<trkpt lat="42.262890" lon="3.208070"><ele></ele><time>2014-4-9T0:39:25Z</time></trkpt>
<trkpt lat="42.262932" lon="3.208190"><ele></ele><time>2014-4-9T0:39:28Z</time></trkpt>
<trkpt lat="42.262993" lon="3.208298"><ele></ele><time>2014-4-9T0:39:31Z</time></trkpt>
<trkpt lat="42.263058" lon="3.208400"><ele></ele><time>2014-4-9T0:39:34Z</time></trkpt>
<trkpt lat="42.263142" lon="3.208473"><ele></ele><time>2014-4-9T0:39:37Z</time></trkpt>
<trkpt lat="42.263222" lon="3.208520"><ele></ele><time>2014-4-9T0:39:40Z</time></trkpt>
<trkpt lat="42.263313" lon="3.208543"><ele></ele><time>2014-4-9T0:39:43Z</time></trkpt>
<trkpt lat="42.263412" lon="3.208538"><ele></ele><time>2014-4-9T0:39:46Z</time></trkpt>
<trkpt lat="42.263508" lon="3.208503"><ele></ele><time>2014-4-9T0:39:49Z</time></trkpt>
<trkpt lat="42.263588" lon="3.208450"><ele></ele><time>2014-4-9T0:39:52Z</time></trkpt>
<trkpt lat="42.263672" lon="3.208388"><ele></ele><time>2014-4-9T0:39:55Z</time></trkpt>
<trkpt lat="42.263745" lon="3.208322"><ele></ele><time>2014-4-9T0:39:58Z</time></trkpt>
<trkpt lat="42.263828" lon="3.208250"><ele></ele><time>2014-4-9T0:40:1Z</time></trkpt>
<trkpt lat="42.263927" lon="3.208210"><ele></ele><time>2014-4-9T0:40:4Z</time></trkpt>
<trkpt lat="42.264030" lon="3.208173"><ele></ele><time>2014-4-9T0:40:7Z</time></trkpt>
<trkpt lat="42.264133" lon="3.208148"><ele></ele><time>2014-4-9T0:40:10Z</time></trkpt>
<trkpt lat="42.264225" lon="3.208152"><ele></ele><time>2014-4-9T0:40:13Z</time></trkpt>
<trkpt lat="42.264305" lon="3.208217"><ele></ele><time>2014-4-9T0:40:16Z</time></trkpt>
<trkpt lat="42.264347" lon="3.208337"><ele></ele><time>2014-4-9T0:40:19Z</time></trkpt>
<trkpt lat="42.264355" lon="3.208475"><ele></ele><time>2014-4-9T0:40:22Z</time></trkpt>
<trkpt lat="42.264355" lon="3.208608"><ele></ele><time>2014-4-9T0:40:25Z</time></trkpt>
<trkpt lat="42.264332" lon="3.208750"><ele></ele><time>2014-4-9T0:40:28Z</time></trkpt>
<trkpt lat="42.264335" lon="3.208920"><ele></ele><time>2014-4-9T0:40:31Z</time></trkpt>
<trkpt lat="42.264355" lon="3.209088"><ele></ele><time>2014-4-9T0:40:34Z</time></trkpt>
<trkpt lat="42.264352" lon="3.209270"><ele></ele><time>2014-4-9T0:40:37Z</time></trkpt>
<trkpt lat="42.264355" lon="3.209458"><ele></ele><time>2014-4-9T0:40:40Z</time></trkpt>
<trkpt lat="42.264358" lon="3.209668"><ele></ele><time>2014-4-9T0:40:43Z</time></trkpt>
<trkpt lat="42.264332" lon="3.209930"><ele></ele><time>2014-4-9T0:40:46Z</time></trkpt>
<trkpt lat="42.264305" lon="3.210237"><ele></ele><time>2014-4-9T0:40:49Z</time></trkpt>
<trkpt lat="42.264222" lon="3.210482"><ele></ele><time>2014-4-9T0:40:52Z</time></trkpt>
<trkpt lat="42.264133" lon="3.210678"><ele></ele><time>2014-4-9T0:40:55Z</time></trkpt>
<trkpt lat="42.264103" lon="3.210918"><ele></ele><time>2014-4-9T0:40:58Z</time></trkpt>
<trkpt lat="42.264110" lon="3.211170"><ele></ele><time>2014-4-9T0:41:1Z</time></trkpt>
<trkpt lat="42.264118" lon="3.211417"><ele></ele><time>2014-4-9T0:41:4Z</time></trkpt>
<trkpt lat="42.264130" lon="3.211705"><ele></ele><time>2014-4-9T0:41:7Z</time></trkpt>
<trkpt lat="42.264137" lon="3.212000"><ele></ele><time>2014-4-9T0:41:10Z</time></trkpt>
<trkpt lat="42.264133" lon="3.212257"><ele></ele><time>2014-4-9T0:41:13Z</time></trkpt>
<trkpt lat="42.264148" lon="3.212488"><ele></ele><time>2014-4-9T0:41:16Z</time></trkpt>
<trkpt lat="42.264190" lon="3.212642"><ele></ele><time>2014-4-9T0:41:19Z</time></trkpt>
<trkpt lat="42.264228" lon="3.212753"><ele></ele><time>2014-4-9T0:41:22Z</time></trkpt>
<trkpt lat="42.264270" lon="3.212855"><ele></ele><time>2014-4-9T0:41:25Z</time></trkpt>
<trkpt lat="42.264320" lon="3.212948"><ele></ele><time>2014-4-9T0:41:28Z</time></trkpt>
<trkpt lat="42.264362" lon="3.213037"><ele></ele><time>2014-4-9T0:41:31Z</time></trkpt>
<trkpt lat="42.264415" lon="3.213115"><ele></ele><time>2014-4-9T0:41:34Z</time></trkpt>
<trkpt lat="42.264473" lon="3.213195"><ele></ele><time>2014-4-9T0:41:37Z</time></trkpt>
<trkpt lat="42.264527" lon="3.213272"><ele></ele><time>2014-4-9T0:41:40Z</time></trkpt>
<trkpt lat="42.264587" lon="3.213345"><ele></ele><time>2014-4-9T0:41:43Z</time></trkpt>
<trkpt lat="42.264645" lon="3.213413"><ele></ele><time>2014-4-9T0:41:46Z</time></trkpt>
<trkpt lat="42.264705" lon="3.213485"><ele></ele><time>2014-4-9T0:41:49Z</time></trkpt>
<trkpt lat="42.264763" lon="3.213552"><ele></ele><time>2014-4-9T0:41:52Z</time></trkpt>
<trkpt lat="42.264823" lon="3.213613"><ele></ele><time>2014-4-9T0:41:55Z</time></trkpt>
<trkpt lat="42.264888" lon="3.213668"><ele></ele><time>2014-4-9T0:41:58Z</time></trkpt>
<trkpt lat="42.264950" lon="3.213728"><ele></ele><time>2014-4-9T0:42:1Z</time></trkpt>
<trkpt lat="42.265015" lon="3.213785"><ele></ele><time>2014-4-9T0:42:4Z</time></trkpt>
<trkpt lat="42.265080" lon="3.213842"><ele></ele><time>2014-4-9T0:42:7Z</time></trkpt>
<trkpt lat="42.265140" lon="3.213898"><ele></ele><time>2014-4-9T0:42:10Z</time></trkpt>
<trkpt lat="42.265210" lon="3.213962"><ele></ele><time>2014-4-9T0:42:13Z</time></trkpt>
<trkpt lat="42.265273" lon="3.214023"><ele></ele><time>2014-4-9T0:42:16Z</time></trkpt>
<trkpt lat="42.265332" lon="3.214085"><ele></ele><time>2014-4-9T0:42:19Z</time></trkpt>
<trkpt lat="42.265392" lon="3.214143"><ele></ele><time>2014-4-9T0:42:22Z</time></trkpt>
<trkpt lat="42.265453" lon="3.214205"><ele></ele><time>2014-4-9T0:42:25Z</time></trkpt>
<trkpt lat="42.265518" lon="3.214262"><ele></ele><time>2014-4-9T0:42:28Z</time></trkpt>
<trkpt lat="42.265583" lon="3.214315"><ele></ele><time>2014-4-9T0:42:31Z</time></trkpt>
<trkpt lat="42.265652" lon="3.214360"><ele></ele><time>2014-4-9T0:42:34Z</time></trkpt>
<trkpt lat="42.265728" lon="3.214398"><ele></ele><time>2014-4-9T0:42:37Z</time></trkpt>
<trkpt lat="42.265797" lon="3.214420"><ele></ele><time>2014-4-9T0:42:40Z</time></trkpt>
<trkpt lat="42.265877" lon="3.214407"><ele></ele><time>2014-4-9T0:42:43Z</time></trkpt>
<trkpt lat="42.265953" lon="3.214367"><ele></ele><time>2014-4-9T0:42:46Z</time></trkpt>
<trkpt lat="42.266022" lon="3.214310"><ele></ele><time>2014-4-9T0:42:49Z</time></trkpt>
<trkpt lat="42.266078" lon="3.214240"><ele></ele><time>2014-4-9T0:42:52Z</time></trkpt>
<trkpt lat="42.266137" lon="3.214167"><ele></ele><time>2014-4-9T0:42:55Z</time></trkpt>
<trkpt lat="42.266193" lon="3.214092"><ele></ele><time>2014-4-9T0:42:58Z</time></trkpt>
<trkpt lat="42.266247" lon="3.214020"><ele></ele><time>2014-4-9T0:43:1Z</time></trkpt>
<trkpt lat="42.266293" lon="3.213937"><ele></ele><time>2014-4-9T0:43:4Z</time></trkpt>
<trkpt lat="42.266342" lon="3.213852"><ele></ele><time>2014-4-9T0:43:7Z</time></trkpt>
<trkpt lat="42.266388" lon="3.213767"><ele></ele><time>2014-4-9T0:43:10Z</time></trkpt>
<trkpt lat="42.266445" lon="3.213698"><ele></ele><time>2014-4-9T0:43:13Z</time></trkpt>
<trkpt lat="42.266518" lon="3.213667"><ele></ele><time>2014-4-9T0:43:16Z</time></trkpt>
<trkpt lat="42.266602" lon="3.213695"><ele></ele><time>2014-4-9T0:43:19Z</time></trkpt>
<trkpt lat="42.266673" lon="3.213758"><ele></ele><time>2014-4-9T0:43:22Z</time></trkpt>
<trkpt lat="42.266735" lon="3.213825"><ele></ele><time>2014-4-9T0:43:25Z</time></trkpt>
<trkpt lat="42.266803" lon="3.213892"><ele></ele><time>2014-4-9T0:43:28Z</time></trkpt>
<trkpt lat="42.266872" lon="3.213955"><ele></ele><time>2014-4-9T0:43:31Z</time></trkpt>
<trkpt lat="42.266937" lon="3.214015"><ele></ele><time>2014-4-9T0:43:34Z</time></trkpt>
<trkpt lat="42.267002" lon="3.214077"><ele></ele><time>2014-4-9T0:43:37Z</time></trkpt>
<trkpt lat="42.267070" lon="3.214140"><ele></ele><time>2014-4-9T0:43:40Z</time></trkpt>
<trkpt lat="42.267132" lon="3.214205"><ele></ele><time>2014-4-9T0:43:43Z</time></trkpt>
<trkpt lat="42.267188" lon="3.214265"><ele></ele><time>2014-4-9T0:43:46Z</time></trkpt>
<trkpt lat="42.267250" lon="3.214333"><ele></ele><time>2014-4-9T0:43:49Z</time></trkpt>
<trkpt lat="42.267300" lon="3.214405"><ele></ele><time>2014-4-9T0:43:52Z</time></trkpt>
<trkpt lat="42.267357" lon="3.214483"><ele></ele><time>2014-4-9T0:43:55Z</time></trkpt>
<trkpt lat="42.267410" lon="3.214555"><ele></ele><time>2014-4-9T0:43:58Z</time></trkpt>
<trkpt lat="42.267463" lon="3.214623"><ele></ele><time>2014-4-9T0:44:1Z</time></trkpt>
<trkpt lat="42.267525" lon="3.214697"><ele></ele><time>2014-4-9T0:44:4Z</time></trkpt>
<trkpt lat="42.267585" lon="3.214773"><ele></ele><time>2014-4-9T0:44:7Z</time></trkpt>
<trkpt lat="42.267647" lon="3.214855"><ele></ele><time>2014-4-9T0:44:10Z</time></trkpt>
<trkpt lat="42.267703" lon="3.214937"><ele></ele><time>2014-4-9T0:44:13Z</time></trkpt>
<trkpt lat="42.267753" lon="3.215022"><ele></ele><time>2014-4-9T0:44:16Z</time></trkpt>
<trkpt lat="42.267795" lon="3.215113"><ele></ele><time>2014-4-9T0:44:19Z</time></trkpt>
<trkpt lat="42.267827" lon="3.215213"><ele></ele><time>2014-4-9T0:44:22Z</time></trkpt>
<trkpt lat="42.267868" lon="3.215303"><ele></ele><time>2014-4-9T0:44:25Z</time></trkpt>
<trkpt lat="42.267928" lon="3.215373"><ele></ele><time>2014-4-9T0:44:28Z</time></trkpt>
<trkpt lat="42.268002" lon="3.215425"><ele></ele><time>2014-4-9T0:44:31Z</time></trkpt>
<trkpt lat="42.268078" lon="3.215467"><ele></ele><time>2014-4-9T0:44:34Z</time></trkpt>
<trkpt lat="42.268165" lon="3.215485"><ele></ele><time>2014-4-9T0:44:37Z</time></trkpt>
<trkpt lat="42.268250" lon="3.215498"><ele></ele><time>2014-4-9T0:44:40Z</time></trkpt>
<trkpt lat="42.268333" lon="3.215510"><ele></ele><time>2014-4-9T0:44:43Z</time></trkpt>
<trkpt lat="42.268413" lon="3.215522"><ele></ele><time>2014-4-9T0:44:46Z</time></trkpt>
<trkpt lat="42.268497" lon="3.215543"><ele></ele><time>2014-4-9T0:44:49Z</time></trkpt>
<trkpt lat="42.268573" lon="3.215568"><ele></ele><time>2014-4-9T0:44:52Z</time></trkpt>
<trkpt lat="42.268658" lon="3.215588"><ele></ele><time>2014-4-9T0:44:55Z</time></trkpt>
<trkpt lat="42.268738" lon="3.215612"><ele></ele><time>2014-4-9T0:44:58Z</time></trkpt>
<trkpt lat="42.268818" lon="3.215655"><ele></ele><time>2014-4-9T0:45:1Z</time></trkpt>
<trkpt lat="42.268895" lon="3.215717"><ele></ele><time>2014-4-9T0:45:4Z</time></trkpt>
<trkpt lat="42.268958" lon="3.215803"><ele></ele><time>2014-4-9T0:45:7Z</time></trkpt>
<trkpt lat="42.269020" lon="3.215902"><ele></ele><time>2014-4-9T0:45:10Z</time></trkpt>
<trkpt lat="42.269067" lon="3.216012"><ele></ele><time>2014-4-9T0:45:13Z</time></trkpt>
<trkpt lat="42.269120" lon="3.216120"><ele></ele><time>2014-4-9T0:45:16Z</time></trkpt>
<trkpt lat="42.269165" lon="3.216223"><ele></ele><time>2014-4-9T0:45:19Z</time></trkpt>
<trkpt lat="42.269215" lon="3.216322"><ele></ele><time>2014-4-9T0:45:22Z</time></trkpt>
<trkpt lat="42.269260" lon="3.216415"><ele></ele><time>2014-4-9T0:45:25Z</time></trkpt>
<trkpt lat="42.269307" lon="3.216512"><ele></ele><time>2014-4-9T0:45:28Z</time></trkpt>
<trkpt lat="42.269352" lon="3.216605"><ele></ele><time>2014-4-9T0:45:31Z</time></trkpt>
<trkpt lat="42.269398" lon="3.216697"><ele></ele><time>2014-4-9T0:45:34Z</time></trkpt>
<trkpt lat="42.269447" lon="3.216788"><ele></ele><time>2014-4-9T0:45:37Z</time></trkpt>
<trkpt lat="42.269497" lon="3.216873"><ele></ele><time>2014-4-9T0:45:40Z</time></trkpt>
<trkpt lat="42.269538" lon="3.216963"><ele></ele><time>2014-4-9T0:45:43Z</time></trkpt>
<trkpt lat="42.269582" lon="3.217060"><ele></ele><time>2014-4-9T0:45:46Z</time></trkpt>
<trkpt lat="42.269623" lon="3.217157"><ele></ele><time>2014-4-9T0:45:49Z</time></trkpt>
<trkpt lat="42.269657" lon="3.217250"><ele></ele><time>2014-4-9T0:45:52Z</time></trkpt>
<trkpt lat="42.269683" lon="3.217352"><ele></ele><time>2014-4-9T0:45:55Z</time></trkpt>
<trkpt lat="42.269710" lon="3.217453"><ele></ele><time>2014-4-9T0:45:58Z</time></trkpt>
<trkpt lat="42.269730" lon="3.217557"><ele></ele><time>2014-4-9T0:46:1Z</time></trkpt>
<trkpt lat="42.269745" lon="3.217660"><ele></ele><time>2014-4-9T0:46:4Z</time></trkpt>
<trkpt lat="42.269768" lon="3.217765"><ele></ele><time>2014-4-9T0:46:7Z</time></trkpt>
<trkpt lat="42.269787" lon="3.217867"><ele></ele><time>2014-4-9T0:46:10Z</time></trkpt>
<trkpt lat="42.269807" lon="3.217968"><ele></ele><time>2014-4-9T0:46:13Z</time></trkpt>
<trkpt lat="42.269828" lon="3.218082"><ele></ele><time>2014-4-9T0:46:16Z</time></trkpt>
<trkpt lat="42.269848" lon="3.218193"><ele></ele><time>2014-4-9T0:46:19Z</time></trkpt>
<trkpt lat="42.269863" lon="3.218307"><ele></ele><time>2014-4-9T0:46:22Z</time></trkpt>
<trkpt lat="42.269875" lon="3.218415"><ele></ele><time>2014-4-9T0:46:25Z</time></trkpt>
<trkpt lat="42.269875" lon="3.218530"><ele></ele><time>2014-4-9T0:46:28Z</time></trkpt>
<trkpt lat="42.269882" lon="3.218645"><ele></ele><time>2014-4-9T0:46:31Z</time></trkpt>
<trkpt lat="42.269902" lon="3.218758"><ele></ele><time>2014-4-9T0:46:34Z</time></trkpt>
<trkpt lat="42.269913" lon="3.218873"><ele></ele><time>2014-4-9T0:46:37Z</time></trkpt>
<trkpt lat="42.269932" lon="3.218988"><ele></ele><time>2014-4-9T0:46:40Z</time></trkpt>
<trkpt lat="42.269962" lon="3.219108"><ele></ele><time>2014-4-9T0:46:43Z</time></trkpt>
<trkpt lat="42.270015" lon="3.219205"><ele></ele><time>2014-4-9T0:46:46Z</time></trkpt>
<trkpt lat="42.270085" lon="3.219273"><ele></ele><time>2014-4-9T0:46:49Z</time></trkpt>
<trkpt lat="42.270165" lon="3.219317"><ele></ele><time>2014-4-9T0:46:52Z</time></trkpt>
<trkpt lat="42.270240" lon="3.219348"><ele></ele><time>2014-4-9T0:46:55Z</time></trkpt>
<trkpt lat="42.270325" lon="3.219363"><ele></ele><time>2014-4-9T0:46:58Z</time></trkpt>
<trkpt lat="42.270408" lon="3.219373"><ele></ele><time>2014-4-9T0:47:1Z</time></trkpt>
<trkpt lat="42.270493" lon="3.219360"><ele></ele><time>2014-4-9T0:47:4Z</time></trkpt>
<trkpt lat="42.270573" lon="3.219333"><ele></ele><time>2014-4-9T0:47:7Z</time></trkpt>
<trkpt lat="42.270657" lon="3.219297"><ele></ele><time>2014-4-9T0:47:10Z</time></trkpt>
<trkpt lat="42.270740" lon="3.219258"><ele></ele><time>2014-4-9T0:47:13Z</time></trkpt>
<trkpt lat="42.270820" lon="3.219213"><ele></ele><time>2014-4-9T0:47:16Z</time></trkpt>
<trkpt lat="42.270905" lon="3.219160"><ele></ele><time>2014-4-9T0:47:19Z</time></trkpt>
<trkpt lat="42.270977" lon="3.219098"><ele></ele><time>2014-4-9T0:47:22Z</time></trkpt>
<trkpt lat="42.271045" lon="3.219033"><ele></ele><time>2014-4-9T0:47:25Z</time></trkpt>
<trkpt lat="42.271122" lon="3.218963"><ele></ele><time>2014-4-9T0:47:28Z</time></trkpt>
<trkpt lat="42.271198" lon="3.218892"><ele></ele><time>2014-4-9T0:47:31Z</time></trkpt>
<trkpt lat="42.271275" lon="3.218815"><ele></ele><time>2014-4-9T0:47:34Z</time></trkpt>
<trkpt lat="42.271352" lon="3.218740"><ele></ele><time>2014-4-9T0:47:37Z</time></trkpt>
<trkpt lat="42.271432" lon="3.218665"><ele></ele><time>2014-4-9T0:47:40Z</time></trkpt>
<trkpt lat="42.271503" lon="3.218590"><ele></ele><time>2014-4-9T0:47:43Z</time></trkpt>
<trkpt lat="42.271587" lon="3.218515"><ele></ele><time>2014-4-9T0:47:46Z</time></trkpt>
<trkpt lat="42.271667" lon="3.218442"><ele></ele><time>2014-4-9T0:47:49Z</time></trkpt>
<trkpt lat="42.271748" lon="3.218362"><ele></ele><time>2014-4-9T0:47:52Z</time></trkpt>
<trkpt lat="42.271835" lon="3.218272"><ele></ele><time>2014-4-9T0:47:55Z</time></trkpt>
<trkpt lat="42.271920" lon="3.218193"><ele></ele><time>2014-4-9T0:47:58Z</time></trkpt>
<trkpt lat="42.271995" lon="3.218110"><ele></ele><time>2014-4-9T0:48:1Z</time></trkpt>
<trkpt lat="42.272068" lon="3.218018"><ele></ele><time>2014-4-9T0:48:4Z</time></trkpt>
<trkpt lat="42.272152" lon="3.217943"><ele></ele><time>2014-4-9T0:48:7Z</time></trkpt>
<trkpt lat="42.272225" lon="3.217877"><ele></ele><time>2014-4-9T0:48:10Z</time></trkpt>
<trkpt lat="42.272308" lon="3.217822"><ele></ele><time>2014-4-9T0:48:13Z</time></trkpt>
<trkpt lat="42.272400" lon="3.217820"><ele></ele><time>2014-4-9T0:48:16Z</time></trkpt>
<trkpt lat="42.272492" lon="3.217838"><ele></ele><time>2014-4-9T0:48:19Z</time></trkpt>
<trkpt lat="42.272587" lon="3.217898"><ele></ele><time>2014-4-9T0:48:22Z</time></trkpt>
<trkpt lat="42.272690" lon="3.217977"><ele></ele><time>2014-4-9T0:48:25Z</time></trkpt>
<trkpt lat="42.272785" lon="3.218048"><ele></ele><time>2014-4-9T0:48:28Z</time></trkpt>
<trkpt lat="42.272885" lon="3.218115"><ele></ele><time>2014-4-9T0:48:31Z</time></trkpt>
<trkpt lat="42.272977" lon="3.218178"><ele></ele><time>2014-4-9T0:48:34Z</time></trkpt>
<trkpt lat="42.273045" lon="3.218262"><ele></ele><time>2014-4-9T0:48:37Z</time></trkpt>
<trkpt lat="42.273117" lon="3.218355"><ele></ele><time>2014-4-9T0:48:40Z</time></trkpt>
<trkpt lat="42.273178" lon="3.218453"><ele></ele><time>2014-4-9T0:48:43Z</time></trkpt>
<trkpt lat="42.273232" lon="3.218552"><ele></ele><time>2014-4-9T0:48:46Z</time></trkpt>
<trkpt lat="42.273285" lon="3.218660"><ele></ele><time>2014-4-9T0:48:49Z</time></trkpt>
<trkpt lat="42.273327" lon="3.218772"><ele></ele><time>2014-4-9T0:48:52Z</time></trkpt>
<trkpt lat="42.273362" lon="3.218877"><ele></ele><time>2014-4-9T0:48:55Z</time></trkpt>
<trkpt lat="42.273388" lon="3.218990"><ele></ele><time>2014-4-9T0:48:58Z</time></trkpt>
<trkpt lat="42.273407" lon="3.219103"><ele></ele><time>2014-4-9T0:49:1Z</time></trkpt>
<trkpt lat="42.273430" lon="3.219210"><ele></ele><time>2014-4-9T0:49:4Z</time></trkpt>
<trkpt lat="42.273445" lon="3.219317"><ele></ele><time>2014-4-9T0:49:7Z</time></trkpt>
<trkpt lat="42.273453" lon="3.219422"><ele></ele><time>2014-4-9T0:49:10Z</time></trkpt>
<trkpt lat="42.273457" lon="3.219527"><ele></ele><time>2014-4-9T0:49:13Z</time></trkpt>
<trkpt lat="42.273460" lon="3.219635"><ele></ele><time>2014-4-9T0:49:16Z</time></trkpt>
<trkpt lat="42.273453" lon="3.219745"><ele></ele><time>2014-4-9T0:49:19Z</time></trkpt>
<trkpt lat="42.273438" lon="3.219853"><ele></ele><time>2014-4-9T0:49:22Z</time></trkpt>
<trkpt lat="42.273422" lon="3.219963"><ele></ele><time>2014-4-9T0:49:25Z</time></trkpt>
<trkpt lat="42.273395" lon="3.220065"><ele></ele><time>2014-4-9T0:49:28Z</time></trkpt>
<trkpt lat="42.273368" lon="3.220180"><ele></ele><time>2014-4-9T0:49:31Z</time></trkpt>
<trkpt lat="42.273335" lon="3.220285"><ele></ele><time>2014-4-9T0:49:34Z</time></trkpt>
<trkpt lat="42.273285" lon="3.220380"><ele></ele><time>2014-4-9T0:49:37Z</time></trkpt>
<trkpt lat="42.273238" lon="3.220482"><ele></ele><time>2014-4-9T0:49:40Z</time></trkpt>
<trkpt lat="42.273185" lon="3.220577"><ele></ele><time>2014-4-9T0:49:43Z</time></trkpt>
<trkpt lat="42.273132" lon="3.220668"><ele></ele><time>2014-4-9T0:49:46Z</time></trkpt>
<trkpt lat="42.273075" lon="3.220762"><ele></ele><time>2014-4-9T0:49:49Z</time></trkpt>
<trkpt lat="42.273018" lon="3.220858"><ele></ele><time>2014-4-9T0:49:52Z</time></trkpt>
<trkpt lat="42.272957" lon="3.220963"><ele></ele><time>2014-4-9T0:49:55Z</time></trkpt>
<trkpt lat="42.272885" lon="3.221085"><ele></ele><time>2014-4-9T0:49:58Z</time></trkpt>
<trkpt lat="42.272815" lon="3.221215"><ele></ele><time>2014-4-9T0:50:1Z</time></trkpt>
<trkpt lat="42.272740" lon="3.221353"><ele></ele><time>2014-4-9T0:50:4Z</time></trkpt>
<trkpt lat="42.272663" lon="3.221492"><ele></ele><time>2014-4-9T0:50:7Z</time></trkpt>
<trkpt lat="42.272583" lon="3.221643"><ele></ele><time>2014-4-9T0:50:10Z</time></trkpt>
<trkpt lat="42.272498" lon="3.221767"><ele></ele><time>2014-4-9T0:50:13Z</time></trkpt>
<trkpt lat="42.272412" lon="3.221875"><ele></ele><time>2014-4-9T0:50:16Z</time></trkpt>
<trkpt lat="42.272320" lon="3.221975"><ele></ele><time>2014-4-9T0:50:19Z</time></trkpt>
<trkpt lat="42.272232" lon="3.222075"><ele></ele><time>2014-4-9T0:50:22Z</time></trkpt>
<trkpt lat="42.272148" lon="3.222177"><ele></ele><time>2014-4-9T0:50:25Z</time></trkpt>
<trkpt lat="42.272060" lon="3.222283"><ele></ele><time>2014-4-9T0:50:28Z</time></trkpt>
<trkpt lat="42.271980" lon="3.222415"><ele></ele><time>2014-4-9T0:50:31Z</time></trkpt>
<trkpt lat="42.271920" lon="3.222560"><ele></ele><time>2014-4-9T0:50:34Z</time></trkpt>
<trkpt lat="42.271873" lon="3.222722"><ele></ele><time>2014-4-9T0:50:37Z</time></trkpt>
<trkpt lat="42.271855" lon="3.222887"><ele></ele><time>2014-4-9T0:50:40Z</time></trkpt>
<trkpt lat="42.271820" lon="3.223035"><ele></ele><time>2014-4-9T0:50:43Z</time></trkpt>
<trkpt lat="42.271767" lon="3.223133"><ele></ele><time>2014-4-9T0:50:46Z</time></trkpt>
<trkpt lat="42.271755" lon="3.223217"><ele></ele><time>2014-4-9T0:50:49Z</time></trkpt>
<trkpt lat="42.271782" lon="3.223250"><ele></ele><time>2014-4-9T0:50:52Z</time></trkpt>
<trkpt lat="42.271785" lon="3.223257"><ele></ele><time>2014-4-9T0:50:55Z</time></trkpt>
<trkpt lat="42.271785" lon="3.223282"><ele></ele><time>2014-4-9T0:50:58Z</time></trkpt>
<trkpt lat="42.271743" lon="3.223313"><ele></ele><time>2014-4-9T0:51:1Z</time></trkpt>
<trkpt lat="42.271722" lon="3.223385"><ele></ele><time>2014-4-9T0:51:4Z</time></trkpt>
<trkpt lat="42.271663" lon="3.223407"><ele></ele><time>2014-4-9T0:51:7Z</time></trkpt>
<trkpt lat="42.271595" lon="3.223357"><ele></ele><time>2014-4-9T0:51:10Z</time></trkpt>
<trkpt lat="42.271545" lon="3.223278"><ele></ele><time>2014-4-9T0:51:13Z</time></trkpt>
<trkpt lat="42.271530" lon="3.223180"><ele></ele><time>2014-4-9T0:51:16Z</time></trkpt>
<trkpt lat="42.271523" lon="3.223075"><ele></ele><time>2014-4-9T0:51:19Z</time></trkpt>
<trkpt lat="42.271518" lon="3.222973"><ele></ele><time>2014-4-9T0:51:22Z</time></trkpt>
<trkpt lat="42.271527" lon="3.222872"><ele></ele><time>2014-4-9T0:51:25Z</time></trkpt>
<trkpt lat="42.271518" lon="3.222767"><ele></ele><time>2014-4-9T0:51:28Z</time></trkpt>
<trkpt lat="42.271512" lon="3.222658"><ele></ele><time>2014-4-9T0:51:31Z</time></trkpt>
<trkpt lat="42.271518" lon="3.222557"><ele></ele><time>2014-4-9T0:51:34Z</time></trkpt>
<trkpt lat="42.271560" lon="3.222468"><ele></ele><time>2014-4-9T0:51:37Z</time></trkpt>
<trkpt lat="42.271595" lon="3.222372"><ele></ele><time>2014-4-9T0:51:40Z</time></trkpt>
<trkpt lat="42.271625" lon="3.222275"><ele></ele><time>2014-4-9T0:51:43Z</time></trkpt>
<trkpt lat="42.271633" lon="3.222182"><ele></ele><time>2014-4-9T0:51:46Z</time></trkpt>
<trkpt lat="42.271630" lon="3.222092"><ele></ele><time>2014-4-9T0:51:49Z</time></trkpt>
<trkpt lat="42.271595" lon="3.222013"><ele></ele><time>2014-4-9T0:51:52Z</time></trkpt>
<trkpt lat="42.271572" lon="3.221932"><ele></ele><time>2014-4-9T0:51:55Z</time></trkpt>
<trkpt lat="42.271568" lon="3.221850"><ele></ele><time>2014-4-9T0:51:58Z</time></trkpt>
<trkpt lat="42.271560" lon="3.221768"><ele></ele><time>2014-4-9T0:52:1Z</time></trkpt>
<trkpt lat="42.271583" lon="3.221695"><ele></ele><time>2014-4-9T0:52:4Z</time></trkpt>
<trkpt lat="42.271618" lon="3.221628"><ele></ele><time>2014-4-9T0:52:7Z</time></trkpt>
<trkpt lat="42.271663" lon="3.221568"><ele></ele><time>2014-4-9T0:52:10Z</time></trkpt>
<trkpt lat="42.271698" lon="3.221495"><ele></ele><time>2014-4-9T0:52:13Z</time></trkpt>
<trkpt lat="42.271717" lon="3.221407"><ele></ele><time>2014-4-9T0:52:16Z</time></trkpt>
<trkpt lat="42.271740" lon="3.221312"><ele></ele><time>2014-4-9T0:52:19Z</time></trkpt>
<trkpt lat="42.271775" lon="3.221208"><ele></ele><time>2014-4-9T0:52:22Z</time></trkpt>
<trkpt lat="42.271828" lon="3.221120"><ele></ele><time>2014-4-9T0:52:25Z</time></trkpt>
<trkpt lat="42.271888" lon="3.221037"><ele></ele><time>2014-4-9T0:52:28Z</time></trkpt>
<trkpt lat="42.271957" lon="3.220950"><ele></ele><time>2014-4-9T0:52:31Z</time></trkpt>
<trkpt lat="42.272022" lon="3.220843"><ele></ele><time>2014-4-9T0:52:34Z</time></trkpt>
<trkpt lat="42.272098" lon="3.220662"><ele></ele><time>2014-4-9T0:52:37Z</time></trkpt>
<trkpt lat="42.272193" lon="3.220433"><ele></ele><time>2014-4-9T0:52:40Z</time></trkpt>
<trkpt lat="42.272273" lon="3.220307"><ele></ele><time>2014-4-9T0:52:43Z</time></trkpt>
<trkpt lat="42.272362" lon="3.220167"><ele></ele><time>2014-4-9T0:52:46Z</time></trkpt>
<trkpt lat="42.272442" lon="3.220025"><ele></ele><time>2014-4-9T0:52:49Z</time></trkpt>
<trkpt lat="42.272495" lon="3.219883"><ele></ele><time>2014-4-9T0:52:52Z</time></trkpt>
<trkpt lat="42.272533" lon="3.219780"><ele></ele><time>2014-4-9T0:52:55Z</time></trkpt>
<trkpt lat="42.272533" lon="3.219770"><ele></ele><time>2014-4-9T0:52:58Z</time></trkpt>
<trkpt lat="42.272533" lon="3.219773"><ele></ele><time>2014-4-9T0:53:1Z</time></trkpt>
<trkpt lat="42.272533" lon="3.219778"><ele></ele><time>2014-4-9T0:53:4Z</time></trkpt>
<trkpt lat="42.272530" lon="3.219780"><ele></ele><time>2014-4-9T0:53:7Z</time></trkpt>
<trkpt lat="42.272530" lon="3.219782"><ele></ele><time>2014-4-9T0:53:10Z</time></trkpt>
<trkpt lat="42.272530" lon="3.219783"><ele></ele><time>2014-4-9T0:53:13Z</time></trkpt>
<trkpt lat="42.272530" lon="3.219783"><ele></ele><time>2014-4-9T0:53:16Z</time></trkpt>
<trkpt lat="42.272530" lon="3.219785"><ele></ele><time>2014-4-9T0:53:19Z</time></trkpt>
<trkpt lat="42.272530" lon="3.219785"><ele></ele><time>2014-4-9T0:53:22Z</time></trkpt>
<trkpt lat="42.272530" lon="3.219787"><ele></ele><time>2014-4-9T0:53:25Z</time></trkpt>
<trkpt lat="42.272530" lon="3.219787"><ele></ele><time>2014-4-9T0:53:28Z</time></trkpt>
<trkpt lat="42.272530" lon="3.219785"><ele></ele><time>2014-4-9T0:53:31Z</time></trkpt>
<trkpt lat="42.272530" lon="3.219787"><ele></ele><time>2014-4-9T0:53:34Z</time></trkpt>
<trkpt lat="42.272530" lon="3.219787"><ele></ele><time>2014-4-9T0:53:37Z</time></trkpt>
<trkpt lat="42.272530" lon="3.219782"><ele></ele><time>2014-4-9T0:53:40Z</time></trkpt>
<trkpt lat="42.272515" lon="3.219817"><ele></ele><time>2014-4-9T0:53:43Z</time></trkpt>
<trkpt lat="42.272510" lon="3.219820"><ele></ele><time>2014-4-9T0:53:46Z</time></trkpt>
<trkpt lat="42.272480" lon="3.219902"><ele></ele><time>2014-4-9T0:53:49Z</time></trkpt>
<trkpt lat="42.272445" lon="3.220000"><ele></ele><time>2014-4-9T0:53:52Z</time></trkpt>
<trkpt lat="42.272385" lon="3.220090"><ele></ele><time>2014-4-9T0:53:55Z</time></trkpt>
<trkpt lat="42.272317" lon="3.220193"><ele></ele><time>2014-4-9T0:53:58Z</time></trkpt>
<trkpt lat="42.272252" lon="3.220298"><ele></ele><time>2014-4-9T0:54:1Z</time></trkpt>
<trkpt lat="42.272198" lon="3.220403"><ele></ele><time>2014-4-9T0:54:4Z</time></trkpt>
<trkpt lat="42.272152" lon="3.220502"><ele></ele><time>2014-4-9T0:54:7Z</time></trkpt>
<trkpt lat="42.272118" lon="3.220612"><ele></ele><time>2014-4-9T0:54:10Z</time></trkpt>
<trkpt lat="42.272068" lon="3.220712"><ele></ele><time>2014-4-9T0:54:13Z</time></trkpt>
<trkpt lat="42.272015" lon="3.220828"><ele></ele><time>2014-4-9T0:54:16Z</time></trkpt>
<trkpt lat="42.271953" lon="3.220952"><ele></ele><time>2014-4-9T0:54:19Z</time></trkpt>
<trkpt lat="42.271882" lon="3.221075"><ele></ele><time>2014-4-9T0:54:22Z</time></trkpt>
<trkpt lat="42.271805" lon="3.221202"><ele></ele><time>2014-4-9T0:54:25Z</time></trkpt>
<trkpt lat="42.271740" lon="3.221327"><ele></ele><time>2014-4-9T0:54:28Z</time></trkpt>
<trkpt lat="42.271687" lon="3.221495"><ele></ele><time>2014-4-9T0:54:31Z</time></trkpt>
<trkpt lat="42.271577" lon="3.221727"><ele></ele><time>2014-4-9T0:54:34Z</time></trkpt>
<trkpt lat="42.271583" lon="3.222015"><ele></ele><time>2014-4-9T0:54:37Z</time></trkpt>
<trkpt lat="42.271598" lon="3.222340"><ele></ele><time>2014-4-9T0:54:40Z</time></trkpt>
<trkpt lat="42.271507" lon="3.222672"><ele></ele><time>2014-4-9T0:54:43Z</time></trkpt>
<trkpt lat="42.271533" lon="3.223035"><ele></ele><time>2014-4-9T0:54:46Z</time></trkpt>
<trkpt lat="42.271572" lon="3.223378"><ele></ele><time>2014-4-9T0:54:49Z</time></trkpt>
<trkpt lat="42.271740" lon="3.223372"><ele></ele><time>2014-4-9T0:54:52Z</time></trkpt>
<trkpt lat="42.271862" lon="3.223223"><ele></ele><time>2014-4-9T0:54:55Z</time></trkpt>
<trkpt lat="42.271930" lon="3.223308"><ele></ele><time>2014-4-9T0:54:58Z</time></trkpt>
<trkpt lat="42.271968" lon="3.223577"><ele></ele><time>2014-4-9T0:55:1Z</time></trkpt>
<trkpt lat="42.271953" lon="3.223957"><ele></ele><time>2014-4-9T0:55:4Z</time></trkpt>
<trkpt lat="42.271893" lon="3.224437"><ele></ele><time>2014-4-9T0:55:7Z</time></trkpt>
<trkpt lat="42.271873" lon="3.225000"><ele></ele><time>2014-4-9T0:55:10Z</time></trkpt>
<trkpt lat="42.272140" lon="3.225438"><ele></ele><time>2014-4-9T0:55:13Z</time></trkpt>
<trkpt lat="42.272545" lon="3.225703"><ele></ele><time>2014-4-9T0:55:16Z</time></trkpt>
<trkpt lat="42.272972" lon="3.225938"><ele></ele><time>2014-4-9T0:55:19Z</time></trkpt>
<trkpt lat="42.273362" lon="3.226182"><ele></ele><time>2014-4-9T0:55:22Z</time></trkpt>
<trkpt lat="42.273717" lon="3.226450"><ele></ele><time>2014-4-9T0:55:25Z</time></trkpt>
<trkpt lat="42.274067" lon="3.226700"><ele></ele><time>2014-4-9T0:55:28Z</time></trkpt>
<trkpt lat="42.274398" lon="3.226962"><ele></ele><time>2014-4-9T0:55:31Z</time></trkpt>
<trkpt lat="42.274543" lon="3.227267"><ele></ele><time>2014-4-9T0:55:34Z</time></trkpt>
<trkpt lat="42.274563" lon="3.227483"><ele></ele><time>2014-4-9T0:55:37Z</time></trkpt>
<trkpt lat="42.274567" lon="3.227617"><ele></ele><time>2014-4-9T0:55:40Z</time></trkpt>
<trkpt lat="42.274575" lon="3.227697"><ele></ele><time>2014-4-9T0:55:43Z</time></trkpt>
<trkpt lat="42.274567" lon="3.227818"><ele></ele><time>2014-4-9T0:55:46Z</time></trkpt>
<trkpt lat="42.274567" lon="3.227972"><ele></ele><time>2014-4-9T0:55:49Z</time></trkpt>
<trkpt lat="42.274543" lon="3.228120"><ele></ele><time>2014-4-9T0:55:52Z</time></trkpt>
<trkpt lat="42.274532" lon="3.228262"><ele></ele><time>2014-4-9T0:55:55Z</time></trkpt>
<trkpt lat="42.274510" lon="3.228405"><ele></ele><time>2014-4-9T0:55:58Z</time></trkpt>
<trkpt lat="42.274483" lon="3.228547"><ele></ele><time>2014-4-9T0:56:1Z</time></trkpt>
<trkpt lat="42.274448" lon="3.228692"><ele></ele><time>2014-4-9T0:56:4Z</time></trkpt>
<trkpt lat="42.274413" lon="3.228838"><ele></ele><time>2014-4-9T0:56:7Z</time></trkpt>
<trkpt lat="42.274372" lon="3.228995"><ele></ele><time>2014-4-9T0:56:10Z</time></trkpt>
<trkpt lat="42.274323" lon="3.229207"><ele></ele><time>2014-4-9T0:56:13Z</time></trkpt>
<trkpt lat="42.274220" lon="3.229440"><ele></ele><time>2014-4-9T0:56:16Z</time></trkpt>
<trkpt lat="42.274028" lon="3.229715"><ele></ele><time>2014-4-9T0:56:19Z</time></trkpt>
<trkpt lat="42.273773" lon="3.229872"><ele></ele><time>2014-4-9T0:56:22Z</time></trkpt>
<trkpt lat="42.273513" lon="3.229923"><ele></ele><time>2014-4-9T0:56:25Z</time></trkpt>
<trkpt lat="42.273232" lon="3.229970"><ele></ele><time>2014-4-9T0:56:28Z</time></trkpt>
<trkpt lat="42.272977" lon="3.229990"><ele></ele><time>2014-4-9T0:56:31Z</time></trkpt>
<trkpt lat="42.272808" lon="3.229992"><ele></ele><time>2014-4-9T0:56:34Z</time></trkpt>
<trkpt lat="42.272660" lon="3.230023"><ele></ele><time>2014-4-9T0:56:37Z</time></trkpt>
<trkpt lat="42.272498" lon="3.230042"><ele></ele><time>2014-4-9T0:56:40Z</time></trkpt>
<trkpt lat="42.272350" lon="3.230012"><ele></ele><time>2014-4-9T0:56:43Z</time></trkpt>
<trkpt lat="42.272252" lon="3.230017"><ele></ele><time>2014-4-9T0:56:46Z</time></trkpt>
<trkpt lat="42.272110" lon="3.230007"><ele></ele><time>2014-4-9T0:56:49Z</time></trkpt>
<trkpt lat="42.271962" lon="3.229853"><ele></ele><time>2014-4-9T0:56:52Z</time></trkpt>
<trkpt lat="42.271850" lon="3.229707"><ele></ele><time>2014-4-9T0:56:55Z</time></trkpt>
<trkpt lat="42.271778" lon="3.229628"><ele></ele><time>2014-4-9T0:56:58Z</time></trkpt>
<trkpt lat="42.271690" lon="3.229533"><ele></ele><time>2014-4-9T0:57:1Z</time></trkpt>
<trkpt lat="42.271583" lon="3.229448"><ele></ele><time>2014-4-9T0:57:4Z</time></trkpt>
<trkpt lat="42.271438" lon="3.229372"><ele></ele><time>2014-4-9T0:57:7Z</time></trkpt>
<trkpt lat="42.271282" lon="3.229323"><ele></ele><time>2014-4-9T0:57:10Z</time></trkpt>
<trkpt lat="42.271080" lon="3.229408"><ele></ele><time>2014-4-9T0:57:13Z</time></trkpt>
<trkpt lat="42.270772" lon="3.229550"><ele></ele><time>2014-4-9T0:57:16Z</time></trkpt>
<trkpt lat="42.270443" lon="3.229560"><ele></ele><time>2014-4-9T0:57:19Z</time></trkpt>
<trkpt lat="42.270183" lon="3.229588"><ele></ele><time>2014-4-9T0:57:22Z</time></trkpt>
<trkpt lat="42.269970" lon="3.229628"><ele></ele><time>2014-4-9T0:57:25Z</time></trkpt>
<trkpt lat="42.269657" lon="3.229767"><ele></ele><time>2014-4-9T0:57:28Z</time></trkpt>
<trkpt lat="42.269218" lon="3.229975"><ele></ele><time>2014-4-9T0:57:31Z</time></trkpt>
<trkpt lat="42.268723" lon="3.230142"><ele></ele><time>2014-4-9T0:57:34Z</time></trkpt>
<trkpt lat="42.268262" lon="3.230385"><ele></ele><time>2014-4-9T0:57:37Z</time></trkpt>
<trkpt lat="42.267795" lon="3.230628"><ele></ele><time>2014-4-9T0:57:40Z</time></trkpt>
<trkpt lat="42.267268" lon="3.230708"><ele></ele><time>2014-4-9T0:57:43Z</time></trkpt>
<trkpt lat="42.266777" lon="3.230825"><ele></ele><time>2014-4-9T0:57:46Z</time></trkpt>
<trkpt lat="42.266308" lon="3.230998"><ele></ele><time>2014-4-9T0:57:49Z</time></trkpt>
<trkpt lat="42.265938" lon="3.231090"><ele></ele><time>2014-4-9T0:57:52Z</time></trkpt>
<trkpt lat="42.265590" lon="3.230732"><ele></ele><time>2014-4-9T0:57:55Z</time></trkpt>
<trkpt lat="42.265190" lon="3.230372"><ele></ele><time>2014-4-9T0:57:58Z</time></trkpt>
<trkpt lat="42.264758" lon="3.230145"><ele></ele><time>2014-4-9T0:58:1Z</time></trkpt>
<trkpt lat="42.264352" lon="3.229953"><ele></ele><time>2014-4-9T0:58:4Z</time></trkpt>
<trkpt lat="42.264057" lon="3.229798"><ele></ele><time>2014-4-9T0:58:7Z</time></trkpt>
<trkpt lat="42.263752" lon="3.229682"><ele></ele><time>2014-4-9T0:58:10Z</time></trkpt>
<trkpt lat="42.263313" lon="3.229653"><ele></ele><time>2014-4-9T0:58:13Z</time></trkpt>
<trkpt lat="42.262843" lon="3.229605"><ele></ele><time>2014-4-9T0:58:16Z</time></trkpt>
<trkpt lat="42.262310" lon="3.229625"><ele></ele><time>2014-4-9T0:58:19Z</time></trkpt>
<trkpt lat="42.261875" lon="3.229733"><ele></ele><time>2014-4-9T0:58:22Z</time></trkpt>
<trkpt lat="42.261520" lon="3.229895"><ele></ele><time>2014-4-9T0:58:25Z</time></trkpt>
<trkpt lat="42.261097" lon="3.230157"><ele></ele><time>2014-4-9T0:58:28Z</time></trkpt>
<trkpt lat="42.260792" lon="3.230440"><ele></ele><time>2014-4-9T0:58:31Z</time></trkpt>
<trkpt lat="42.260528" lon="3.230642"><ele></ele><time>2014-4-9T0:58:34Z</time></trkpt>
<trkpt lat="42.260223" lon="3.230852"><ele></ele><time>2014-4-9T0:58:37Z</time></trkpt>
<trkpt lat="42.259880" lon="3.231135"><ele></ele><time>2014-4-9T0:58:40Z</time></trkpt>
<trkpt lat="42.259388" lon="3.231368"><ele></ele><time>2014-4-9T0:58:43Z</time></trkpt>
<trkpt lat="42.258903" lon="3.231553"><ele></ele><time>2014-4-9T0:58:46Z</time></trkpt>
<trkpt lat="42.258462" lon="3.231455"><ele></ele><time>2014-4-9T0:58:49Z</time></trkpt>
<trkpt lat="42.257968" lon="3.231380"><ele></ele><time>2014-4-9T0:58:52Z</time></trkpt>
<trkpt lat="42.257618" lon="3.231550"><ele></ele><time>2014-4-9T0:58:55Z</time></trkpt>
<trkpt lat="42.257447" lon="3.231917"><ele></ele><time>2014-4-9T0:58:58Z</time></trkpt>
<trkpt lat="42.257355" lon="3.232303"><ele></ele><time>2014-4-9T0:59:1Z</time></trkpt>
<trkpt lat="42.257202" lon="3.232732"><ele></ele><time>2014-4-9T0:59:4Z</time></trkpt>
<trkpt lat="42.257157" lon="3.233233"><ele></ele><time>2014-4-9T0:59:7Z</time></trkpt>
<trkpt lat="42.257225" lon="3.233805"><ele></ele><time>2014-4-9T0:59:10Z</time></trkpt>
<trkpt lat="42.257145" lon="3.234462"><ele></ele><time>2014-4-9T0:59:13Z</time></trkpt>
<trkpt lat="42.257080" lon="3.235035"><ele></ele><time>2014-4-9T0:59:16Z</time></trkpt>
<trkpt lat="42.256997" lon="3.235660"><ele></ele><time>2014-4-9T0:59:19Z</time></trkpt>
<trkpt lat="42.256867" lon="3.236260"><ele></ele><time>2014-4-9T0:59:22Z</time></trkpt>
<trkpt lat="42.256702" lon="3.236813"><ele></ele><time>2014-4-9T0:59:25Z</time></trkpt>
<trkpt lat="42.256612" lon="3.237490"><ele></ele><time>2014-4-9T0:59:28Z</time></trkpt>
<trkpt lat="42.256390" lon="3.238035"><ele></ele><time>2014-4-9T0:59:31Z</time></trkpt>
<trkpt lat="42.256230" lon="3.238383"><ele></ele><time>2014-4-9T0:59:34Z</time></trkpt>
<trkpt lat="42.256107" lon="3.238672"><ele></ele><time>2014-4-9T0:59:37Z</time></trkpt>
<trkpt lat="42.255973" lon="3.238957"><ele></ele><time>2014-4-9T0:59:40Z</time></trkpt>
<trkpt lat="42.255817" lon="3.239258"><ele></ele><time>2014-4-9T0:59:43Z</time></trkpt>
<trkpt lat="42.255645" lon="3.239562"><ele></ele><time>2014-4-9T0:59:46Z</time></trkpt>
<trkpt lat="42.255432" lon="3.239888"><ele></ele><time>2014-4-9T0:59:49Z</time></trkpt>
<trkpt lat="42.255302" lon="3.240398"><ele></ele><time>2014-4-9T0:59:52Z</time></trkpt>
<trkpt lat="42.255337" lon="3.240878"><ele></ele><time>2014-4-9T0:59:55Z</time></trkpt>
<trkpt lat="42.255333" lon="3.241243"><ele></ele><time>2014-4-9T0:59:58Z</time></trkpt>
<trkpt lat="42.255398" lon="3.241567"><ele></ele><time>2014-4-9T1:0:1Z</time></trkpt>
<trkpt lat="42.255517" lon="3.241982"><ele></ele><time>2014-4-9T1:0:4Z</time></trkpt>
<trkpt lat="42.255710" lon="3.242430"><ele></ele><time>2014-4-9T1:0:7Z</time></trkpt>
<trkpt lat="42.255807" lon="3.242935"><ele></ele><time>2014-4-9T1:0:10Z</time></trkpt>
<trkpt lat="42.255662" lon="3.243462"><ele></ele><time>2014-4-9T1:0:13Z</time></trkpt>
<trkpt lat="42.255657" lon="3.244050"><ele></ele><time>2014-4-9T1:0:16Z</time></trkpt>
<trkpt lat="42.255543" lon="3.244438"><ele></ele><time>2014-4-9T1:0:19Z</time></trkpt>
<trkpt lat="42.255180" lon="3.244750"><ele></ele><time>2014-4-9T1:0:22Z</time></trkpt>
<trkpt lat="42.254857" lon="3.245118"><ele></ele><time>2014-4-9T1:0:25Z</time></trkpt>
<trkpt lat="42.254632" lon="3.245545"><ele></ele><time>2014-4-9T1:0:28Z</time></trkpt>
<trkpt lat="42.254482" lon="3.245975"><ele></ele><time>2014-4-9T1:0:31Z</time></trkpt>
<trkpt lat="42.254353" lon="3.246355"><ele></ele><time>2014-4-9T1:0:34Z</time></trkpt>
<trkpt lat="42.254288" lon="3.246758"><ele></ele><time>2014-4-9T1:0:37Z</time></trkpt>
<trkpt lat="42.254272" lon="3.247252"><ele></ele><time>2014-4-9T1:0:40Z</time></trkpt>
<trkpt lat="42.254120" lon="3.247667"><ele></ele><time>2014-4-9T1:0:43Z</time></trkpt>
<trkpt lat="42.253990" lon="3.248055"><ele></ele><time>2014-4-9T1:0:46Z</time></trkpt>
<trkpt lat="42.253987" lon="3.248507"><ele></ele><time>2014-4-9T1:0:49Z</time></trkpt>
<trkpt lat="42.253963" lon="3.248903"><ele></ele><time>2014-4-9T1:0:52Z</time></trkpt>
<trkpt lat="42.253838" lon="3.248935"><ele></ele><time>2014-4-9T1:0:55Z</time></trkpt>
<trkpt lat="42.253757" lon="3.248857"><ele></ele><time>2014-4-9T1:0:58Z</time></trkpt>
<trkpt lat="42.253655" lon="3.248958"><ele></ele><time>2014-4-9T1:1:1Z</time></trkpt>
<trkpt lat="42.253623" lon="3.249075"><ele></ele><time>2014-4-9T1:1:4Z</time></trkpt>
<trkpt lat="42.253640" lon="3.249230"><ele></ele><time>2014-4-9T1:1:7Z</time></trkpt>
<trkpt lat="42.253703" lon="3.249253"><ele></ele><time>2014-4-9T1:1:10Z</time></trkpt>
<trkpt lat="42.253703" lon="3.249253"><ele></ele><time>2014-4-9T1:1:13Z</time></trkpt>
<trkpt lat="42.253703" lon="3.249255"><ele></ele><time>2014-4-9T1:1:16Z</time></trkpt>
<trkpt lat="42.253703" lon="3.249253"><ele></ele><time>2014-4-9T1:1:19Z</time></trkpt>
<trkpt lat="42.253703" lon="3.249257"><ele></ele><time>2014-4-9T1:1:22Z</time></trkpt>
<trkpt lat="42.253703" lon="3.249257"><ele></ele><time>2014-4-9T1:1:25Z</time></trkpt>
<trkpt lat="42.253703" lon="3.249257"><ele></ele><time>2014-4-9T1:1:28Z</time></trkpt>
<trkpt lat="42.253708" lon="3.249252"><ele></ele><time>2014-4-9T1:1:31Z</time></trkpt>
<trkpt lat="42.253750" lon="3.249158"><ele></ele><time>2014-4-9T1:1:34Z</time></trkpt>
<trkpt lat="42.253727" lon="3.248983"><ele></ele><time>2014-4-9T1:1:37Z</time></trkpt>
<trkpt lat="42.253742" lon="3.248878"><ele></ele><time>2014-4-9T1:1:40Z</time></trkpt>
<trkpt lat="42.253822" lon="3.248955"><ele></ele><time>2014-4-9T1:1:43Z</time></trkpt>
<trkpt lat="42.253898" lon="3.249073"><ele></ele><time>2014-4-9T1:1:46Z</time></trkpt>
<trkpt lat="42.253998" lon="3.249220"><ele></ele><time>2014-4-9T1:1:49Z</time></trkpt>
<trkpt lat="42.254132" lon="3.249398"><ele></ele><time>2014-4-9T1:1:52Z</time></trkpt>
<trkpt lat="42.254383" lon="3.249502"><ele></ele><time>2014-4-9T1:1:55Z</time></trkpt>
<trkpt lat="42.254535" lon="3.249490"><ele></ele><time>2014-4-9T1:1:58Z</time></trkpt>
<trkpt lat="42.254535" lon="3.249485"><ele></ele><time>2014-4-9T1:2:1Z</time></trkpt>
<trkpt lat="42.254535" lon="3.249487"><ele></ele><time>2014-4-9T1:2:4Z</time></trkpt>
<trkpt lat="42.254582" lon="3.249475"><ele></ele><time>2014-4-9T1:2:7Z</time></trkpt>
<trkpt lat="42.254768" lon="3.249418"><ele></ele><time>2014-4-9T1:2:10Z</time></trkpt>
<trkpt lat="42.255035" lon="3.249302"><ele></ele><time>2014-4-9T1:2:13Z</time></trkpt>
<trkpt lat="42.255313" lon="3.249062"><ele></ele><time>2014-4-9T1:2:16Z</time></trkpt>
<trkpt lat="42.255630" lon="3.248757"><ele></ele><time>2014-4-9T1:2:19Z</time></trkpt>
<trkpt lat="42.256000" lon="3.248573"><ele></ele><time>2014-4-9T1:2:22Z</time></trkpt>
<trkpt lat="42.256310" lon="3.248552"><ele></ele><time>2014-4-9T1:2:25Z</time></trkpt>
<trkpt lat="42.256477" lon="3.248915"><ele></ele><time>2014-4-9T1:2:28Z</time></trkpt>
<trkpt lat="42.256680" lon="3.249215"><ele></ele><time>2014-4-9T1:2:31Z</time></trkpt>
<trkpt lat="42.256982" lon="3.249228"><ele></ele><time>2014-4-9T1:2:34Z</time></trkpt>
<trkpt lat="42.257267" lon="3.248898"><ele></ele><time>2014-4-9T1:2:37Z</time></trkpt>
<trkpt lat="42.257577" lon="3.248488"><ele></ele><time>2014-4-9T1:2:40Z</time></trkpt>
<trkpt lat="42.257862" lon="3.248130"><ele></ele><time>2014-4-9T1:2:43Z</time></trkpt>
<trkpt lat="42.258145" lon="3.247817"><ele></ele><time>2014-4-9T1:2:46Z</time></trkpt>
<trkpt lat="42.258542" lon="3.247672"><ele></ele><time>2014-4-9T1:2:49Z</time></trkpt>
<trkpt lat="42.258965" lon="3.247612"><ele></ele><time>2014-4-9T1:2:52Z</time></trkpt>
<trkpt lat="42.259220" lon="3.247310"><ele></ele><time>2014-4-9T1:2:55Z</time></trkpt>
<trkpt lat="42.259182" lon="3.246765"><ele></ele><time>2014-4-9T1:2:58Z</time></trkpt>
<trkpt lat="42.259113" lon="3.246197"><ele></ele><time>2014-4-9T1:3:1Z</time></trkpt>
<trkpt lat="42.258938" lon="3.245742"><ele></ele><time>2014-4-9T1:3:4Z</time></trkpt>
<trkpt lat="42.258992" lon="3.245412"><ele></ele><time>2014-4-9T1:3:7Z</time></trkpt>
<trkpt lat="42.259273" lon="3.245522"><ele></ele><time>2014-4-9T1:3:10Z</time></trkpt>
<trkpt lat="42.259563" lon="3.245533"><ele></ele><time>2014-4-9T1:3:13Z</time></trkpt>
<trkpt lat="42.259812" lon="3.245305"><ele></ele><time>2014-4-9T1:3:16Z</time></trkpt>
<trkpt lat="42.260017" lon="3.244995"><ele></ele><time>2014-4-9T1:3:19Z</time></trkpt>
<trkpt lat="42.260188" lon="3.244712"><ele></ele><time>2014-4-9T1:3:22Z</time></trkpt>
<trkpt lat="42.260330" lon="3.244858"><ele></ele><time>2014-4-9T1:3:25Z</time></trkpt>
<trkpt lat="42.260193" lon="3.245157"><ele></ele><time>2014-4-9T1:3:28Z</time></trkpt>
<trkpt lat="42.259963" lon="3.245423"><ele></ele><time>2014-4-9T1:3:31Z</time></trkpt>
<trkpt lat="42.259770" lon="3.245683"><ele></ele><time>2014-4-9T1:3:34Z</time></trkpt>
<trkpt lat="42.259782" lon="3.246062"><ele></ele><time>2014-4-9T1:3:37Z</time></trkpt>
<trkpt lat="42.259872" lon="3.246325"><ele></ele><time>2014-4-9T1:3:40Z</time></trkpt>
<trkpt lat="42.259945" lon="3.246512"><ele></ele><time>2014-4-9T1:3:43Z</time></trkpt>
<trkpt lat="42.260063" lon="3.246637"><ele></ele><time>2014-4-9T1:3:46Z</time></trkpt>
<trkpt lat="42.260215" lon="3.246665"><ele></ele><time>2014-4-9T1:3:49Z</time></trkpt>
<trkpt lat="42.260268" lon="3.246660"><ele></ele><time>2014-4-9T1:3:52Z</time></trkpt>
<trkpt lat="42.260268" lon="3.246660"><ele></ele><time>2014-4-9T1:3:55Z</time></trkpt>
<trkpt lat="42.260265" lon="3.246658"><ele></ele><time>2014-4-9T1:3:58Z</time></trkpt>
<trkpt lat="42.260265" lon="3.246655"><ele></ele><time>2014-4-9T1:4:1Z</time></trkpt>
<trkpt lat="42.260268" lon="3.246658"><ele></ele><time>2014-4-9T1:4:4Z</time></trkpt>
<trkpt lat="42.260253" lon="3.246657"><ele></ele><time>2014-4-9T1:4:7Z</time></trkpt>
<trkpt lat="42.260262" lon="3.246660"><ele></ele><time>2014-4-9T1:4:10Z</time></trkpt>
<trkpt lat="42.260262" lon="3.246660"><ele></ele><time>2014-4-9T1:4:13Z</time></trkpt>
<trkpt lat="42.260265" lon="3.246662"><ele></ele><time>2014-4-9T1:4:16Z</time></trkpt>
<trkpt lat="42.260277" lon="3.246663"><ele></ele><time>2014-4-9T1:4:19Z</time></trkpt>
<trkpt lat="42.260288" lon="3.246668"><ele></ele><time>2014-4-9T1:4:22Z</time></trkpt>
<trkpt lat="42.260318" lon="3.246690"><ele></ele><time>2014-4-9T1:4:25Z</time></trkpt>
<trkpt lat="42.260323" lon="3.246690"><ele></ele><time>2014-4-9T1:4:28Z</time></trkpt>
<trkpt lat="42.260323" lon="3.246690"><ele></ele><time>2014-4-9T1:4:31Z</time></trkpt>
<trkpt lat="42.260318" lon="3.246690"><ele></ele><time>2014-4-9T1:4:34Z</time></trkpt>
<trkpt lat="42.260318" lon="3.246690"><ele></ele><time>2014-4-9T1:4:37Z</time></trkpt>
<trkpt lat="42.260345" lon="3.246702"><ele></ele><time>2014-4-9T1:4:40Z</time></trkpt>
<trkpt lat="42.260437" lon="3.246757"><ele></ele><time>2014-4-9T1:4:43Z</time></trkpt>
<trkpt lat="42.260537" lon="3.246805"><ele></ele><time>2014-4-9T1:4:46Z</time></trkpt>
<trkpt lat="42.260620" lon="3.246840"><ele></ele><time>2014-4-9T1:4:49Z</time></trkpt>
<trkpt lat="42.260712" lon="3.246882"><ele></ele><time>2014-4-9T1:4:52Z</time></trkpt>
<trkpt lat="42.260800" lon="3.246937"><ele></ele><time>2014-4-9T1:4:55Z</time></trkpt>
<trkpt lat="42.260868" lon="3.247028"><ele></ele><time>2014-4-9T1:4:58Z</time></trkpt>
<trkpt lat="42.260910" lon="3.247150"><ele></ele><time>2014-4-9T1:5:1Z</time></trkpt>
<trkpt lat="42.260940" lon="3.247282"><ele></ele><time>2014-4-9T1:5:4Z</time></trkpt>
<trkpt lat="42.260963" lon="3.247413"><ele></ele><time>2014-4-9T1:5:7Z</time></trkpt>
<trkpt lat="42.261005" lon="3.247542"><ele></ele><time>2014-4-9T1:5:10Z</time></trkpt>
<trkpt lat="42.261058" lon="3.247660"><ele></ele><time>2014-4-9T1:5:13Z</time></trkpt>
<trkpt lat="42.261112" lon="3.247772"><ele></ele><time>2014-4-9T1:5:16Z</time></trkpt>
<trkpt lat="42.261165" lon="3.247885"><ele></ele><time>2014-4-9T1:5:19Z</time></trkpt>
<trkpt lat="42.261230" lon="3.247977"><ele></ele><time>2014-4-9T1:5:22Z</time></trkpt>
<trkpt lat="42.261257" lon="3.248093"><ele></ele><time>2014-4-9T1:5:25Z</time></trkpt>
<trkpt lat="42.261227" lon="3.248217"><ele></ele><time>2014-4-9T1:5:28Z</time></trkpt>
<trkpt lat="42.261158" lon="3.248302"><ele></ele><time>2014-4-9T1:5:31Z</time></trkpt>
<trkpt lat="42.261067" lon="3.248348"><ele></ele><time>2014-4-9T1:5:34Z</time></trkpt>
<trkpt lat="42.260975" lon="3.248408"><ele></ele><time>2014-4-9T1:5:37Z</time></trkpt>
<trkpt lat="42.260892" lon="3.248480"><ele></ele><time>2014-4-9T1:5:40Z</time></trkpt>
<trkpt lat="42.260812" lon="3.248563"><ele></ele><time>2014-4-9T1:5:43Z</time></trkpt>
<trkpt lat="42.260735" lon="3.248660"><ele></ele><time>2014-4-9T1:5:46Z</time></trkpt>
<trkpt lat="42.260640" lon="3.248765"><ele></ele><time>2014-4-9T1:5:49Z</time></trkpt>
<trkpt lat="42.260548" lon="3.248838"><ele></ele><time>2014-4-9T1:5:52Z</time></trkpt>
<trkpt lat="42.260460" lon="3.248893"><ele></ele><time>2014-4-9T1:5:55Z</time></trkpt>
<trkpt lat="42.260377" lon="3.248940"><ele></ele><time>2014-4-9T1:5:58Z</time></trkpt>
<trkpt lat="42.260288" lon="3.248997"><ele></ele><time>2014-4-9T1:6:1Z</time></trkpt>
<trkpt lat="42.260215" lon="3.249067"><ele></ele><time>2014-4-9T1:6:4Z</time></trkpt>
<trkpt lat="42.260132" lon="3.249145"><ele></ele><time>2014-4-9T1:6:7Z</time></trkpt>
<trkpt lat="42.260078" lon="3.249237"><ele></ele><time>2014-4-9T1:6:10Z</time></trkpt>
<trkpt lat="42.260093" lon="3.249342"><ele></ele><time>2014-4-9T1:6:13Z</time></trkpt>
<trkpt lat="42.260182" lon="3.249330"><ele></ele><time>2014-4-9T1:6:16Z</time></trkpt>
<trkpt lat="42.260247" lon="3.249238"><ele></ele><time>2014-4-9T1:6:19Z</time></trkpt>
<trkpt lat="42.260327" lon="3.249170"><ele></ele><time>2014-4-9T1:6:22Z</time></trkpt>
<trkpt lat="42.260418" lon="3.249123"><ele></ele><time>2014-4-9T1:6:25Z</time></trkpt>
<trkpt lat="42.260510" lon="3.249103"><ele></ele><time>2014-4-9T1:6:28Z</time></trkpt>
<trkpt lat="42.260605" lon="3.249073"><ele></ele><time>2014-4-9T1:6:31Z</time></trkpt>
<trkpt lat="42.260693" lon="3.249030"><ele></ele><time>2014-4-9T1:6:34Z</time></trkpt>
<trkpt lat="42.260777" lon="3.248965"><ele></ele><time>2014-4-9T1:6:37Z</time></trkpt>
<trkpt lat="42.260853" lon="3.248890"><ele></ele><time>2014-4-9T1:6:40Z</time></trkpt>
<trkpt lat="42.260928" lon="3.248825"><ele></ele><time>2014-4-9T1:6:43Z</time></trkpt>
<trkpt lat="42.261005" lon="3.248765"><ele></ele><time>2014-4-9T1:6:46Z</time></trkpt>
<trkpt lat="42.261090" lon="3.248722"><ele></ele><time>2014-4-9T1:6:49Z</time></trkpt>
<trkpt lat="42.261173" lon="3.248705"><ele></ele><time>2014-4-9T1:6:52Z</time></trkpt>
<trkpt lat="42.261265" lon="3.248682"><ele></ele><time>2014-4-9T1:6:55Z</time></trkpt>
<trkpt lat="42.261357" lon="3.248650"><ele></ele><time>2014-4-9T1:6:58Z</time></trkpt>
<trkpt lat="42.261443" lon="3.248617"><ele></ele><time>2014-4-9T1:7:1Z</time></trkpt>
<trkpt lat="42.261532" lon="3.248587"><ele></ele><time>2014-4-9T1:7:4Z</time></trkpt>
<trkpt lat="42.261627" lon="3.248575"><ele></ele><time>2014-4-9T1:7:7Z</time></trkpt>
<trkpt lat="42.261723" lon="3.248573"><ele></ele><time>2014-4-9T1:7:10Z</time></trkpt>
<trkpt lat="42.261818" lon="3.248547"><ele></ele><time>2014-4-9T1:7:13Z</time></trkpt>
<trkpt lat="42.261895" lon="3.248477"><ele></ele><time>2014-4-9T1:7:16Z</time></trkpt>
<trkpt lat="42.261943" lon="3.248368"><ele></ele><time>2014-4-9T1:7:19Z</time></trkpt>
<trkpt lat="42.261937" lon="3.248240"><ele></ele><time>2014-4-9T1:7:22Z</time></trkpt>
<trkpt lat="42.261887" lon="3.248128"><ele></ele><time>2014-4-9T1:7:25Z</time></trkpt>
<trkpt lat="42.261845" lon="3.248017"><ele></ele><time>2014-4-9T1:7:28Z</time></trkpt>
<trkpt lat="42.261783" lon="3.247918"><ele></ele><time>2014-4-9T1:7:31Z</time></trkpt>
<trkpt lat="42.261742" lon="3.247810"><ele></ele><time>2014-4-9T1:7:34Z</time></trkpt>
<trkpt lat="42.261707" lon="3.247695"><ele></ele><time>2014-4-9T1:7:37Z</time></trkpt>
<trkpt lat="42.261688" lon="3.247580"><ele></ele><time>2014-4-9T1:7:40Z</time></trkpt>
<trkpt lat="42.261677" lon="3.247475"><ele></ele><time>2014-4-9T1:7:43Z</time></trkpt>
<trkpt lat="42.261677" lon="3.247350"><ele></ele><time>2014-4-9T1:7:46Z</time></trkpt>
<trkpt lat="42.261680" lon="3.247235"><ele></ele><time>2014-4-9T1:7:49Z</time></trkpt>
<trkpt lat="42.261688" lon="3.247120"><ele></ele><time>2014-4-9T1:7:52Z</time></trkpt>
<trkpt lat="42.261688" lon="3.247008"><ele></ele><time>2014-4-9T1:7:55Z</time></trkpt>
<trkpt lat="42.261673" lon="3.246897"><ele></ele><time>2014-4-9T1:7:58Z</time></trkpt>
<trkpt lat="42.261662" lon="3.246778"><ele></ele><time>2014-4-9T1:8:1Z</time></trkpt>
<trkpt lat="42.261665" lon="3.246658"><ele></ele><time>2014-4-9T1:8:4Z</time></trkpt>
<trkpt lat="42.261688" lon="3.246543"><ele></ele><time>2014-4-9T1:8:7Z</time></trkpt>
<trkpt lat="42.261712" lon="3.246430"><ele></ele><time>2014-4-9T1:8:10Z</time></trkpt>
<trkpt lat="42.261688" lon="3.246312"><ele></ele><time>2014-4-9T1:8:13Z</time></trkpt>
<trkpt lat="42.261623" lon="3.246222"><ele></ele><time>2014-4-9T1:8:16Z</time></trkpt>
<trkpt lat="42.261547" lon="3.246162"><ele></ele><time>2014-4-9T1:8:19Z</time></trkpt>
<trkpt lat="42.261467" lon="3.246102"><ele></ele><time>2014-4-9T1:8:22Z</time></trkpt>
<trkpt lat="42.261398" lon="3.246040"><ele></ele><time>2014-4-9T1:8:25Z</time></trkpt>
<trkpt lat="42.261330" lon="3.245950"><ele></ele><time>2014-4-9T1:8:28Z</time></trkpt>
<trkpt lat="42.261272" lon="3.245858"><ele></ele><time>2014-4-9T1:8:31Z</time></trkpt>
<trkpt lat="42.261253" lon="3.245742"><ele></ele><time>2014-4-9T1:8:34Z</time></trkpt>
<trkpt lat="42.261250" lon="3.245618"><ele></ele><time>2014-4-9T1:8:37Z</time></trkpt>
<trkpt lat="42.261268" lon="3.245502"><ele></ele><time>2014-4-9T1:8:40Z</time></trkpt>
<trkpt lat="42.261303" lon="3.245392"><ele></ele><time>2014-4-9T1:8:43Z</time></trkpt>
<trkpt lat="42.261345" lon="3.245290"><ele></ele><time>2014-4-9T1:8:46Z</time></trkpt>
<trkpt lat="42.261375" lon="3.245188"><ele></ele><time>2014-4-9T1:8:49Z</time></trkpt>
<trkpt lat="42.261422" lon="3.245072"><ele></ele><time>2014-4-9T1:8:52Z</time></trkpt>
<trkpt lat="42.261455" lon="3.244968"><ele></ele><time>2014-4-9T1:8:55Z</time></trkpt>
<trkpt lat="42.261490" lon="3.244868"><ele></ele><time>2014-4-9T1:8:58Z</time></trkpt>
<trkpt lat="42.261532" lon="3.244772"><ele></ele><time>2014-4-9T1:9:1Z</time></trkpt>
<trkpt lat="42.261578" lon="3.244677"><ele></ele><time>2014-4-9T1:9:4Z</time></trkpt>
<trkpt lat="42.261612" lon="3.244568"><ele></ele><time>2014-4-9T1:9:7Z</time></trkpt>
<trkpt lat="42.261650" lon="3.244463"><ele></ele><time>2014-4-9T1:9:10Z</time></trkpt>
<trkpt lat="42.261688" lon="3.244362"><ele></ele><time>2014-4-9T1:9:13Z</time></trkpt>
<trkpt lat="42.261733" lon="3.244260"><ele></ele><time>2014-4-9T1:9:16Z</time></trkpt>
<trkpt lat="42.261795" lon="3.244175"><ele></ele><time>2014-4-9T1:9:19Z</time></trkpt>
<trkpt lat="42.261868" lon="3.244113"><ele></ele><time>2014-4-9T1:9:22Z</time></trkpt>
<trkpt lat="42.261952" lon="3.244082"><ele></ele><time>2014-4-9T1:9:25Z</time></trkpt>
<trkpt lat="42.262032" lon="3.244067"><ele></ele><time>2014-4-9T1:9:28Z</time></trkpt>
<trkpt lat="42.262108" lon="3.244043"><ele></ele><time>2014-4-9T1:9:31Z</time></trkpt>
<trkpt lat="42.262188" lon="3.243980"><ele></ele><time>2014-4-9T1:9:34Z</time></trkpt>
<trkpt lat="42.262265" lon="3.243935"><ele></ele><time>2014-4-9T1:9:37Z</time></trkpt>
<trkpt lat="42.262333" lon="3.243870"><ele></ele><time>2014-4-9T1:9:40Z</time></trkpt>
<trkpt lat="42.262405" lon="3.243807"><ele></ele><time>2014-4-9T1:9:43Z</time></trkpt>
<trkpt lat="42.262490" lon="3.243762"><ele></ele><time>2014-4-9T1:9:46Z</time></trkpt>
<trkpt lat="42.262570" lon="3.243728"><ele></ele><time>2014-4-9T1:9:49Z</time></trkpt>
<trkpt lat="42.262653" lon="3.243747"><ele></ele><time>2014-4-9T1:9:52Z</time></trkpt>
<trkpt lat="42.262695" lon="3.243837"><ele></ele><time>2014-4-9T1:9:55Z</time></trkpt>
<trkpt lat="42.262645" lon="3.243912"><ele></ele><time>2014-4-9T1:9:58Z</time></trkpt>
<trkpt lat="42.262562" lon="3.243952"><ele></ele><time>2014-4-9T1:10:1Z</time></trkpt>
<trkpt lat="42.262485" lon="3.244005"><ele></ele><time>2014-4-9T1:10:4Z</time></trkpt>
<trkpt lat="42.262413" lon="3.244078"><ele></ele><time>2014-4-9T1:10:7Z</time></trkpt>
<trkpt lat="42.262363" lon="3.244178"><ele></ele><time>2014-4-9T1:10:10Z</time></trkpt>
<trkpt lat="42.262325" lon="3.244283"><ele></ele><time>2014-4-9T1:10:13Z</time></trkpt>
<trkpt lat="42.262253" lon="3.244375"><ele></ele><time>2014-4-9T1:10:16Z</time></trkpt>
<trkpt lat="42.262183" lon="3.244445"><ele></ele><time>2014-4-9T1:10:19Z</time></trkpt>
<trkpt lat="42.262123" lon="3.244520"><ele></ele><time>2014-4-9T1:10:22Z</time></trkpt>
<trkpt lat="42.262070" lon="3.244603"><ele></ele><time>2014-4-9T1:10:25Z</time></trkpt>
<trkpt lat="42.262023" lon="3.244710"><ele></ele><time>2014-4-9T1:10:28Z</time></trkpt>
<trkpt lat="42.262002" lon="3.244825"><ele></ele><time>2014-4-9T1:10:31Z</time></trkpt>
<trkpt lat="42.262002" lon="3.244943"><ele></ele><time>2014-4-9T1:10:34Z</time></trkpt>
<trkpt lat="42.262017" lon="3.245060"><ele></ele><time>2014-4-9T1:10:37Z</time></trkpt>
<trkpt lat="42.262058" lon="3.245170"><ele></ele><time>2014-4-9T1:10:40Z</time></trkpt>
<trkpt lat="42.262112" lon="3.245270"><ele></ele><time>2014-4-9T1:10:43Z</time></trkpt>
<trkpt lat="42.262168" lon="3.245357"><ele></ele><time>2014-4-9T1:10:46Z</time></trkpt>
<trkpt lat="42.262238" lon="3.245425"><ele></ele><time>2014-4-9T1:10:49Z</time></trkpt>
<trkpt lat="42.262322" lon="3.245488"><ele></ele><time>2014-4-9T1:10:52Z</time></trkpt>
<trkpt lat="42.262405" lon="3.245530"><ele></ele><time>2014-4-9T1:10:55Z</time></trkpt>
<trkpt lat="42.262485" lon="3.245567"><ele></ele><time>2014-4-9T1:10:58Z</time></trkpt>
<trkpt lat="42.262570" lon="3.245612"><ele></ele><time>2014-4-9T1:11:1Z</time></trkpt>
<trkpt lat="42.262657" lon="3.245653"><ele></ele><time>2014-4-9T1:11:4Z</time></trkpt>
<trkpt lat="42.262737" lon="3.245707"><ele></ele><time>2014-4-9T1:11:7Z</time></trkpt>
<trkpt lat="42.262810" lon="3.245773"><ele></ele><time>2014-4-9T1:11:10Z</time></trkpt>
<trkpt lat="42.262870" lon="3.245860"><ele></ele><time>2014-4-9T1:11:13Z</time></trkpt>
<trkpt lat="42.262913" lon="3.245963"><ele></ele><time>2014-4-9T1:11:16Z</time></trkpt>
<trkpt lat="42.262952" lon="3.246073"><ele></ele><time>2014-4-9T1:11:19Z</time></trkpt>
<trkpt lat="42.262967" lon="3.246187"><ele></ele><time>2014-4-9T1:11:22Z</time></trkpt>
<trkpt lat="42.262967" lon="3.246317"><ele></ele><time>2014-4-9T1:11:25Z</time></trkpt>
<trkpt lat="42.262947" lon="3.246428"><ele></ele><time>2014-4-9T1:11:28Z</time></trkpt>
<trkpt lat="42.262928" lon="3.246545"><ele></ele><time>2014-4-9T1:11:31Z</time></trkpt>
<trkpt lat="42.262908" lon="3.246662"><ele></ele><time>2014-4-9T1:11:34Z</time></trkpt>
<trkpt lat="42.262908" lon="3.246782"><ele></ele><time>2014-4-9T1:11:37Z</time></trkpt>
<trkpt lat="42.262935" lon="3.246897"><ele></ele><time>2014-4-9T1:11:40Z</time></trkpt>
<trkpt lat="42.262993" lon="3.246990"><ele></ele><time>2014-4-9T1:11:43Z</time></trkpt>
<trkpt lat="42.263065" lon="3.247053"><ele></ele><time>2014-4-9T1:11:46Z</time></trkpt>
<trkpt lat="42.263150" lon="3.247100"><ele></ele><time>2014-4-9T1:11:49Z</time></trkpt>
<trkpt lat="42.263230" lon="3.247148"><ele></ele><time>2014-4-9T1:11:52Z</time></trkpt>
<trkpt lat="42.263310" lon="3.247202"><ele></ele><time>2014-4-9T1:11:55Z</time></trkpt>
<trkpt lat="42.263385" lon="3.247272"><ele></ele><time>2014-4-9T1:11:58Z</time></trkpt>
<trkpt lat="42.263467" lon="3.247327"><ele></ele><time>2014-4-9T1:12:1Z</time></trkpt>
<trkpt lat="42.263550" lon="3.247362"><ele></ele><time>2014-4-9T1:12:4Z</time></trkpt>
<trkpt lat="42.263638" lon="3.247390"><ele></ele><time>2014-4-9T1:12:7Z</time></trkpt>
<trkpt lat="42.263722" lon="3.247415"><ele></ele><time>2014-4-9T1:12:10Z</time></trkpt>
<trkpt lat="42.263810" lon="3.247435"><ele></ele><time>2014-4-9T1:12:13Z</time></trkpt>
<trkpt lat="42.263897" lon="3.247447"><ele></ele><time>2014-4-9T1:12:16Z</time></trkpt>
<trkpt lat="42.263992" lon="3.247462"><ele></ele><time>2014-4-9T1:12:19Z</time></trkpt>
<trkpt lat="42.264088" lon="3.247492"><ele></ele><time>2014-4-9T1:12:22Z</time></trkpt>
<trkpt lat="42.264153" lon="3.247575"><ele></ele><time>2014-4-9T1:12:25Z</time></trkpt>
<trkpt lat="42.264160" lon="3.247698"><ele></ele><time>2014-4-9T1:12:28Z</time></trkpt>
<trkpt lat="42.264133" lon="3.247820"><ele></ele><time>2014-4-9T1:12:31Z</time></trkpt>
<trkpt lat="42.264110" lon="3.247940"><ele></ele><time>2014-4-9T1:12:34Z</time></trkpt>
<trkpt lat="42.264098" lon="3.248058"><ele></ele><time>2014-4-9T1:12:37Z</time></trkpt>
<trkpt lat="42.264098" lon="3.248177"><ele></ele><time>2014-4-9T1:12:40Z</time></trkpt>
<trkpt lat="42.264133" lon="3.248302"><ele></ele><time>2014-4-9T1:12:43Z</time></trkpt>
<trkpt lat="42.264190" lon="3.248393"><ele></ele><time>2014-4-9T1:12:46Z</time></trkpt>
<trkpt lat="42.264263" lon="3.248458"><ele></ele><time>2014-4-9T1:12:49Z</time></trkpt>
<trkpt lat="42.264332" lon="3.248523"><ele></ele><time>2014-4-9T1:12:52Z</time></trkpt>
<trkpt lat="42.264405" lon="3.248588"><ele></ele><time>2014-4-9T1:12:55Z</time></trkpt>
<trkpt lat="42.264468" lon="3.248655"><ele></ele><time>2014-4-9T1:12:58Z</time></trkpt>
<trkpt lat="42.264533" lon="3.248728"><ele></ele><time>2014-4-9T1:13:1Z</time></trkpt>
<trkpt lat="42.264592" lon="3.248808"><ele></ele><time>2014-4-9T1:13:4Z</time></trkpt>
<trkpt lat="42.264657" lon="3.248893"><ele></ele><time>2014-4-9T1:13:7Z</time></trkpt>
<trkpt lat="42.264722" lon="3.248975"><ele></ele><time>2014-4-9T1:13:10Z</time></trkpt>
<trkpt lat="42.264782" lon="3.249055"><ele></ele><time>2014-4-9T1:13:13Z</time></trkpt>
<trkpt lat="42.264847" lon="3.249138"><ele></ele><time>2014-4-9T1:13:16Z</time></trkpt>
<trkpt lat="42.264908" lon="3.249222"><ele></ele><time>2014-4-9T1:13:19Z</time></trkpt>
<trkpt lat="42.264973" lon="3.249300"><ele></ele><time>2014-4-9T1:13:22Z</time></trkpt>
<trkpt lat="42.265042" lon="3.249373"><ele></ele><time>2014-4-9T1:13:25Z</time></trkpt>
<trkpt lat="42.265113" lon="3.249442"><ele></ele><time>2014-4-9T1:13:28Z</time></trkpt>
<trkpt lat="42.265198" lon="3.249500"><ele></ele><time>2014-4-9T1:13:31Z</time></trkpt>
<trkpt lat="42.265290" lon="3.249525"><ele></ele><time>2014-4-9T1:13:34Z</time></trkpt>
<trkpt lat="42.265385" lon="3.249527"><ele></ele><time>2014-4-9T1:13:37Z</time></trkpt>
<trkpt lat="42.265477" lon="3.249502"><ele></ele><time>2014-4-9T1:13:40Z</time></trkpt>
<trkpt lat="42.265568" lon="3.249462"><ele></ele><time>2014-4-9T1:13:43Z</time></trkpt>
<trkpt lat="42.265675" lon="3.249412"><ele></ele><time>2014-4-9T1:13:46Z</time></trkpt>
<trkpt lat="42.265773" lon="3.249377"><ele></ele><time>2014-4-9T1:13:49Z</time></trkpt>
<trkpt lat="42.265868" lon="3.249342"><ele></ele><time>2014-4-9T1:13:52Z</time></trkpt>
<trkpt lat="42.265968" lon="3.249310"><ele></ele><time>2014-4-9T1:13:55Z</time></trkpt>
<trkpt lat="42.266068" lon="3.249287"><ele></ele><time>2014-4-9T1:13:58Z</time></trkpt>
<trkpt lat="42.266163" lon="3.249265"><ele></ele><time>2014-4-9T1:14:1Z</time></trkpt>
<trkpt lat="42.266262" lon="3.249240"><ele></ele><time>2014-4-9T1:14:4Z</time></trkpt>
<trkpt lat="42.266357" lon="3.249218"><ele></ele><time>2014-4-9T1:14:7Z</time></trkpt>
<trkpt lat="42.266457" lon="3.249212"><ele></ele><time>2014-4-9T1:14:10Z</time></trkpt>
<trkpt lat="42.266555" lon="3.249212"><ele></ele><time>2014-4-9T1:14:13Z</time></trkpt>
<trkpt lat="42.266652" lon="3.249227"><ele></ele><time>2014-4-9T1:14:16Z</time></trkpt>
<trkpt lat="42.266750" lon="3.249213"><ele></ele><time>2014-4-9T1:14:19Z</time></trkpt>
<trkpt lat="42.266850" lon="3.249198"><ele></ele><time>2014-4-9T1:14:22Z</time></trkpt>
<trkpt lat="42.266945" lon="3.249160"><ele></ele><time>2014-4-9T1:14:25Z</time></trkpt>
<trkpt lat="42.267043" lon="3.249123"><ele></ele><time>2014-4-9T1:14:28Z</time></trkpt>
<trkpt lat="42.267143" lon="3.249087"><ele></ele><time>2014-4-9T1:14:31Z</time></trkpt>
<trkpt lat="42.267238" lon="3.249068"><ele></ele><time>2014-4-9T1:14:34Z</time></trkpt>
<trkpt lat="42.267338" lon="3.249045"><ele></ele><time>2014-4-9T1:14:37Z</time></trkpt>
<trkpt lat="42.267430" lon="3.249018"><ele></ele><time>2014-4-9T1:14:40Z</time></trkpt>
<trkpt lat="42.267528" lon="3.249025"><ele></ele><time>2014-4-9T1:14:43Z</time></trkpt>
<trkpt lat="42.267593" lon="3.249127"><ele></ele><time>2014-4-9T1:14:46Z</time></trkpt>
<trkpt lat="42.267552" lon="3.249258"><ele></ele><time>2014-4-9T1:14:49Z</time></trkpt>
<trkpt lat="42.267475" lon="3.249360"><ele></ele><time>2014-4-9T1:14:52Z</time></trkpt>
<trkpt lat="42.267410" lon="3.249462"><ele></ele><time>2014-4-9T1:14:55Z</time></trkpt>
<trkpt lat="42.267345" lon="3.249562"><ele></ele><time>2014-4-9T1:14:58Z</time></trkpt>
<trkpt lat="42.267297" lon="3.249685"><ele></ele><time>2014-4-9T1:15:1Z</time></trkpt>
<trkpt lat="42.267253" lon="3.249808"><ele></ele><time>2014-4-9T1:15:4Z</time></trkpt>
<trkpt lat="42.267215" lon="3.249932"><ele></ele><time>2014-4-9T1:15:7Z</time></trkpt>
<trkpt lat="42.267178" lon="3.250058"><ele></ele><time>2014-4-9T1:15:10Z</time></trkpt>
<trkpt lat="42.267158" lon="3.250187"><ele></ele><time>2014-4-9T1:15:13Z</time></trkpt>
<trkpt lat="42.267152" lon="3.250320"><ele></ele><time>2014-4-9T1:15:16Z</time></trkpt>
<trkpt lat="42.267185" lon="3.250450"><ele></ele><time>2014-4-9T1:15:19Z</time></trkpt>
<trkpt lat="42.267253" lon="3.250562"><ele></ele><time>2014-4-9T1:15:22Z</time></trkpt>
<trkpt lat="42.267330" lon="3.250668"><ele></ele><time>2014-4-9T1:15:25Z</time></trkpt>
<trkpt lat="42.267398" lon="3.250758"><ele></ele><time>2014-4-9T1:15:28Z</time></trkpt>
<trkpt lat="42.267467" lon="3.250857"><ele></ele><time>2014-4-9T1:15:31Z</time></trkpt>
<trkpt lat="42.267537" lon="3.250962"><ele></ele><time>2014-4-9T1:15:34Z</time></trkpt>
<trkpt lat="42.267602" lon="3.251077"><ele></ele><time>2014-4-9T1:15:37Z</time></trkpt>
<trkpt lat="42.267658" lon="3.251195"><ele></ele><time>2014-4-9T1:15:40Z</time></trkpt>
<trkpt lat="42.267735" lon="3.251312"><ele></ele><time>2014-4-9T1:15:43Z</time></trkpt>
<trkpt lat="42.267815" lon="3.251413"><ele></ele><time>2014-4-9T1:15:46Z</time></trkpt>
<trkpt lat="42.267887" lon="3.251525"><ele></ele><time>2014-4-9T1:15:49Z</time></trkpt>
<trkpt lat="42.267937" lon="3.251657"><ele></ele><time>2014-4-9T1:15:52Z</time></trkpt>
<trkpt lat="42.267948" lon="3.251802"><ele></ele><time>2014-4-9T1:15:55Z</time></trkpt>
<trkpt lat="42.267945" lon="3.251948"><ele></ele><time>2014-4-9T1:15:58Z</time></trkpt>
<trkpt lat="42.267928" lon="3.252093"><ele></ele><time>2014-4-9T1:16:1Z</time></trkpt>
<trkpt lat="42.267895" lon="3.252237"><ele></ele><time>2014-4-9T1:16:4Z</time></trkpt>
<trkpt lat="42.267868" lon="3.252368"><ele></ele><time>2014-4-9T1:16:7Z</time></trkpt>
<trkpt lat="42.267833" lon="3.252502"><ele></ele><time>2014-4-9T1:16:10Z</time></trkpt>
<trkpt lat="42.267803" lon="3.252633"><ele></ele><time>2014-4-9T1:16:13Z</time></trkpt>
<trkpt lat="42.267777" lon="3.252767"><ele></ele><time>2014-4-9T1:16:16Z</time></trkpt>
<trkpt lat="42.267768" lon="3.252910"><ele></ele><time>2014-4-9T1:16:19Z</time></trkpt>
<trkpt lat="42.267810" lon="3.253052"><ele></ele><time>2014-4-9T1:16:22Z</time></trkpt>
<trkpt lat="42.267875" lon="3.253175"><ele></ele><time>2014-4-9T1:16:25Z</time></trkpt>
<trkpt lat="42.267948" lon="3.253273"><ele></ele><time>2014-4-9T1:16:28Z</time></trkpt>
<trkpt lat="42.268020" lon="3.253375"><ele></ele><time>2014-4-9T1:16:31Z</time></trkpt>
<trkpt lat="42.268082" lon="3.253483"><ele></ele><time>2014-4-9T1:16:34Z</time></trkpt>
<trkpt lat="42.268147" lon="3.253595"><ele></ele><time>2014-4-9T1:16:37Z</time></trkpt>
<trkpt lat="42.268188" lon="3.253727"><ele></ele><time>2014-4-9T1:16:40Z</time></trkpt>
<trkpt lat="42.268127" lon="3.253832"><ele></ele><time>2014-4-9T1:16:43Z</time></trkpt>
<trkpt lat="42.268037" lon="3.253860"><ele></ele><time>2014-4-9T1:16:46Z</time></trkpt>
<trkpt lat="42.267940" lon="3.253850"><ele></ele><time>2014-4-9T1:16:49Z</time></trkpt>
<trkpt lat="42.267830" lon="3.253895"><ele></ele><time>2014-4-9T1:16:52Z</time></trkpt>
<trkpt lat="42.267703" lon="3.253940"><ele></ele><time>2014-4-9T1:16:55Z</time></trkpt>
<trkpt lat="42.267578" lon="3.253975"><ele></ele><time>2014-4-9T1:16:58Z</time></trkpt>
<trkpt lat="42.267452" lon="3.254023"><ele></ele><time>2014-4-9T1:17:1Z</time></trkpt>
<trkpt lat="42.267327" lon="3.254122"><ele></ele><time>2014-4-9T1:17:4Z</time></trkpt>
<trkpt lat="42.267215" lon="3.254273"><ele></ele><time>2014-4-9T1:17:7Z</time></trkpt>
<trkpt lat="42.267132" lon="3.254452"><ele></ele><time>2014-4-9T1:17:10Z</time></trkpt>
<trkpt lat="42.267102" lon="3.254672"><ele></ele><time>2014-4-9T1:17:13Z</time></trkpt>
<trkpt lat="42.267113" lon="3.254903"><ele></ele><time>2014-4-9T1:17:16Z</time></trkpt>
<trkpt lat="42.267043" lon="3.255090"><ele></ele><time>2014-4-9T1:17:19Z</time></trkpt>
<trkpt lat="42.266892" lon="3.255130"><ele></ele><time>2014-4-9T1:17:22Z</time></trkpt>
<trkpt lat="42.266727" lon="3.255130"><ele></ele><time>2014-4-9T1:17:25Z</time></trkpt>
<trkpt lat="42.266567" lon="3.255133"><ele></ele><time>2014-4-9T1:17:28Z</time></trkpt>
<trkpt lat="42.266407" lon="3.255200"><ele></ele><time>2014-4-9T1:17:31Z</time></trkpt>
<trkpt lat="42.266243" lon="3.255282"><ele></ele><time>2014-4-9T1:17:34Z</time></trkpt>
<trkpt lat="42.266095" lon="3.255337"><ele></ele><time>2014-4-9T1:17:37Z</time></trkpt>
<trkpt lat="42.265972" lon="3.255363"><ele></ele><time>2014-4-9T1:17:40Z</time></trkpt>
<trkpt lat="42.265880" lon="3.255428"><ele></ele><time>2014-4-9T1:17:43Z</time></trkpt>
<trkpt lat="42.265782" lon="3.255555"><ele></ele><time>2014-4-9T1:17:46Z</time></trkpt>
<trkpt lat="42.265702" lon="3.255740"><ele></ele><time>2014-4-9T1:17:49Z</time></trkpt>
<trkpt lat="42.265643" lon="3.255948"><ele></ele><time>2014-4-9T1:17:52Z</time></trkpt>
<trkpt lat="42.265587" lon="3.256180"><ele></ele><time>2014-4-9T1:17:55Z</time></trkpt>
<trkpt lat="42.265525" lon="3.256408"><ele></ele><time>2014-4-9T1:17:58Z</time></trkpt>
<trkpt lat="42.265450" lon="3.256658"><ele></ele><time>2014-4-9T1:18:1Z</time></trkpt>
<trkpt lat="42.265385" lon="3.256913"><ele></ele><time>2014-4-9T1:18:4Z</time></trkpt>
<trkpt lat="42.265347" lon="3.257168"><ele></ele><time>2014-4-9T1:18:7Z</time></trkpt>
<trkpt lat="42.265320" lon="3.257465"><ele></ele><time>2014-4-9T1:18:10Z</time></trkpt>
<trkpt lat="42.265308" lon="3.257760"><ele></ele><time>2014-4-9T1:18:13Z</time></trkpt>
<trkpt lat="42.265308" lon="3.258057"><ele></ele><time>2014-4-9T1:18:16Z</time></trkpt>
<trkpt lat="42.265308" lon="3.258388"><ele></ele><time>2014-4-9T1:18:19Z</time></trkpt>
<trkpt lat="42.265210" lon="3.258687"><ele></ele><time>2014-4-9T1:18:22Z</time></trkpt>
<trkpt lat="42.265083" lon="3.258967"><ele></ele><time>2014-4-9T1:18:25Z</time></trkpt>
<trkpt lat="42.264962" lon="3.259242"><ele></ele><time>2014-4-9T1:18:28Z</time></trkpt>
<trkpt lat="42.264847" lon="3.259473"><ele></ele><time>2014-4-9T1:18:31Z</time></trkpt>
<trkpt lat="42.264705" lon="3.259617"><ele></ele><time>2014-4-9T1:18:34Z</time></trkpt>
<trkpt lat="42.264527" lon="3.259662"><ele></ele><time>2014-4-9T1:18:37Z</time></trkpt>
<trkpt lat="42.264362" lon="3.259742"><ele></ele><time>2014-4-9T1:18:40Z</time></trkpt>
<trkpt lat="42.264252" lon="3.259863"><ele></ele><time>2014-4-9T1:18:43Z</time></trkpt>
<trkpt lat="42.264222" lon="3.259908"><ele></ele><time>2014-4-9T1:18:46Z</time></trkpt>
<trkpt lat="42.264225" lon="3.259910"><ele></ele><time>2014-4-9T1:18:49Z</time></trkpt>
<trkpt lat="42.264233" lon="3.259895"><ele></ele><time>2014-4-9T1:18:52Z</time></trkpt>
<trkpt lat="42.264217" lon="3.259905"><ele></ele><time>2014-4-9T1:18:55Z</time></trkpt>
<trkpt lat="42.264213" lon="3.259913"><ele></ele><time>2014-4-9T1:18:58Z</time></trkpt>
<trkpt lat="42.264207" lon="3.259918"><ele></ele><time>2014-4-9T1:19:1Z</time></trkpt>
<trkpt lat="42.264187" lon="3.259928"><ele></ele><time>2014-4-9T1:19:4Z</time></trkpt>
<trkpt lat="42.264187" lon="3.259928"><ele></ele><time>2014-4-9T1:19:7Z</time></trkpt>
<trkpt lat="42.264187" lon="3.259925"><ele></ele><time>2014-4-9T1:19:10Z</time></trkpt>
<trkpt lat="42.264190" lon="3.259923"><ele></ele><time>2014-4-9T1:19:13Z</time></trkpt>
<trkpt lat="42.264175" lon="3.259928"><ele></ele><time>2014-4-9T1:19:16Z</time></trkpt>
<trkpt lat="42.264142" lon="3.259973"><ele></ele><time>2014-4-9T1:19:19Z</time></trkpt>
<trkpt lat="42.264068" lon="3.260088"><ele></ele><time>2014-4-9T1:19:22Z</time></trkpt>
<trkpt lat="42.263973" lon="3.260233"><ele></ele><time>2014-4-9T1:19:25Z</time></trkpt>
<trkpt lat="42.263873" lon="3.260363"><ele></ele><time>2014-4-9T1:19:28Z</time></trkpt>
<trkpt lat="42.263760" lon="3.260500"><ele></ele><time>2014-4-9T1:19:31Z</time></trkpt>
<trkpt lat="42.263687" lon="3.260693"><ele></ele><time>2014-4-9T1:19:34Z</time></trkpt>
<trkpt lat="42.263648" lon="3.260935"><ele></ele><time>2014-4-9T1:19:37Z</time></trkpt>
<trkpt lat="42.263633" lon="3.261220"><ele></ele><time>2014-4-9T1:19:40Z</time></trkpt>
<trkpt lat="42.263642" lon="3.261545"><ele></ele><time>2014-4-9T1:19:43Z</time></trkpt>
<trkpt lat="42.263618" lon="3.261868"><ele></ele><time>2014-4-9T1:19:46Z</time></trkpt>
<trkpt lat="42.263583" lon="3.262203"><ele></ele><time>2014-4-9T1:19:49Z</time></trkpt>
<trkpt lat="42.263553" lon="3.262538"><ele></ele><time>2014-4-9T1:19:52Z</time></trkpt>
<trkpt lat="42.263527" lon="3.262832"><ele></ele><time>2014-4-9T1:19:55Z</time></trkpt>
<trkpt lat="42.263485" lon="3.263117"><ele></ele><time>2014-4-9T1:19:58Z</time></trkpt>
<trkpt lat="42.263485" lon="3.263433"><ele></ele><time>2014-4-9T1:20:1Z</time></trkpt>
<trkpt lat="42.263515" lon="3.263718"><ele></ele><time>2014-4-9T1:20:4Z</time></trkpt>
<trkpt lat="42.263615" lon="3.263945"><ele></ele><time>2014-4-9T1:20:7Z</time></trkpt>
<trkpt lat="42.263840" lon="3.263978"><ele></ele><time>2014-4-9T1:20:10Z</time></trkpt>
<trkpt lat="42.264068" lon="3.264022"><ele></ele><time>2014-4-9T1:20:13Z</time></trkpt>
<trkpt lat="42.264202" lon="3.264247"><ele></ele><time>2014-4-9T1:20:16Z</time></trkpt>
<trkpt lat="42.264287" lon="3.264530"><ele></ele><time>2014-4-9T1:20:19Z</time></trkpt>
<trkpt lat="42.264393" lon="3.264812"><ele></ele><time>2014-4-9T1:20:22Z</time></trkpt>
<trkpt lat="42.264492" lon="3.265112"><ele></ele><time>2014-4-9T1:20:25Z</time></trkpt>
<trkpt lat="42.264533" lon="3.265442"><ele></ele><time>2014-4-9T1:20:28Z</time></trkpt>
<trkpt lat="42.264687" lon="3.265728"><ele></ele><time>2014-4-9T1:20:31Z</time></trkpt>
<trkpt lat="42.264968" lon="3.265748"><ele></ele><time>2014-4-9T1:20:34Z</time></trkpt>
<trkpt lat="42.265198" lon="3.265597"><ele></ele><time>2014-4-9T1:20:37Z</time></trkpt>
<trkpt lat="42.265392" lon="3.265435"><ele></ele><time>2014-4-9T1:20:40Z</time></trkpt>
<trkpt lat="42.265580" lon="3.265265"><ele></ele><time>2014-4-9T1:20:43Z</time></trkpt>
<trkpt lat="42.265767" lon="3.265075"><ele></ele><time>2014-4-9T1:20:46Z</time></trkpt>
<trkpt lat="42.265950" lon="3.264890"><ele></ele><time>2014-4-9T1:20:49Z</time></trkpt>
<trkpt lat="42.266132" lon="3.264683"><ele></ele><time>2014-4-9T1:20:52Z</time></trkpt>
<trkpt lat="42.266320" lon="3.264437"><ele></ele><time>2014-4-9T1:20:55Z</time></trkpt>
<trkpt lat="42.266483" lon="3.264192"><ele></ele><time>2014-4-9T1:20:58Z</time></trkpt>
<trkpt lat="42.266643" lon="3.263953"><ele></ele><time>2014-4-9T1:21:1Z</time></trkpt>
<trkpt lat="42.266800" lon="3.263752"><ele></ele><time>2014-4-9T1:21:4Z</time></trkpt>
<trkpt lat="42.266972" lon="3.263612"><ele></ele><time>2014-4-9T1:21:7Z</time></trkpt>
<trkpt lat="42.267135" lon="3.263588"><ele></ele><time>2014-4-9T1:21:10Z</time></trkpt>
<trkpt lat="42.267307" lon="3.263578"><ele></ele><time>2014-4-9T1:21:13Z</time></trkpt>
<trkpt lat="42.267498" lon="3.263513"><ele></ele><time>2014-4-9T1:21:16Z</time></trkpt>
<trkpt lat="42.267688" lon="3.263437"><ele></ele><time>2014-4-9T1:21:19Z</time></trkpt>
<trkpt lat="42.267892" lon="3.263428"><ele></ele><time>2014-4-9T1:21:22Z</time></trkpt>
<trkpt lat="42.267955" lon="3.263643"><ele></ele><time>2014-4-9T1:21:25Z</time></trkpt>
<trkpt lat="42.267982" lon="3.263873"><ele></ele><time>2014-4-9T1:21:28Z</time></trkpt>
<trkpt lat="42.268025" lon="3.264090"><ele></ele><time>2014-4-9T1:21:31Z</time></trkpt>
<trkpt lat="42.268082" lon="3.264340"><ele></ele><time>2014-4-9T1:21:34Z</time></trkpt>
<trkpt lat="42.268135" lon="3.264612"><ele></ele><time>2014-4-9T1:21:37Z</time></trkpt>
<trkpt lat="42.268147" lon="3.264890"><ele></ele><time>2014-4-9T1:21:40Z</time></trkpt>
<trkpt lat="42.268112" lon="3.265112"><ele></ele><time>2014-4-9T1:21:43Z</time></trkpt>
<trkpt lat="42.268073" lon="3.265298"><ele></ele><time>2014-4-9T1:21:46Z</time></trkpt>
<trkpt lat="42.268082" lon="3.265508"><ele></ele><time>2014-4-9T1:21:49Z</time></trkpt>
<trkpt lat="42.268150" lon="3.265700"><ele></ele><time>2014-4-9T1:21:52Z</time></trkpt>
<trkpt lat="42.268295" lon="3.265860"><ele></ele><time>2014-4-9T1:21:55Z</time></trkpt>
<trkpt lat="42.268493" lon="3.265853"><ele></ele><time>2014-4-9T1:21:58Z</time></trkpt>
<trkpt lat="42.268700" lon="3.265815"><ele></ele><time>2014-4-9T1:22:1Z</time></trkpt>
<trkpt lat="42.268830" lon="3.266007"><ele></ele><time>2014-4-9T1:22:4Z</time></trkpt>
<trkpt lat="42.268742" lon="3.266225"><ele></ele><time>2014-4-9T1:22:7Z</time></trkpt>
<trkpt lat="42.268635" lon="3.266473"><ele></ele><time>2014-4-9T1:22:10Z</time></trkpt>
<trkpt lat="42.268540" lon="3.266807"><ele></ele><time>2014-4-9T1:22:13Z</time></trkpt>
<trkpt lat="42.268440" lon="3.267175"><ele></ele><time>2014-4-9T1:22:16Z</time></trkpt>
<trkpt lat="42.268315" lon="3.267530"><ele></ele><time>2014-4-9T1:22:19Z</time></trkpt>
<trkpt lat="42.268407" lon="3.267798"><ele></ele><time>2014-4-9T1:22:22Z</time></trkpt>
<trkpt lat="42.268653" lon="3.267862"><ele></ele><time>2014-4-9T1:22:25Z</time></trkpt>
<trkpt lat="42.268932" lon="3.267798"><ele></ele><time>2014-4-9T1:22:28Z</time></trkpt>
<trkpt lat="42.269218" lon="3.267693"><ele></ele><time>2014-4-9T1:22:31Z</time></trkpt>
<trkpt lat="42.269517" lon="3.267630"><ele></ele><time>2014-4-9T1:22:34Z</time></trkpt>
<trkpt lat="42.269817" lon="3.267617"><ele></ele><time>2014-4-9T1:22:37Z</time></trkpt>
<trkpt lat="42.270068" lon="3.267783"><ele></ele><time>2014-4-9T1:22:40Z</time></trkpt>
<trkpt lat="42.269970" lon="3.268090"><ele></ele><time>2014-4-9T1:22:43Z</time></trkpt>
<trkpt lat="42.270012" lon="3.268358"><ele></ele><time>2014-4-9T1:22:46Z</time></trkpt>
<trkpt lat="42.270245" lon="3.268357"><ele></ele><time>2014-4-9T1:22:49Z</time></trkpt>
<trkpt lat="42.270482" lon="3.268233"><ele></ele><time>2014-4-9T1:22:52Z</time></trkpt>
<trkpt lat="42.270752" lon="3.268122"><ele></ele><time>2014-4-9T1:22:55Z</time></trkpt>
<trkpt lat="42.271023" lon="3.268042"><ele></ele><time>2014-4-9T1:22:58Z</time></trkpt>
<trkpt lat="42.271290" lon="3.267912"><ele></ele><time>2014-4-9T1:23:1Z</time></trkpt>
<trkpt lat="42.271577" lon="3.267710"><ele></ele><time>2014-4-9T1:23:4Z</time></trkpt>
<trkpt lat="42.271812" lon="3.267420"><ele></ele><time>2014-4-9T1:23:7Z</time></trkpt>
<trkpt lat="42.271977" lon="3.267118"><ele></ele><time>2014-4-9T1:23:10Z</time></trkpt>
<trkpt lat="42.272213" lon="3.266963"><ele></ele><time>2014-4-9T1:23:13Z</time></trkpt>
<trkpt lat="42.272450" lon="3.266722"><ele></ele><time>2014-4-9T1:23:16Z</time></trkpt>
<trkpt lat="42.272530" lon="3.266250"><ele></ele><time>2014-4-9T1:23:19Z</time></trkpt>
<trkpt lat="42.272643" lon="3.265793"><ele></ele><time>2014-4-9T1:23:22Z</time></trkpt>
<trkpt lat="42.272682" lon="3.265358"><ele></ele><time>2014-4-9T1:23:25Z</time></trkpt>
<trkpt lat="42.272868" lon="3.265370"><ele></ele><time>2014-4-9T1:23:28Z</time></trkpt>
<trkpt lat="42.273003" lon="3.265648"><ele></ele><time>2014-4-9T1:23:31Z</time></trkpt>
<trkpt lat="42.273232" lon="3.265808"><ele></ele><time>2014-4-9T1:23:34Z</time></trkpt>
<trkpt lat="42.273442" lon="3.266060"><ele></ele><time>2014-4-9T1:23:37Z</time></trkpt>
<trkpt lat="42.273685" lon="3.266177"><ele></ele><time>2014-4-9T1:23:40Z</time></trkpt>
<trkpt lat="42.273922" lon="3.266077"><ele></ele><time>2014-4-9T1:23:43Z</time></trkpt>
<trkpt lat="42.274097" lon="3.265843"><ele></ele><time>2014-4-9T1:23:46Z</time></trkpt>
<trkpt lat="42.274277" lon="3.266028"><ele></ele><time>2014-4-9T1:23:49Z</time></trkpt>
<trkpt lat="42.274532" lon="3.266220"><ele></ele><time>2014-4-9T1:23:52Z</time></trkpt>
<trkpt lat="42.274807" lon="3.266365"><ele></ele><time>2014-4-9T1:23:55Z</time></trkpt>
<trkpt lat="42.275078" lon="3.266563"><ele></ele><time>2014-4-9T1:23:58Z</time></trkpt>
<trkpt lat="42.275093" lon="3.266928"><ele></ele><time>2014-4-9T1:24:1Z</time></trkpt>
<trkpt lat="42.274975" lon="3.267385"><ele></ele><time>2014-4-9T1:24:4Z</time></trkpt>
<trkpt lat="42.275100" lon="3.267667"><ele></ele><time>2014-4-9T1:24:7Z</time></trkpt>
<trkpt lat="42.275345" lon="3.267490"><ele></ele><time>2014-4-9T1:24:10Z</time></trkpt>
<trkpt lat="42.275573" lon="3.267208"><ele></ele><time>2014-4-9T1:24:13Z</time></trkpt>
<trkpt lat="42.275798" lon="3.267093"><ele></ele><time>2014-4-9T1:24:16Z</time></trkpt>
<trkpt lat="42.276043" lon="3.266942"><ele></ele><time>2014-4-9T1:24:19Z</time></trkpt>
<trkpt lat="42.276035" lon="3.266513"><ele></ele><time>2014-4-9T1:24:22Z</time></trkpt>
<trkpt lat="42.276210" lon="3.266413"><ele></ele><time>2014-4-9T1:24:25Z</time></trkpt>
<trkpt lat="42.276393" lon="3.266740"><ele></ele><time>2014-4-9T1:24:28Z</time></trkpt>
<trkpt lat="42.276440" lon="3.267153"><ele></ele><time>2014-4-9T1:24:31Z</time></trkpt>
<trkpt lat="42.276408" lon="3.267533"><ele></ele><time>2014-4-9T1:24:34Z</time></trkpt>
<trkpt lat="42.276645" lon="3.267507"><ele></ele><time>2014-4-9T1:24:37Z</time></trkpt>
<trkpt lat="42.276875" lon="3.267213"><ele></ele><time>2014-4-9T1:24:40Z</time></trkpt>
<trkpt lat="42.277012" lon="3.266878"><ele></ele><time>2014-4-9T1:24:43Z</time></trkpt>
<trkpt lat="42.277252" lon="3.266925"><ele></ele><time>2014-4-9T1:24:46Z</time></trkpt>
<trkpt lat="42.277275" lon="3.267320"><ele></ele><time>2014-4-9T1:24:49Z</time></trkpt>
<trkpt lat="42.277192" lon="3.267743"><ele></ele><time>2014-4-9T1:24:52Z</time></trkpt>
<trkpt lat="42.277122" lon="3.268153"><ele></ele><time>2014-4-9T1:24:55Z</time></trkpt>
<trkpt lat="42.276993" lon="3.268482"><ele></ele><time>2014-4-9T1:24:58Z</time></trkpt>
<trkpt lat="42.276837" lon="3.268763"><ele></ele><time>2014-4-9T1:25:1Z</time></trkpt>
<trkpt lat="42.276828" lon="3.269027"><ele></ele><time>2014-4-9T1:25:4Z</time></trkpt>
<trkpt lat="42.277005" lon="3.269327"><ele></ele><time>2014-4-9T1:25:7Z</time></trkpt>
<trkpt lat="42.277278" lon="3.269475"><ele></ele><time>2014-4-9T1:25:10Z</time></trkpt>
<trkpt lat="42.277470" lon="3.269670"><ele></ele><time>2014-4-9T1:25:13Z</time></trkpt>
<trkpt lat="42.277627" lon="3.269952"><ele></ele><time>2014-4-9T1:25:16Z</time></trkpt>
<trkpt lat="42.277820" lon="3.270173"><ele></ele><time>2014-4-9T1:25:19Z</time></trkpt>
<trkpt lat="42.277878" lon="3.270500"><ele></ele><time>2014-4-9T1:25:22Z</time></trkpt>
<trkpt lat="42.277858" lon="3.270822"><ele></ele><time>2014-4-9T1:25:25Z</time></trkpt>
<trkpt lat="42.278030" lon="3.270900"><ele></ele><time>2014-4-9T1:25:28Z</time></trkpt>
<trkpt lat="42.278072" lon="3.270572"><ele></ele><time>2014-4-9T1:25:31Z</time></trkpt>
<trkpt lat="42.278287" lon="3.270340"><ele></ele><time>2014-4-9T1:25:34Z</time></trkpt>
<trkpt lat="42.278512" lon="3.270222"><ele></ele><time>2014-4-9T1:25:37Z</time></trkpt>
<trkpt lat="42.278663" lon="3.270508"><ele></ele><time>2014-4-9T1:25:40Z</time></trkpt>
<trkpt lat="42.278900" lon="3.270413"><ele></ele><time>2014-4-9T1:25:43Z</time></trkpt>
<trkpt lat="42.279000" lon="3.270688"><ele></ele><time>2014-4-9T1:25:46Z</time></trkpt>
<trkpt lat="42.278935" lon="3.271115"><ele></ele><time>2014-4-9T1:25:49Z</time></trkpt>
<trkpt lat="42.278855" lon="3.271472"><ele></ele><time>2014-4-9T1:25:52Z</time></trkpt>
<trkpt lat="42.279057" lon="3.271728"><ele></ele><time>2014-4-9T1:25:55Z</time></trkpt>
<trkpt lat="42.279198" lon="3.272095"><ele></ele><time>2014-4-9T1:25:58Z</time></trkpt>
<trkpt lat="42.279350" lon="3.272453"><ele></ele><time>2014-4-9T1:26:1Z</time></trkpt>
<trkpt lat="42.279442" lon="3.272850"><ele></ele><time>2014-4-9T1:26:4Z</time></trkpt>
<trkpt lat="42.279705" lon="3.273015"><ele></ele><time>2014-4-9T1:26:7Z</time></trkpt>
<trkpt lat="42.279853" lon="3.273375"><ele></ele><time>2014-4-9T1:26:10Z</time></trkpt>
<trkpt lat="42.279960" lon="3.273770"><ele></ele><time>2014-4-9T1:26:13Z</time></trkpt>
<trkpt lat="42.279880" lon="3.274217"><ele></ele><time>2014-4-9T1:26:16Z</time></trkpt>
<trkpt lat="42.279702" lon="3.274605"><ele></ele><time>2014-4-9T1:26:19Z</time></trkpt>
<trkpt lat="42.279693" lon="3.274820"><ele></ele><time>2014-4-9T1:26:22Z</time></trkpt>
<trkpt lat="42.279873" lon="3.274877"><ele></ele><time>2014-4-9T1:26:25Z</time></trkpt>
<trkpt lat="42.280117" lon="3.274692"><ele></ele><time>2014-4-9T1:26:28Z</time></trkpt>
<trkpt lat="42.280422" lon="3.274485"><ele></ele><time>2014-4-9T1:26:31Z</time></trkpt>
<trkpt lat="42.280620" lon="3.274210"><ele></ele><time>2014-4-9T1:26:34Z</time></trkpt>
<trkpt lat="42.280667" lon="3.273900"><ele></ele><time>2014-4-9T1:26:37Z</time></trkpt>
<trkpt lat="42.280888" lon="3.273988"><ele></ele><time>2014-4-9T1:26:40Z</time></trkpt>
<trkpt lat="42.281113" lon="3.274150"><ele></ele><time>2014-4-9T1:26:43Z</time></trkpt>
<trkpt lat="42.281173" lon="3.274542"><ele></ele><time>2014-4-9T1:26:46Z</time></trkpt>
<trkpt lat="42.281170" lon="3.275008"><ele></ele><time>2014-4-9T1:26:49Z</time></trkpt>
<trkpt lat="42.281238" lon="3.275373"><ele></ele><time>2014-4-9T1:26:52Z</time></trkpt>
<trkpt lat="42.281285" lon="3.275457"><ele></ele><time>2014-4-9T1:26:55Z</time></trkpt>
<trkpt lat="42.281280" lon="3.275457"><ele></ele><time>2014-4-9T1:26:58Z</time></trkpt>
<trkpt lat="42.281280" lon="3.275457"><ele></ele><time>2014-4-9T1:27:1Z</time></trkpt>
<trkpt lat="42.281280" lon="3.275458"><ele></ele><time>2014-4-9T1:27:4Z</time></trkpt>
<trkpt lat="42.281277" lon="3.275458"><ele></ele><time>2014-4-9T1:27:7Z</time></trkpt>
<trkpt lat="42.281273" lon="3.275452"><ele></ele><time>2014-4-9T1:27:10Z</time></trkpt>
<trkpt lat="42.281268" lon="3.275445"><ele></ele><time>2014-4-9T1:27:13Z</time></trkpt>
<trkpt lat="42.281265" lon="3.275447"><ele></ele><time>2014-4-9T1:27:16Z</time></trkpt>
<trkpt lat="42.281345" lon="3.275438"><ele></ele><time>2014-4-9T1:27:19Z</time></trkpt>
<trkpt lat="42.281585" lon="3.275495"><ele></ele><time>2014-4-9T1:27:22Z</time></trkpt>
<trkpt lat="42.281918" lon="3.275612"><ele></ele><time>2014-4-9T1:27:25Z</time></trkpt>
<trkpt lat="42.282292" lon="3.275617"><ele></ele><time>2014-4-9T1:27:28Z</time></trkpt>
<trkpt lat="42.282692" lon="3.275523"><ele></ele><time>2014-4-9T1:27:31Z</time></trkpt>
<trkpt lat="42.283028" lon="3.275690"><ele></ele><time>2014-4-9T1:27:34Z</time></trkpt>
<trkpt lat="42.283268" lon="3.275865"><ele></ele><time>2014-4-9T1:27:37Z</time></trkpt>
<trkpt lat="42.283500" lon="3.275797"><ele></ele><time>2014-4-9T1:27:40Z</time></trkpt>
<trkpt lat="42.283745" lon="3.275640"><ele></ele><time>2014-4-9T1:27:43Z</time></trkpt>
<trkpt lat="42.283978" lon="3.275453"><ele></ele><time>2014-4-9T1:27:46Z</time></trkpt>
<trkpt lat="42.284203" lon="3.275297"><ele></ele><time>2014-4-9T1:27:49Z</time></trkpt>
<trkpt lat="42.284435" lon="3.275272"><ele></ele><time>2014-4-9T1:27:52Z</time></trkpt>
<trkpt lat="42.284642" lon="3.275305"><ele></ele><time>2014-4-9T1:27:55Z</time></trkpt>
<trkpt lat="42.284817" lon="3.275417"><ele></ele><time>2014-4-9T1:27:58Z</time></trkpt>
<trkpt lat="42.284935" lon="3.275548"><ele></ele><time>2014-4-9T1:28:1Z</time></trkpt>
<trkpt lat="42.285035" lon="3.275688"><ele></ele><time>2014-4-9T1:28:4Z</time></trkpt>
<trkpt lat="42.285133" lon="3.275750"><ele></ele><time>2014-4-9T1:28:7Z</time></trkpt>
<trkpt lat="42.285237" lon="3.275682"><ele></ele><time>2014-4-9T1:28:10Z</time></trkpt>
<trkpt lat="42.285287" lon="3.275652"><ele></ele><time>2014-4-9T1:28:13Z</time></trkpt>
<trkpt lat="42.285317" lon="3.275558"><ele></ele><time>2014-4-9T1:28:16Z</time></trkpt>
<trkpt lat="42.285320" lon="3.275550"><ele></ele><time>2014-4-9T1:28:19Z</time></trkpt>
<trkpt lat="42.285317" lon="3.275547"><ele></ele><time>2014-4-9T1:28:22Z</time></trkpt>
<trkpt lat="42.285317" lon="3.275550"><ele></ele><time>2014-4-9T1:28:25Z</time></trkpt>
<trkpt lat="42.285317" lon="3.275548"><ele></ele><time>2014-4-9T1:28:28Z</time></trkpt>
<trkpt lat="42.285293" lon="3.275595"><ele></ele><time>2014-4-9T1:28:31Z</time></trkpt>
<trkpt lat="42.285308" lon="3.275627"><ele></ele><time>2014-4-9T1:28:34Z</time></trkpt>
<trkpt lat="42.285332" lon="3.275523"><ele></ele><time>2014-4-9T1:28:37Z</time></trkpt>
<trkpt lat="42.285340" lon="3.275427"><ele></ele><time>2014-4-9T1:28:40Z</time></trkpt>
<trkpt lat="42.285347" lon="3.275342"><ele></ele><time>2014-4-9T1:28:43Z</time></trkpt>
<trkpt lat="42.285347" lon="3.275267"><ele></ele><time>2014-4-9T1:28:46Z</time></trkpt>
<trkpt lat="42.285378" lon="3.275177"><ele></ele><time>2014-4-9T1:28:49Z</time></trkpt>
<trkpt lat="42.285432" lon="3.275097"><ele></ele><time>2014-4-9T1:28:52Z</time></trkpt>
<trkpt lat="42.285480" lon="3.275010"><ele></ele><time>2014-4-9T1:28:55Z</time></trkpt>
<trkpt lat="42.285533" lon="3.274923"><ele></ele><time>2014-4-9T1:28:58Z</time></trkpt>
<trkpt lat="42.285577" lon="3.274827"><ele></ele><time>2014-4-9T1:29:1Z</time></trkpt>
<trkpt lat="42.285640" lon="3.274783"><ele></ele><time>2014-4-9T1:29:4Z</time></trkpt>
<trkpt lat="42.285770" lon="3.274922"><ele></ele><time>2014-4-9T1:29:7Z</time></trkpt>
<trkpt lat="42.285888" lon="3.275070"><ele></ele><time>2014-4-9T1:29:10Z</time></trkpt>
<trkpt lat="42.285968" lon="3.275157"><ele></ele><time>2014-4-9T1:29:13Z</time></trkpt>
<trkpt lat="42.286042" lon="3.275257"><ele></ele><time>2014-4-9T1:29:16Z</time></trkpt>
<trkpt lat="42.286113" lon="3.275370"><ele></ele><time>2014-4-9T1:29:19Z</time></trkpt>
<trkpt lat="42.286205" lon="3.275345"><ele></ele><time>2014-4-9T1:29:22Z</time></trkpt>
<trkpt lat="42.286252" lon="3.275257"><ele></ele><time>2014-4-9T1:29:25Z</time></trkpt>
<trkpt lat="42.286308" lon="3.275177"><ele></ele><time>2014-4-9T1:29:28Z</time></trkpt>
<trkpt lat="42.286365" lon="3.275092"><ele></ele><time>2014-4-9T1:29:31Z</time></trkpt>
<trkpt lat="42.286407" lon="3.274997"><ele></ele><time>2014-4-9T1:29:34Z</time></trkpt>
<trkpt lat="42.286445" lon="3.274902"><ele></ele><time>2014-4-9T1:29:37Z</time></trkpt>
<trkpt lat="42.286498" lon="3.274817"><ele></ele><time>2014-4-9T1:29:40Z</time></trkpt>
<trkpt lat="42.286598" lon="3.274798"><ele></ele><time>2014-4-9T1:29:43Z</time></trkpt>
<trkpt lat="42.286747" lon="3.274908"><ele></ele><time>2014-4-9T1:29:46Z</time></trkpt>
<trkpt lat="42.286903" lon="3.275048"><ele></ele><time>2014-4-9T1:29:49Z</time></trkpt>
<trkpt lat="42.286972" lon="3.275148"><ele></ele><time>2014-4-9T1:29:52Z</time></trkpt>
<trkpt lat="42.287057" lon="3.275070"><ele></ele><time>2014-4-9T1:29:55Z</time></trkpt>
<trkpt lat="42.287132" lon="3.274972"><ele></ele><time>2014-4-9T1:29:58Z</time></trkpt>
<trkpt lat="42.287235" lon="3.274843"><ele></ele><time>2014-4-9T1:30:1Z</time></trkpt>
<trkpt lat="42.287383" lon="3.274660"><ele></ele><time>2014-4-9T1:30:4Z</time></trkpt>
<trkpt lat="42.287552" lon="3.274468"><ele></ele><time>2014-4-9T1:30:7Z</time></trkpt>
<trkpt lat="42.287720" lon="3.274297"><ele></ele><time>2014-4-9T1:30:10Z</time></trkpt>
<trkpt lat="42.287838" lon="3.274168"><ele></ele><time>2014-4-9T1:30:13Z</time></trkpt>
<trkpt lat="42.287972" lon="3.274043"><ele></ele><time>2014-4-9T1:30:16Z</time></trkpt>
<trkpt lat="42.288188" lon="3.273925"><ele></ele><time>2014-4-9T1:30:19Z</time></trkpt>
<trkpt lat="42.288407" lon="3.273838"><ele></ele><time>2014-4-9T1:30:22Z</time></trkpt>
<trkpt lat="42.288558" lon="3.273837"><ele></ele><time>2014-4-9T1:30:25Z</time></trkpt>
<trkpt lat="42.288727" lon="3.273973"><ele></ele><time>2014-4-9T1:30:28Z</time></trkpt>
<trkpt lat="42.288768" lon="3.274103"><ele></ele><time>2014-4-9T1:30:31Z</time></trkpt>
<trkpt lat="42.288880" lon="3.274250"><ele></ele><time>2014-4-9T1:30:34Z</time></trkpt>
<trkpt lat="42.289078" lon="3.274280"><ele></ele><time>2014-4-9T1:30:37Z</time></trkpt>
<trkpt lat="42.289292" lon="3.274275"><ele></ele><time>2014-4-9T1:30:40Z</time></trkpt>
<trkpt lat="42.289493" lon="3.274285"><ele></ele><time>2014-4-9T1:30:43Z</time></trkpt>
<trkpt lat="42.289730" lon="3.274278"><ele></ele><time>2014-4-9T1:30:46Z</time></trkpt>
<trkpt lat="42.289905" lon="3.274257"><ele></ele><time>2014-4-9T1:30:49Z</time></trkpt>
<trkpt lat="42.289978" lon="3.274380"><ele></ele><time>2014-4-9T1:30:52Z</time></trkpt>
<trkpt lat="42.290020" lon="3.274675"><ele></ele><time>2014-4-9T1:30:55Z</time></trkpt>
<trkpt lat="42.290062" lon="3.274995"><ele></ele><time>2014-4-9T1:30:58Z</time></trkpt>
<trkpt lat="42.290073" lon="3.275307"><ele></ele><time>2014-4-9T1:31:1Z</time></trkpt>
<trkpt lat="42.290038" lon="3.275582"><ele></ele><time>2014-4-9T1:31:4Z</time></trkpt>
<trkpt lat="42.290002" lon="3.275792"><ele></ele><time>2014-4-9T1:31:7Z</time></trkpt>
<trkpt lat="42.289993" lon="3.275913"><ele></ele><time>2014-4-9T1:31:10Z</time></trkpt>
<trkpt lat="42.290077" lon="3.275990"><ele></ele><time>2014-4-9T1:31:13Z</time></trkpt>
<trkpt lat="42.290120" lon="3.276087"><ele></ele><time>2014-4-9T1:31:16Z</time></trkpt>
<trkpt lat="42.290147" lon="3.276185"><ele></ele><time>2014-4-9T1:31:19Z</time></trkpt>
<trkpt lat="42.290165" lon="3.276283"><ele></ele><time>2014-4-9T1:31:22Z</time></trkpt>
<trkpt lat="42.290183" lon="3.276383"><ele></ele><time>2014-4-9T1:31:25Z</time></trkpt>
<trkpt lat="42.290203" lon="3.276487"><ele></ele><time>2014-4-9T1:31:28Z</time></trkpt>
<trkpt lat="42.290215" lon="3.276597"><ele></ele><time>2014-4-9T1:31:31Z</time></trkpt>
<trkpt lat="42.290195" lon="3.276700"><ele></ele><time>2014-4-9T1:31:34Z</time></trkpt>
<trkpt lat="42.290188" lon="3.276807"><ele></ele><time>2014-4-9T1:31:37Z</time></trkpt>
<trkpt lat="42.290183" lon="3.276920"><ele></ele><time>2014-4-9T1:31:40Z</time></trkpt>
<trkpt lat="42.290200" lon="3.277027"><ele></ele><time>2014-4-9T1:31:43Z</time></trkpt>
<trkpt lat="42.290242" lon="3.277145"><ele></ele><time>2014-4-9T1:31:46Z</time></trkpt>
<trkpt lat="42.290263" lon="3.277295"><ele></ele><time>2014-4-9T1:31:49Z</time></trkpt>
<trkpt lat="42.290310" lon="3.277462"><ele></ele><time>2014-4-9T1:31:52Z</time></trkpt>
<trkpt lat="42.290375" lon="3.277620"><ele></ele><time>2014-4-9T1:31:55Z</time></trkpt>
<trkpt lat="42.290443" lon="3.277805"><ele></ele><time>2014-4-9T1:31:58Z</time></trkpt>
<trkpt lat="42.290570" lon="3.278017"><ele></ele><time>2014-4-9T1:32:1Z</time></trkpt>
<trkpt lat="42.290742" lon="3.278333"><ele></ele><time>2014-4-9T1:32:4Z</time></trkpt>
<trkpt lat="42.290852" lon="3.278588"><ele></ele><time>2014-4-9T1:32:7Z</time></trkpt>
<trkpt lat="42.290798" lon="3.278740"><ele></ele><time>2014-4-9T1:32:10Z</time></trkpt>
<trkpt lat="42.290672" lon="3.278757"><ele></ele><time>2014-4-9T1:32:13Z</time></trkpt>
<trkpt lat="42.290588" lon="3.278828"><ele></ele><time>2014-4-9T1:32:16Z</time></trkpt>
<trkpt lat="42.290527" lon="3.278863"><ele></ele><time>2014-4-9T1:32:19Z</time></trkpt>
<trkpt lat="42.290462" lon="3.278908"><ele></ele><time>2014-4-9T1:32:22Z</time></trkpt>
<trkpt lat="42.290405" lon="3.278965"><ele></ele><time>2014-4-9T1:32:25Z</time></trkpt>
<trkpt lat="42.290352" lon="3.279020"><ele></ele><time>2014-4-9T1:32:28Z</time></trkpt>
<trkpt lat="42.290280" lon="3.279088"><ele></ele><time>2014-4-9T1:32:31Z</time></trkpt>
<trkpt lat="42.290168" lon="3.279153"><ele></ele><time>2014-4-9T1:32:34Z</time></trkpt>
<trkpt lat="42.290062" lon="3.279225"><ele></ele><time>2014-4-9T1:32:37Z</time></trkpt>
<trkpt lat="42.289955" lon="3.279317"><ele></ele><time>2014-4-9T1:32:40Z</time></trkpt>
<trkpt lat="42.289852" lon="3.279405"><ele></ele><time>2014-4-9T1:32:43Z</time></trkpt>
<trkpt lat="42.289803" lon="3.279422"><ele></ele><time>2014-4-9T1:32:46Z</time></trkpt>
<trkpt lat="42.289780" lon="3.279408"><ele></ele><time>2014-4-9T1:32:49Z</time></trkpt>
<trkpt lat="42.289777" lon="3.279437"><ele></ele><time>2014-4-9T1:32:52Z</time></trkpt>
<trkpt lat="42.289772" lon="3.279445"><ele></ele><time>2014-4-9T1:32:55Z</time></trkpt>
<trkpt lat="42.289780" lon="3.279435"><ele></ele><time>2014-4-9T1:32:58Z</time></trkpt>
<trkpt lat="42.289760" lon="3.279463"><ele></ele><time>2014-4-9T1:33:1Z</time></trkpt>
<trkpt lat="42.289727" lon="3.279472"><ele></ele><time>2014-4-9T1:33:4Z</time></trkpt>
<trkpt lat="42.289718" lon="3.279493"><ele></ele><time>2014-4-9T1:33:7Z</time></trkpt>
<trkpt lat="42.289757" lon="3.279462"><ele></ele><time>2014-4-9T1:33:10Z</time></trkpt>
<trkpt lat="42.289768" lon="3.279442"><ele></ele><time>2014-4-9T1:33:13Z</time></trkpt>
<trkpt lat="42.289765" lon="3.279428"><ele></ele><time>2014-4-9T1:33:16Z</time></trkpt>
<trkpt lat="42.289777" lon="3.279433"><ele></ele><time>2014-4-9T1:33:19Z</time></trkpt>
<trkpt lat="42.289792" lon="3.279428"><ele></ele><time>2014-4-9T1:33:22Z</time></trkpt>
<trkpt lat="42.289772" lon="3.279432"><ele></ele><time>2014-4-9T1:33:25Z</time></trkpt>
<trkpt lat="42.289783" lon="3.279442"><ele></ele><time>2014-4-9T1:33:28Z</time></trkpt>
<trkpt lat="42.289760" lon="3.279433"><ele></ele><time>2014-4-9T1:33:31Z</time></trkpt>
<trkpt lat="42.289753" lon="3.279477"><ele></ele><time>2014-4-9T1:33:34Z</time></trkpt>
<trkpt lat="42.289822" lon="3.279500"><ele></ele><time>2014-4-9T1:33:37Z</time></trkpt>
<trkpt lat="42.289783" lon="3.279470"><ele></ele><time>2014-4-9T1:33:40Z</time></trkpt>
<trkpt lat="42.289825" lon="3.279462"><ele></ele><time>2014-4-9T1:33:43Z</time></trkpt>
<trkpt lat="42.289837" lon="3.279510"><ele></ele><time>2014-4-9T1:33:46Z</time></trkpt>
<trkpt lat="42.289840" lon="3.279505"><ele></ele><time>2014-4-9T1:33:49Z</time></trkpt>
<trkpt lat="42.289822" lon="3.279470"><ele></ele><time>2014-4-9T1:33:52Z</time></trkpt>
<trkpt lat="42.289803" lon="3.279532"><ele></ele><time>2014-4-9T1:33:55Z</time></trkpt>
<trkpt lat="42.289798" lon="3.279518"><ele></ele><time>2014-4-9T1:33:58Z</time></trkpt>
</trkseg></trk></gpx>